[[{"header":{"parameterUnit":"m.s-1","parameterCategory":1,"la1":31.0,"la2":29.5877,"lo1":-88.7671,"lo2":-86.6584,"dy":0.0162,"dx":0.0185,"nx":115,"ny":88,"refTime":"2025-12-10T12:00:00:Z","depth":0,"parameterNumber":2,"parameterNumberName":"U-component_of_WINDS"},"data":[0.0,0.0,0.0,0.0,0.0,0.0,0.0,0.0,0.0,0.0,0.0,0.0,0.0,0.0,0.0,0.0,0.0,0.0,0.0,0.0,0.0,0.0,0.0,0.0,0.0,0.0,0.0,0.0,0.0,0.0,0.0,0.0,0.0,0.0,0.0,0.0,0.0,0.0,0.0,0.0,0.0,0.0,0.0,0.0,0.0,0.0,0.0,0.0,0.0,0.0,0.0,0.0,0.0,0.0,0.0,0.0,0.0,0.0,0.0,0.0,0.0,0.0,0.0,0.0,0.0,0.0,0.0,0.0,0.0,0.0,0.0,0.0,0.0,0.0,0.0,0.0,0.0,0.0,0.0,0.0,0.0,0.0,0.0,0.0,0.0,0.0,0.0,0.0,0.0,0.0,0.0,0.0,0.0,0.0,0.0,0.0,0.0,0.0,0.0,0.0,0.0,0.0,0.0,0.0,0.0,0.0,0.0,0.0,0.0,0.0,0.0,0.0,0.0,0.0,0.0,0.0,0.0,0.0,0.0,0.0,0.0,0.0,0.0,0.0,0.0,0.0,0.0,0.0,0.0,0.0,0.0,0.0,0.0,0.0,0.0,0.0,0.0,0.0,0.0,0.0,0.0,0.0,0.0,0.0,0.0,0.0,0.0,0.0,0.0,0.0,0.0,0.0,0.0,0.0,0.0,0.0,0.0,0.0,0.0,0.0,0.0,0.0,0.0,0.0,0.0,0.0,0.0,0.0,0.0,0.0,0.0,0.0,0.0,0.0,0.0,0.0,0.0,0.0,0.0,0.0,0.0,0.0,0.0,0.0,0.0,0.0,0.0,0.0,0.0,0.0,0.0,0.0,0.0,0.0,0.0,0.0,0.0,0.0,0.0,0.0,0.0,0.0,0.0,0.0,0.0,0.0,0.0,0.0,0.0,0.0,0.0,0.0,0.0,0.0,0.0,0.0,0.0,0.0,0.0,0.0,0.0,0.0,0.0,0.0,0.0,0.0,0.0,0.0,0.0,0.0,0.0,0.0,0.0,0.0,0.0,0.0,0.0,0.0,0.0,0.0,0.0,0.0,0.0,0.0,0.0,0.0,0.0,0.0,0.0,0.0,0.0,0.0,0.0,0.0,0.0,0.0,0.0,0.0,0.0,0.0,0.0,0.0,0.0,0.0,0.0,0.0,0.0,0.0,0.0,0.0,0.0,0.0,0.0,0.0,0.0,0.0,0.0,0.0,0.0,0.0,0.0,0.0,0.0,0.0,0.0,0.0,0.0,0.0,0.0,0.0,0.0,0.0,0.0,0.0,0.0,0.0,0.0,0.0,0.0,0.0,0.0,0.0,0.0,0.0,0.0,0.0,0.0,0.0,0.0,0.0,0.0,0.0,0.0,0.0,0.0,0.0,0.0,0.0,0.0,0.0,0.0,0.0,0.0,0.0,0.0,0.0,0.0,0.0,0.0,0.0,0.0,0.0,0.0,0.0,0.0,0.0,0.0,0.0,0.0,0.0,0.0,0.0,0.0,0.0,0.0,0.0,0.0,0.0,0.0,0.0,0.0,0.0,0.0,0.0,0.0,0.0,0.0,0.0,0.0,0.0,0.0,0.0,0.0,0.0,0.0,0.0,0.0,0.0,0.0,0.0,0.0,0.0,0.0,0.0,0.0,0.0,0.0,0.0,0.0,0.0,0.0,0.0,0.0,0.0,0.0,0.0,0.0,0.0,0.0,0.0,0.0,0.0,0.0,0.0,0.0,0.0,0.0,0.0,0.0,0.0,0.0,0.0,0.0,0.0,0.0,0.0,0.0,0.0,0.0,0.0,0.0,0.0,0.0,0.0,0.0,0.0,0.0,0.0,0.0,0.0,0.0,0.0,0.0,0.0,0.0,0.0,0.0,0.0,0.0,0.0,0.0,0.0,0.0,0.0,0.0,0.0,0.0,0.0,0.0,0.0,0.0,0.0,0.0,0.0,0.0,0.0,0.0,0.0,0.0,0.0,0.0,0.0,0.0,0.0,0.0,0.0,0.0,0.0,0.0,0.0,0.0,0.0,0.0,0.0,0.0,0.0,0.0,0.0,0.0,0.0,0.0,0.0,0.0,0.0,0.0,0.0,0.0,0.0,0.0,0.0,0.0,0.0,0.0,0.0,0.0,0.0,0.0,0.0,0.0,0.0,0.0,0.0,0.0,0.0,0.0,0.0,0.0,0.0,0.0,0.0,0.0,0.0,0.0,0.0,0.0,0.0,0.0,0.0,0.0,0.0,0.0,0.0,0.0,0.0,0.0,0.0,0.0,0.0,0.0,0.0,0.0,0.0,0.0,0.0,0.0,0.0,0.0,0.0,0.0,0.0,0.0,0.0,0.0,0.0,0.0,0.0,0.0,0.0,0.0,0.0,0.0,0.0,0.0,0.0,0.0,0.0,0.0,0.0,0.0,0.0,0.0,0.0,0.0,0.0,0.0,0.0,0.0,0.0,0.0,0.0,0.0,0.0,0.0,0.0,0.0,0.0,0.0,0.0,0.0,0.0,0.0,0.0,0.0,0.0,0.0,0.0,0.0,0.0,0.0,0.0,0.0,0.0,0.0,0.0,0.0,0.0,0.0,0.0,0.0,0.0,0.0,0.0,0.0,0.0,0.0,0.0,0.0,0.0,0.0,0.0,0.0,0.0,0.0,0.0,0.0,0.0,0.0,0.0,0.0,0.0,0.0,0.0,0.0,0.0,0.0,0.0,0.0,0.0,0.0,0.0,0.0,0.0,0.0,0.0,0.0,0.0,0.0,0.0,0.0,0.0,0.0,0.0,0.0,0.0,0.0,0.0,0.0,0.0,0.0,0.0,0.0,0.0,0.0,0.0,0.0,0.0,0.0,0.0,0.0,0.0,0.0,0.0,0.0,0.0,0.0,0.0,0.0,0.0,0.0,0.0,0.0,0.0,0.0,0.0,0.0,0.0,0.0,0.0,0.0,0.0,0.0,0.0,0.0,0.0,0.0,0.0,0.0,0.0,0.0,0.0,0.0,0.0,0.0,0.0,0.0,0.0,0.0,0.0,0.0,0.0,0.0,0.0,0.0,0.0,0.0,0.0,0.0,0.0,0.0,0.0,0.0,0.0,0.0,0.0,0.0,0.0,0.0,0.0,0.0,0.0,0.0,0.0,0.0,0.0,0.0,0.0,0.0,0.0,0.0,0.0,0.0,0.0,0.0,0.0,0.0,0.0,0.0,0.0,0.0,0.0,0.0,0.0,0.0,0.0,0.0,0.0,0.0,0.0,0.0,0.0,0.0,0.0,0.0,0.0,0.0,0.0,0.0,0.0,0.0,0.0,0.0,0.0,0.0,0.0,0.0,0.0,0.0,0.0,0.0,0.0,0.0,0.0,0.0,0.0,0.0,0.0,0.0,0.0,0.0,0.0,0.0,0.0,0.0,0.0,0.0,0.0,0.0,0.0,0.0,0.0,0.0,0.0,0.0,0.0,0.0,0.0,0.0,0.0,0.0,0.0,0.0,0.0,0.0,0.0,0.0,0.0,0.0,0.0,0.0,0.0,0.0,0.0,0.0,0.0,0.0,0.0,0.0,0.0,0.0,0.0,0.0,0.0,0.0,0.0,0.0,0.0,0.0,0.0,0.0,0.0,0.0,0.0,0.0,0.0,0.0,0.0,0.0,0.0,0.0,0.0,0.0,0.0,0.0,0.0,0.0,0.0,0.0,0.0,0.0,0.0,0.0,0.0,0.0,0.0,0.0,0.0,0.0,0.0,0.0,0.0,0.0,0.0,0.0,0.0,0.0,0.0,0.0,0.0,0.0,0.0,0.0,0.0,0.0,0.0,0.0,0.0,0.0,0.0,0.0,0.0,0.0,0.0,0.0,0.0,0.0,0.0,0.0,0.0,0.0,0.0,0.0,0.0,0.0,0.0,0.0,0.0,0.0,0.0,0.0,0.0,0.0,0.0,0.0,0.0,0.0,0.0,0.0,0.0,0.0,0.0,0.0,0.0,0.0,0.0,0.0,0.0,0.0,0.0,0.0,0.0,0.0,0.0,0.0,0.0,0.0,0.0,0.0,0.0,0.0,0.0,0.0,0.0,0.0,0.0,0.0,0.0,0.0,0.0,0.0,0.0,0.0,0.0,0.0,0.0,0.0,0.0,0.0,0.0,0.0,0.0,0.0,0.0,0.0,0.0,0.0,0.0,0.0,0.0,0.0,0.0,0.0,0.0,0.0,0.0,0.0,0.0,0.0,0.0,0.0,0.0,0.0,0.0,0.0,0.0,0.0,0.0,-1.8477,0.0,0.0,0.0,0.0,0.0,0.0,0.0,0.0,0.0,0.0,0.0,0.0,0.0,0.0,0.0,0.0,0.0,0.0,0.0,0.0,0.0,0.0,0.0,0.0,0.0,0.0,0.0,0.0,0.0,0.0,0.0,0.0,0.0,0.0,0.0,0.0,0.0,0.0,0.0,0.0,0.0,0.0,0.0,0.0,0.0,0.0,0.0,0.0,0.0,0.0,0.0,0.0,0.0,0.0,0.0,0.0,0.0,0.0,0.0,0.0,0.0,0.0,0.0,0.0,0.0,0.0,0.0,0.0,0.0,0.0,0.0,0.0,0.0,0.0,0.0,0.0,0.0,0.0,0.0,0.0,0.0,0.0,0.0,0.0,0.0,0.0,0.0,0.0,0.0,0.0,0.0,0.0,0.0,0.0,0.0,0.0,0.0,0.0,0.0,0.0,0.0,0.0,0.0,0.0,0.0,0.0,0.0,0.0,0.0,0.0,-1.9065,-1.9345,-1.8798,-1.849,-1.8477,0.0,0.0,0.0,0.0,0.0,0.0,0.0,0.0,0.0,0.0,0.0,0.0,0.0,0.0,0.0,0.0,0.0,0.0,0.0,0.0,0.0,0.0,0.0,0.0,0.0,0.0,0.0,0.0,0.0,0.0,0.0,0.0,0.0,0.0,0.0,0.0,0.0,0.0,0.0,0.0,0.0,0.0,0.0,0.0,0.0,0.0,0.0,0.0,0.0,0.0,0.0,0.0,0.0,0.0,0.0,0.0,0.0,0.0,0.0,0.0,0.0,0.0,0.0,0.0,0.0,0.0,0.0,0.0,0.0,0.0,0.0,0.0,0.0,0.0,0.0,0.0,0.0,0.0,0.0,0.0,0.0,0.0,0.0,0.0,0.0,0.0,0.0,0.0,0.0,0.0,0.0,0.0,0.0,0.0,0.0,0.0,0.0,0.0,0.0,0.0,0.0,0.0,0.0,0.0,0.0,0.0,0.0,0.0,0.0,0.0,0.0,0.0,-1.8958,-1.8584,-1.8384,0.0,0.0,0.0,0.0,0.0,0.0,0.0,0.0,0.0,0.0,0.0,0.0,0.0,0.0,0.0,0.0,0.0,0.0,0.0,0.0,0.0,0.0,0.0,0.0,0.0,0.0,0.0,0.0,0.0,0.0,0.0,0.0,0.0,0.0,0.0,0.0,0.0,0.0,0.0,0.0,0.0,0.0,0.0,0.0,0.0,0.0,0.0,0.0,0.0,0.0,0.0,0.0,0.0,0.0,0.0,0.0,0.0,0.0,0.0,0.0,0.0,0.0,0.0,0.0,0.0,0.0,0.0,0.0,0.0,0.0,0.0,0.0,0.0,0.0,0.0,0.0,0.0,0.0,0.0,0.0,0.0,0.0,0.0,0.0,0.0,0.0,0.0,0.0,0.0,0.0,0.0,0.0,0.0,0.0,0.0,0.0,0.0,0.0,0.0,0.0,0.0,0.0,0.0,0.0,0.0,0.0,0.0,0.0,0.0,0.0,-1.8918,-1.9733,-1.9439,0.0,-1.813,0.0,0.0,0.0,0.0,0.0,0.0,0.0,0.0,0.0,0.0,0.0,0.0,0.0,0.0,0.0,0.0,0.0,0.0,0.0,0.0,0.0,0.0,0.0,0.0,0.0,0.0,0.0,0.0,0.0,0.0,0.0,0.0,0.0,0.0,0.0,0.0,0.0,0.0,0.0,0.0,0.0,0.0,0.0,0.0,0.0,0.0,0.0,0.0,0.0,0.0,0.0,0.0,0.0,0.0,0.0,0.0,0.0,0.0,0.0,0.0,0.0,0.0,0.0,0.0,0.0,0.0,0.0,0.0,0.0,0.0,0.0,0.0,0.0,0.0,0.0,0.0,0.0,0.0,0.0,0.0,0.0,0.0,0.0,0.0,0.0,0.0,0.0,0.0,0.0,0.0,0.0,0.0,0.0,0.0,0.0,0.0,0.0,0.0,0.0,0.0,0.0,0.0,0.0,0.0,0.0,0.0,0.0,0.0,0.0,0.0,0.0,-1.9786,-1.9185,-1.8504,0.0,0.0,0.0,0.0,0.0,0.0,0.0,0.0,0.0,0.0,0.0,0.0,0.0,0.0,0.0,0.0,0.0,0.0,0.0,0.0,0.0,0.0,0.0,0.0,0.0,0.0,0.0,0.0,0.0,0.0,0.0,0.0,0.0,0.0,0.0,0.0,0.0,0.0,0.0,0.0,0.0,0.0,0.0,0.0,0.0,0.0,0.0,0.0,0.0,0.0,0.0,0.0,0.0,0.0,0.0,0.0,0.0,0.0,0.0,0.0,0.0,0.0,0.0,0.0,0.0,0.0,0.0,0.0,0.0,0.0,0.0,0.0,0.0,0.0,0.0,0.0,0.0,0.0,0.0,0.0,0.0,0.0,0.0,0.0,0.0,0.0,0.0,0.0,0.0,0.0,0.0,0.0,0.0,0.0,0.0,0.0,0.0,0.0,0.0,0.0,0.0,0.0,0.0,0.0,0.0,0.0,0.0,0.0,0.0,0.0,-1.8731,0.0,-1.9613,-1.9065,-1.837,-1.7609,0.0,0.0,0.0,0.0,0.0,0.0,0.0,0.0,0.0,0.0,0.0,0.0,0.0,0.0,0.0,0.0,0.0,0.0,0.0,0.0,0.0,0.0,0.0,0.0,0.0,0.0,0.0,0.0,0.0,0.0,0.0,0.0,0.0,0.0,0.0,0.0,0.0,0.0,0.0,0.0,0.0,0.0,0.0,0.0,0.0,0.0,0.0,0.0,0.0,0.0,0.0,0.0,0.0,0.0,0.0,0.0,0.0,0.0,0.0,0.0,0.0,0.0,0.0,0.0,0.0,0.0,0.0,0.0,0.0,0.0,0.0,0.0,0.0,0.0,0.0,0.0,0.0,0.0,0.0,0.0,0.0,0.0,0.0,0.0,0.0,0.0,0.0,0.0,0.0,0.0,0.0,0.0,0.0,0.0,0.0,0.0,0.0,0.0,0.0,0.0,0.0,0.0,0.0,0.0,0.0,0.0,0.0,0.0,0.0,-1.8651,-1.8798,-1.9488,-1.9345,-1.8771,0.0,0.0,0.0,0.0,0.0,0.0,0.0,0.0,0.0,0.0,0.0,0.0,0.0,0.0,0.0,0.0,0.0,0.0,0.0,0.0,0.0,0.0,0.0,0.0,0.0,0.0,0.0,0.0,0.0,0.0,0.0,0.0,0.0,0.0,0.0,0.0,0.0,0.0,0.0,0.0,0.0,0.0,0.0,0.0,0.0,0.0,0.0,0.0,0.0,0.0,0.0,0.0,0.0,0.0,0.0,0.0,0.0,0.0,0.0,0.0,0.0,0.0,0.0,0.0,0.0,0.0,0.0,0.0,0.0,0.0,0.0,0.0,0.0,0.0,0.0,0.0,0.0,0.0,0.0,0.0,0.0,0.0,0.0,0.0,0.0,0.0,0.0,0.0,0.0,0.0,0.0,0.0,0.0,0.0,0.0,0.0,0.0,0.0,0.0,0.0,0.0,0.0,0.0,0.0,0.0,0.0,0.0,0.0,0.0,-1.8343,-1.9472,-2.0358,-2.1046,-2.0898,-2.0635,0.0,0.0,0.0,0.0,0.0,0.0,0.0,0.0,0.0,0.0,0.0,0.0,0.0,0.0,0.0,0.0,0.0,0.0,0.0,0.0,0.0,0.0,0.0,0.0,0.0,0.0,0.0,0.0,0.0,0.0,0.0,0.0,0.0,0.0,0.0,0.0,0.0,0.0,0.0,0.0,0.0,0.0,0.0,0.0,0.0,0.0,0.0,0.0,0.0,0.0,0.0,0.0,0.0,0.0,0.0,0.0,0.0,0.0,0.0,0.0,0.0,0.0,0.0,0.0,0.0,0.0,0.0,0.0,0.0,0.0,0.0,0.0,0.0,0.0,0.0,0.0,0.0,0.0,0.0,0.0,0.0,0.0,0.0,0.0,0.0,0.0,0.0,0.0,0.0,0.0,0.0,0.0,0.0,0.0,0.0,0.0,0.0,0.0,0.0,0.0,0.0,0.0,0.0,0.0,0.0,0.0,0.0,0.0,0.0,-1.8916,0.0,-2.1324,0.0,-2.1851,-2.164,0.0,0.0,0.0,0.0,0.0,0.0,0.0,0.0,0.0,0.0,0.0,0.0,0.0,0.0,0.0,0.0,0.0,0.0,0.0,0.0,0.0,0.0,0.0,0.0,0.0,0.0,0.0,0.0,0.0,0.0,0.0,0.0,0.0,0.0,0.0,0.0,0.0,0.0,0.0,0.0,0.0,0.0,0.0,0.0,0.0,0.0,0.0,0.0,0.0,0.0,0.0,0.0,0.0,0.0,0.0,0.0,0.0,0.0,0.0,0.0,0.0,0.0,0.0,0.0,0.0,0.0,0.0,0.0,0.0,0.0,0.0,0.0,0.0,0.0,0.0,0.0,0.0,0.0,0.0,0.0,0.0,0.0,0.0,0.0,0.0,0.0,0.0,0.0,0.0,0.0,0.0,0.0,0.0,0.0,0.0,0.0,0.0,0.0,0.0,0.0,0.0,0.0,0.0,0.0,0.0,0.0,0.0,0.0,-1.861,-2.0569,-2.1008,-2.1573,-2.2078,-2.222,-2.1527,0.0,0.0,0.0,0.0,0.0,0.0,0.0,0.0,0.0,0.0,0.0,0.0,0.0,0.0,0.0,0.0,0.0,0.0,0.0,0.0,0.0,0.0,0.0,0.0,0.0,0.0,0.0,0.0,0.0,0.0,0.0,0.0,0.0,0.0,0.0,0.0,0.0,0.0,0.0,0.0,0.0,0.0,0.0,0.0,0.0,0.0,0.0,0.0,0.0,0.0,0.0,0.0,0.0,0.0,0.0,0.0,0.0,0.0,0.0,0.0,0.0,0.0,0.0,0.0,0.0,0.0,0.0,0.0,0.0,0.0,0.0,0.0,0.0,0.0,0.0,0.0,0.0,0.0,0.0,0.0,0.0,0.0,0.0,0.0,0.0,0.0,0.0,0.0,0.0,0.0,0.0,0.0,0.0,0.0,0.0,0.0,0.0,0.0,0.0,0.0,0.0,0.0,0.0,0.0,0.0,0.0,0.0,0.0,0.0,-2.0377,-2.1556,-2.3046,-2.4915,-2.4491,-2.4287,0.0,0.0,0.0,0.0,0.0,0.0,0.0,0.0,0.0,0.0,0.0,0.0,0.0,0.0,0.0,0.0,0.0,0.0,0.0,0.0,0.0,0.0,0.0,0.0,0.0,0.0,0.0,0.0,0.0,0.0,0.0,0.0,0.0,0.0,0.0,0.0,0.0,0.0,0.0,0.0,0.0,0.0,0.0,0.0,0.0,0.0,0.0,0.0,0.0,0.0,0.0,0.0,0.0,0.0,0.0,0.0,0.0,0.0,0.0,0.0,0.0,0.0,0.0,0.0,0.0,0.0,0.0,0.0,0.0,0.0,0.0,0.0,0.0,0.0,0.0,0.0,0.0,0.0,0.0,0.0,0.0,0.0,0.0,0.0,0.0,0.0,0.0,0.0,0.0,0.0,0.0,0.0,0.0,0.0,0.0,0.0,0.0,0.0,0.0,0.0,0.0,0.0,0.0,0.0,0.0,0.0,0.0,0.0,0.0,-2.1569,-2.3178,-2.4933,-2.6728,-2.5871,-2.543,-2.5605,0.0,0.0,0.0,0.0,0.0,0.0,0.0,0.0,0.0,0.0,0.0,0.0,0.0,0.0,0.0,0.0,0.0,0.0,0.0,0.0,0.0,0.0,0.0,0.0,0.0,0.0,0.0,0.0,0.0,0.0,0.0,0.0,0.0,0.0,0.0,0.0,0.0,0.0,0.0,0.0,0.0,0.0,0.0,0.0,0.0,0.0,0.0,0.0,0.0,0.0,0.0,0.0,0.0,0.0,0.0,0.0,0.0,0.0,0.0,0.0,0.0,0.0,0.0,0.0,0.0,0.0,0.0,0.0,0.0,0.0,0.0,0.0,0.0,0.0,0.0,0.0,0.0,0.0,0.0,0.0,0.0,0.0,0.0,0.0,0.0,0.0,0.0,0.0,0.0,0.0,0.0,0.0,0.0,0.0,0.0,0.0,0.0,0.0,0.0,0.0,0.0,0.0,0.0,0.0,0.0,0.0,0.0,0.0,-2.3653,-2.5339,-2.6732,-2.7793,-2.6504,-2.541,0.0,0.0,0.0,0.0,0.0,0.0,0.0,0.0,0.0,0.0,0.0,0.0,0.0,0.0,0.0,0.0,0.0,0.0,0.0,0.0,0.0,0.0,0.0,0.0,0.0,0.0,0.0,0.0,0.0,0.0,0.0,0.0,0.0,0.0,0.0,0.0,0.0,0.0,0.0,0.0,0.0,0.0,0.0,0.0,0.0,0.0,0.0,0.0,0.0,0.0,0.0,0.0,0.0,0.0,0.0,0.0,0.0,0.0,0.0,0.0,0.0,0.0,0.0,0.0,0.0,0.0,0.0,0.0,0.0,0.0,0.0,0.0,0.0,0.0,0.0,0.0,0.0,0.0,0.0,0.0,0.0,0.0,0.0,0.0,0.0,0.0,0.0,0.0,0.0,0.0,0.0,0.0,0.0,0.0,0.0,0.0,0.0,0.0,0.0,0.0,0.0,0.0,0.0,0.0,0.0,0.0,0.0,0.0,0.0,-2.4132,-2.7013,-2.8829,-2.9043,-2.7519,-2.6426,0.0,0.0,0.0,0.0,0.0,0.0,0.0,0.0,0.0,0.0,0.0,0.0,0.0,0.0,0.0,0.0,0.0,0.0,0.0,0.0,0.0,0.0,0.0,0.0,0.0,0.0,0.0,0.0,0.0,0.0,0.0,0.0,0.0,0.0,0.0,0.0,0.0,0.0,0.0,0.0,0.0,0.0,0.0,0.0,0.0,0.0,0.0,0.0,0.0,0.0,0.0,0.0,0.0,0.0,0.0,0.0,0.0,0.0,0.0,0.0,0.0,0.0,0.0,0.0,0.0,0.0,0.0,0.0,0.0,0.0,0.0,0.0,0.0,0.0,0.0,0.0,0.0,0.0,0.0,0.0,0.0,0.0,0.0,0.0,0.0,0.0,0.0,0.0,0.0,0.0,0.0,0.0,0.0,0.0,0.0,0.0,0.0,0.0,0.0,0.0,0.0,0.0,0.0,0.0,0.0,0.0,0.0,0.0,-2.3938,-2.4156,-2.7903,-2.9746,-2.957,-2.8262,-2.7187,0.0,0.0,0.0,0.0,0.0,0.0,0.0,0.0,0.0,0.0,0.0,0.0,0.0,0.0,0.0,0.0,0.0,0.0,0.0,0.0,0.0,0.0,0.0,0.0,0.0,0.0,0.0,0.0,0.0,0.0,0.0,0.0,0.0,0.0,0.0,0.0,0.0,0.0,0.0,0.0,0.0,0.0,0.0,0.0,0.0,0.0,0.0,0.0,0.0,0.0,0.0,0.0,0.0,0.0,0.0,0.0,0.0,0.0,0.0,0.0,0.0,0.0,0.0,0.0,0.0,0.0,0.0,0.0,0.0,0.0,0.0,0.0,0.0,0.0,0.0,0.0,0.0,0.0,0.0,0.0,0.0,0.0,0.0,0.0,0.0,0.0,0.0,0.0,0.0,0.0,0.0,0.0,0.0,0.0,0.0,0.0,0.0,0.0,0.0,0.0,0.0,0.0,0.0,0.0,0.0,0.0,0.0,0.0,-2.4223,-2.4111,-2.8032,-3.0019,-2.9629,-2.8769,-2.7715,0.0,0.0,0.0,0.0,0.0,0.0,0.0,0.0,0.0,0.0,0.0,0.0,0.0,0.0,0.0,0.0,0.0,0.0,0.0,0.0,0.0,0.0,0.0,0.0,0.0,0.0,0.0,0.0,0.0,0.0,0.0,0.0,0.0,0.0,0.0,0.0,0.0,0.0,0.0,0.0,0.0,0.0,0.0,0.0,0.0,0.0,0.0,0.0,0.0,0.0,0.0,0.0,0.0,0.0,0.0,0.0,0.0,0.0,0.0,0.0,0.0,0.0,0.0,0.0,0.0,0.0,0.0,0.0,0.0,0.0,0.0,0.0,0.0,0.0,0.0,0.0,0.0,0.0,0.0,0.0,0.0,0.0,0.0,0.0,0.0,0.0,0.0,0.0,0.0,0.0,0.0,0.0,0.0,0.0,0.0,0.0,0.0,0.0,0.0,0.0,0.0,0.0,0.0,0.0,0.0,0.0,0.0,0.0,-2.4478,-2.4494,-2.818,-3.0156,-3.0059,-2.8906,-2.7851,0.0,0.0,0.0,0.0,0.0,0.0,0.0,0.0,0.0,0.0,0.0,0.0,0.0,0.0,0.0,0.0,0.0,0.0,0.0,0.0,0.0,0.0,0.0,0.0,0.0,0.0,0.0,0.0,0.0,0.0,0.0,0.0,0.0,0.0,0.0,0.0,0.0,0.0,0.0,0.0,0.0,0.0,0.0,0.0,0.0,0.0,0.0,0.0,-1.6402,0.0,0.0,0.0,0.0,0.0,0.0,0.0,0.0,0.0,0.0,0.0,0.0,0.0,0.0,0.0,0.0,0.0,0.0,0.0,0.0,0.0,0.0,0.0,0.0,0.0,0.0,0.0,0.0,0.0,0.0,0.0,0.0,0.0,0.0,0.0,0.0,0.0,0.0,0.0,0.0,0.0,0.0,0.0,0.0,0.0,0.0,0.0,0.0,0.0,0.0,0.0,0.0,0.0,0.0,0.0,0.0,0.0,0.0,0.0,-2.4411,-2.448,-2.7734,-2.959,-2.9551,-2.875,-2.7891,0.0,0.0,0.0,0.0,0.0,0.0,0.0,0.0,0.0,0.0,0.0,0.0,0.0,0.0,0.0,0.0,0.0,0.0,0.0,0.0,0.0,0.0,0.0,0.0,0.0,0.0,0.0,0.0,0.0,0.0,0.0,0.0,0.0,0.0,0.0,0.0,0.0,0.0,0.0,0.0,0.0,0.0,0.0,0.0,0.0,0.0,0.0,0.0,0.0,0.0,0.0,0.0,0.0,0.0,0.0,0.0,0.0,0.0,0.0,0.0,0.0,0.0,0.0,0.0,0.0,0.0,0.0,0.0,0.0,0.0,0.0,0.0,0.0,0.0,0.0,0.0,0.0,0.0,0.0,0.0,0.0,0.0,0.0,0.0,0.0,0.0,0.0,0.0,0.0,0.0,0.0,0.0,0.0,0.0,0.0,0.0,0.0,0.0,0.0,0.0,0.0,0.0,0.0,0.0,0.0,0.0,0.0,-2.2025,-2.4082,-2.4433,-2.7364,-2.8926,-2.8906,-2.8516,-2.7851,-2.6953,0.0,0.0,0.0,0.0,0.0,0.0,0.0,0.0,0.0,0.0,0.0,0.0,0.0,0.0,0.0,0.0,0.0,0.0,0.0,0.0,0.0,0.0,0.0,0.0,0.0,0.0,0.0,0.0,0.0,0.0,0.0,0.0,0.0,0.0,0.0,0.0,0.0,0.0,-1.5523,-1.3536,0.0,0.0,0.0,0.0,0.0,0.0,0.0,0.0,-1.4867,0.0,0.0,0.0,0.0,0.0,0.0,0.0,0.0,0.0,0.0,0.0,0.0,0.0,0.0,0.0,0.0,0.0,0.0,0.0,0.0,0.0,0.0,0.0,0.0,0.0,0.0,0.0,0.0,0.0,0.0,0.0,0.0,0.0,0.0,0.0,0.0,0.0,0.0,0.0,0.0,0.0,0.0,0.0,0.0,0.0,0.0,0.0,0.0,0.0,0.0,0.0,0.0,0.0,0.0,0.0,0.0,-1.9479,-2.2274,-2.395,-2.4663,-2.7381,-2.8926,-2.8906,-2.8516,-2.7734,-2.6562,0.0,0.0,0.0,0.0,0.0,0.0,0.0,0.0,0.0,0.0,0.0,0.0,0.0,0.0,0.0,0.0,0.0,0.0,0.0,0.0,0.0,0.0,0.0,0.0,0.0,0.0,0.0,0.0,0.0,0.0,0.0,0.0,0.0,0.0,0.0,0.0,0.0,0.0,0.0,-1.1588,-1.1097,0.0,0.0,0.0,0.0,0.0,0.0,0.0,0.0,-1.6851,0.0,0.0,0.0,0.0,0.0,0.0,0.0,0.0,0.0,0.0,0.0,0.0,0.0,0.0,0.0,0.0,0.0,0.0,0.0,0.0,0.0,0.0,0.0,0.0,0.0,0.0,0.0,0.0,0.0,0.0,0.0,0.0,0.0,0.0,0.0,0.0,0.0,0.0,0.0,0.0,0.0,0.0,0.0,0.0,0.0,0.0,0.0,0.0,0.0,0.0,0.0,0.0,0.0,0.0,0.0,-1.8924,-2.2023,-2.3904,-2.4581,-2.7234,-2.8594,-2.8574,-2.7969,-2.7129,0.0,0.0,0.0,0.0,0.0,0.0,0.0,0.0,0.0,0.0,0.0,0.0,0.0,0.0,0.0,0.0,0.0,0.0,0.0,0.0,0.0,0.0,0.0,0.0,0.0,0.0,0.0,0.0,0.0,0.0,0.0,0.0,0.0,0.0,0.0,0.0,0.0,0.0,0.0,0.0,-1.1246,-1.0816,-1.1747,0.0,0.0,0.0,0.0,0.0,0.0,-1.4295,-1.5114,0.0,0.0,0.0,0.0,0.0,0.0,0.0,0.0,0.0,0.0,0.0,0.0,0.0,0.0,0.0,0.0,0.0,0.0,0.0,0.0,0.0,0.0,0.0,0.0,0.0,0.0,0.0,0.0,0.0,0.0,0.0,0.0,0.0,0.0,0.0,0.0,0.0,0.0,0.0,0.0,0.0,0.0,0.0,0.0,0.0,0.0,0.0,0.0,0.0,0.0,0.0,0.0,0.0,0.0,0.0,-1.8225,-2.1744,-2.3888,-2.4433,-2.6975,-2.8301,-2.8281,-2.7637,-2.6797,0.0,0.0,0.0,0.0,0.0,0.0,0.0,0.0,0.0,0.0,0.0,0.0,0.0,0.0,0.0,0.0,0.0,0.0,0.0,0.0,0.0,0.0,0.0,0.0,0.0,0.0,0.0,0.0,0.0,0.0,0.0,0.0,0.0,0.0,0.0,0.0,0.0,0.0,0.0,0.0,0.0,-1.1311,-1.1115,-1.1637,0.0,0.0,0.0,0.0,-1.2374,-1.2499,0.0,0.0,0.0,0.0,0.0,0.0,0.0,0.0,0.0,0.0,0.0,0.0,0.0,0.0,0.0,0.0,0.0,0.0,0.0,0.0,0.0,0.0,0.0,0.0,0.0,0.0,0.0,0.0,0.0,0.0,0.0,0.0,0.0,0.0,0.0,0.0,0.0,0.0,0.0,0.0,0.0,0.0,0.0,0.0,0.0,0.0,0.0,0.0,0.0,0.0,0.0,0.0,0.0,0.0,0.0,0.0,-1.8494,-2.1418,-2.3508,-2.473,-2.7013,-2.8301,-2.8301,-2.8203,-2.7383,0.0,0.0,0.0,0.0,0.0,0.0,0.0,0.0,0.0,0.0,0.0,0.0,0.0,0.0,0.0,0.0,0.0,0.0,0.0,0.0,0.0,0.0,0.0,0.0,0.0,0.0,0.0,0.0,0.0,0.0,0.0,0.0,0.0,0.0,0.0,0.0,0.0,0.0,0.0,0.0,0.0,-1.3292,-1.2716,-1.1475,-1.0711,0.0,0.0,-1.0725,-1.0878,-1.2442,0.0,0.0,0.0,0.0,0.0,0.0,0.0,0.0,0.0,0.0,0.0,0.0,0.0,0.0,0.0,0.0,0.0,0.0,0.0,0.0,0.0,0.0,0.0,0.0,0.0,0.0,0.0,0.0,0.0,0.0,0.0,0.0,0.0,0.0,0.0,0.0,0.0,0.0,0.0,0.0,0.0,0.0,0.0,0.0,0.0,0.0,0.0,0.0,0.0,0.0,0.0,0.0,0.0,0.0,0.0,-1.7542,-1.8319,-2.1635,-2.3756,-2.4548,-2.7031,-2.8301,-2.8301,-2.7598,-2.6738,0.0,0.0,0.0,0.0,0.0,0.0,0.0,0.0,0.0,0.0,0.0,0.0,0.0,0.0,0.0,0.0,0.0,0.0,0.0,0.0,0.0,0.0,0.0,0.0,0.0,0.0,0.0,0.0,0.0,0.0,0.0,0.0,0.0,0.0,0.0,0.0,0.0,0.0,0.0,0.0,0.0,0.0,-1.3095,-1.1844,0.0,0.0,0.0,-1.0772,-1.0839,0.0,0.0,0.0,0.0,0.0,0.0,0.0,0.0,0.0,0.0,0.0,0.0,0.0,0.0,0.0,0.0,0.0,0.0,0.0,0.0,0.0,0.0,0.0,0.0,0.0,0.0,0.0,0.0,0.0,0.0,0.0,0.0,0.0,0.0,0.0,0.0,0.0,0.0,0.0,0.0,0.0,0.0,0.0,0.0,0.0,0.0,0.0,0.0,0.0,0.0,0.0,0.0,0.0,0.0,0.0,0.0,0.0,-1.8143,-2.1976,-2.4135,-2.4482,-2.7197,-2.8516,-2.8281,-2.7033,0.0,0.0,0.0,0.0,0.0,0.0,0.0,0.0,0.0,0.0,0.0,0.0,0.0,0.0,0.0,0.0,0.0,0.0,0.0,0.0,0.0,0.0,0.0,0.0,0.0,0.0,0.0,-1.2475,0.0,0.0,0.0,0.0,0.0,0.0,0.0,0.0,0.0,0.0,0.0,0.0,0.0,0.0,-1.1903,-1.3128,-1.2052,-1.107,0.0,0.0,-1.107,-1.1111,-1.1301,-1.1635,0.0,0.0,0.0,0.0,0.0,0.0,0.0,0.0,0.0,0.0,0.0,0.0,0.0,0.0,0.0,0.0,0.0,0.0,0.0,0.0,0.0,0.0,0.0,0.0,0.0,0.0,0.0,0.0,0.0,0.0,0.0,0.0,0.0,0.0,0.0,0.0,0.0,0.0,0.0,0.0,0.0,0.0,0.0,0.0,0.0,0.0,0.0,0.0,0.0,0.0,0.0,0.0,0.0,0.0,0.0,-1.8574,-2.2445,-2.4499,-2.4745,-2.7863,-2.9101,-2.832,-2.7004,-2.5569,0.0,0.0,0.0,0.0,0.0,0.0,0.0,0.0,0.0,0.0,0.0,0.0,0.0,0.0,0.0,0.0,0.0,0.0,0.0,0.0,0.0,0.0,0.0,0.0,0.0,0.0,0.0,0.0,0.0,0.0,0.0,0.0,0.0,0.0,0.0,0.0,0.0,0.0,0.0,0.0,0.0,-1.3452,-1.2988,-1.2042,-1.1409,0.0,0.0,-1.1409,-1.1552,-1.1932,-1.1823,-1.0809,0.0,0.0,0.0,0.0,0.0,0.0,0.0,0.0,0.0,0.0,0.0,0.0,0.0,0.0,0.0,0.0,0.0,0.0,0.0,0.0,0.0,0.0,0.0,0.0,0.0,0.0,0.0,0.0,0.0,0.0,0.0,0.0,0.0,0.0,0.0,0.0,0.0,0.0,0.0,0.0,0.0,0.0,0.0,0.0,0.0,0.0,0.0,0.0,0.0,0.0,0.0,0.0,0.0,-1.7876,-1.849,-2.1472,-2.3154,-2.3681,-2.5611,-2.639,-2.6092,-2.5078,-2.4019,0.0,0.0,0.0,0.0,0.0,0.0,0.0,0.0,0.0,0.0,0.0,0.0,0.0,0.0,0.0,0.0,0.0,0.0,0.0,0.0,0.0,0.0,0.0,0.0,0.0,0.0,0.0,0.0,-1.0707,-0.9898,-0.9376,0.0,0.0,0.0,0.0,0.0,0.0,0.0,0.0,0.0,0.0,-1.2399,-1.3415,-1.247,0.0,0.0,-1.1701,-1.1714,-1.187,-1.1884,-1.1653,-1.1009,-1.0772,0.0,0.0,0.0,0.0,0.0,0.0,0.0,0.0,0.0,0.0,0.0,0.0,0.0,0.0,0.0,0.0,0.0,0.0,0.0,0.0,0.0,0.0,0.0,0.0,0.0,0.0,0.0,0.0,0.0,0.0,0.0,0.0,0.0,0.0,0.0,0.0,0.0,0.0,0.0,0.0,0.0,0.0,0.0,0.0,0.0,0.0,0.0,0.0,0.0,0.0,0.0,0.0,-1.7901,-1.8611,-2.1032,-2.2483,-2.2959,-2.4356,-2.5008,-2.4662,-2.3731,-2.2704,0.0,0.0,0.0,0.0,0.0,0.0,0.0,0.0,0.0,0.0,0.0,0.0,0.0,0.0,0.0,0.0,0.0,0.0,0.0,0.0,0.0,0.0,0.0,0.0,0.0,0.0,0.0,0.0,-0.9472,-0.8716,-0.8648,0.0,0.0,0.0,0.0,0.0,0.0,0.0,0.0,0.0,0.0,-1.1495,-1.2943,-1.2292,-1.1586,-1.1687,-1.166,-1.1681,-1.1837,-1.1721,-1.1504,-1.1158,0.0,0.0,0.0,0.0,0.0,0.0,0.0,0.0,0.0,0.0,0.0,0.0,0.0,0.0,0.0,0.0,0.0,0.0,0.0,0.0,0.0,0.0,0.0,0.0,0.0,0.0,0.0,0.0,0.0,0.0,-1.5832,0.0,0.0,0.0,0.0,0.0,0.0,0.0,0.0,0.0,0.0,0.0,0.0,0.0,0.0,0.0,0.0,0.0,0.0,0.0,0.0,0.0,0.0,0.0,-1.8918,-2.155,-2.2929,-2.2974,-2.4939,-2.5501,-2.4594,-2.3045,-2.1699,-2.0723,0.0,0.0,0.0,0.0,0.0,0.0,0.0,0.0,0.0,0.0,0.0,0.0,0.0,0.0,0.0,0.0,0.0,0.0,0.0,0.0,0.0,0.0,0.0,0.0,0.0,0.0,-0.8618,-0.8377,-0.835,0.0,0.0,0.0,0.0,0.0,0.0,0.0,0.0,0.0,0.0,-1.1008,-1.1158,-1.131,-1.1301,-1.1416,-1.1416,-1.1287,-1.1246,-1.1416,-1.1531,-1.147,0.0,0.0,0.0,0.0,0.0,0.0,0.0,0.0,0.0,0.0,0.0,0.0,0.0,0.0,0.0,0.0,0.0,0.0,0.0,0.0,0.0,0.0,0.0,0.0,0.0,0.0,0.0,-1.7346,-1.686,0.0,0.0,0.0,0.0,0.0,0.0,0.0,0.0,0.0,0.0,0.0,-2.0094,-2.0294,0.0,0.0,0.0,0.0,0.0,0.0,0.0,0.0,0.0,0.0,0.0,0.0,-1.8008,-1.8931,-2.0342,-2.1285,-2.1686,-2.2409,-2.2587,-2.2262,-2.1596,-2.0586,-1.9278,0.0,0.0,0.0,0.0,0.0,0.0,0.0,0.0,0.0,0.0,0.0,0.0,0.0,0.0,0.0,0.0,0.0,0.0,0.0,0.0,0.0,0.0,0.0,0.0,0.0,-0.8526,0.0,0.0,0.0,0.0,0.0,0.0,0.0,0.0,0.0,0.0,0.0,-1.0256,-1.0595,-1.0941,-1.1165,-1.1165,-1.1382,-1.1572,0.0,0.0,0.0,0.0,0.0,0.0,0.0,0.0,0.0,0.0,0.0,0.0,0.0,0.0,-1.206,-1.1375,-1.149,-1.1614,-1.1233,0.0,0.0,0.0,0.0,0.0,0.0,0.0,0.0,0.0,0.0,0.0,0.0,0.0,0.0,-1.8517,0.0,-1.7502,0.0,0.0,0.0,0.0,0.0,0.0,0.0,0.0,-2.2306,-2.1923,-2.1283,-2.1483,-2.1416,0.0,-2.0454,-1.9232,0.0,0.0,0.0,0.0,0.0,0.0,0.0,0.0,-1.8507,-1.9078,-2.004,-2.0722,-2.1082,-2.1109,-2.1109,-2.1096,-2.0107,-1.9018,-1.8007,-1.5717,-1.4256,0.0,0.0,0.0,0.0,0.0,0.0,0.0,0.0,0.0,0.0,0.0,0.0,0.0,0.0,0.0,0.0,0.0,0.0,0.0,0.0,0.0,0.0,0.0,-0.8737,0.0,0.0,0.0,0.0,0.0,0.0,0.0,0.0,0.0,-1.0127,-1.0351,-1.0643,-1.0989,-1.1151,-1.1246,-1.124,0.0,0.0,0.0,0.0,0.0,0.0,0.0,-1.166,-1.1755,-1.1742,-1.1789,-1.2026,-1.2393,-1.263,-1.2522,0.0,0.0,-1.2067,-1.2127,-1.2324,-1.2074,-1.2162,-1.2237,-1.2284,-1.2338,-1.2345,0.0,0.0,0.0,0.0,0.0,0.0,0.0,0.0,-1.9991,-1.9584,0.0,-1.8263,0.0,0.0,0.0,0.0,0.0,0.0,0.0,0.0,-2.2002,-2.258,-2.2163,-2.2149,-2.2004,-2.1872,-2.1423,-2.0043,-1.7567,-1.7489,0.0,0.0,0.0,0.0,0.0,0.0,-1.9347,-1.9283,-2.0494,-2.1096,-2.0982,-2.0982,-2.0969,-2.0829,-1.8655,-1.7267,-1.6868,-1.4561,-1.3197,-1.297,-1.246,0.0,0.0,0.0,0.0,0.0,0.0,0.0,0.0,0.0,0.0,0.0,0.0,0.0,0.0,0.0,0.0,0.0,0.0,0.0,0.0,-0.9069,0.0,0.0,0.0,0.0,0.0,0.0,0.0,0.0,0.0,0.0,-1.0738,-1.0867,-1.1111,-1.1531,0.0,0.0,0.0,0.0,-1.1355,-1.1233,-1.1328,-1.1436,-1.1457,-1.1796,-1.2067,-1.2081,0.0,0.0,-1.2549,-1.2773,-1.2881,-1.2589,-1.2901,-1.3132,-1.2983,-1.282,-1.2786,-1.2915,-1.2942,-1.3017,-1.3125,-1.303,-1.2963,-2.0378,0.0,0.0,0.0,0.0,-1.9979,-2.0802,-2.1299,-2.1413,-2.0865,-1.972,-1.9639,0.0,0.0,0.0,0.0,0.0,0.0,-1.8532,-1.7787,-1.8536,-1.8936,-1.9082,-1.8765,-1.8794,-1.8705,-1.8295,-1.7413,-1.635,-1.6,-1.6299,-1.7265,0.0,0.0,0.0,0.0,-1.8932,-1.8101,-1.9911,-2.0255,-1.9279,-1.9291,-1.864,-1.7474,-1.6466,-1.5918,-1.5554,-1.3648,-1.2434,-1.1968,-1.0723,0.0,0.0,0.0,0.0,0.0,0.0,0.0,0.0,0.0,0.0,0.0,0.0,0.0,0.0,0.0,0.0,0.0,0.0,0.0,-0.8757,-0.9103,-0.9211,0.0,0.0,0.0,0.0,0.0,0.0,0.0,0.0,0.0,-1.1443,-1.1267,-1.1151,0.0,0.0,-1.1192,-1.109,-1.1348,-1.1613,-1.1782,0.0,0.0,0.0,-1.2277,-1.2298,-1.2508,-1.282,-1.303,-1.2983,-1.3139,-1.3247,-1.3152,-1.3247,-1.3322,-1.3281,-1.3241,-1.3227,-1.3432,-1.3446,-1.3288,-1.3322,-1.3383,-1.3397,-2.0641,-2.004,-1.9404,-1.9205,-1.9305,-2.0506,-2.1324,-2.1669,-2.1936,-2.1479,-2.0451,-1.9704,-1.8842,-1.8121,-1.7462,0.0,0.0,0.0,-1.8518,-1.6498,-1.5404,-1.576,-1.7286,-1.7184,-1.7123,-1.7241,-1.6756,-1.6042,-1.4997,-1.4454,-1.445,-1.4917,0.0,0.0,-1.2514,-1.4686,-1.5981,-1.6531,-1.8019,-1.8359,-1.7462,-1.7474,-1.6947,-1.5913,-1.5061,-1.4506,-1.4257,-1.2457,-1.1325,-1.0948,-0.9909,-0.9157,0.0,0.0,0.0,0.0,0.0,0.0,0.0,0.0,0.0,0.0,0.0,-0.8662,0.0,0.0,0.0,0.0,-0.8811,-0.9015,-0.9218,-0.9537,0.0,0.0,0.0,0.0,0.0,0.0,0.0,-1.1063,-1.1226,-1.143,-1.1775,-1.1701,-1.1606,-1.1613,-1.1558,-1.1511,-1.1484,0.0,-1.1898,-1.2196,-1.2311,-1.2454,-1.2691,-1.2678,-1.2725,-1.2956,-1.3139,-1.3261,-1.3268,-1.3342,-1.3397,-1.3397,-1.3397,-1.3397,-1.3397,-1.3397,-1.3424,-1.3652,-1.3539,-1.3573,-1.358,-1.3607,-1.36,-2.1363,-2.1056,-2.0521,-2.0318,-2.0283,-2.0846,-2.1146,-2.1122,-2.1714,-2.1603,-2.0982,-1.9059,-1.7917,-1.7291,-1.5585,0.0,0.0,-1.9916,-1.8875,-1.6226,-1.2724,-1.3003,-1.6291,-1.631,-1.63,-1.6271,-1.6082,-1.5186,-1.3561,-1.3101,-1.2098,-1.0834,-1.2331,-1.2192,-1.0419,-1.032,-1.1884,-1.4778,-1.5563,-1.5913,-1.5654,-1.5524,-1.5524,-1.5394,-1.3775,-1.2909,-1.278,-1.1239,-1.0209,-1.0053,-0.9781,-0.949,-0.9178,0.0,0.0,0.0,0.0,0.0,0.0,0.0,0.0,0.0,0.0,0.0,0.0,0.0,0.0,0.0,-0.9496,0.0,-1.008,-1.0243,0.0,0.0,0.0,-1.0575,-1.0595,-1.0975,-1.1287,-1.143,0.0,0.0,-1.1884,0.0,-1.2338,-1.2345,-1.2203,-1.2142,-1.2271,-1.2182,-1.2216,-1.2501,-1.2549,-1.2617,-1.2807,-1.3003,-1.3193,-1.3336,-1.3397,-1.339,-1.339,-1.3397,-1.3397,-1.3397,-1.3397,-1.3397,-1.3397,-1.3397,-1.3444,-1.3573,-1.3695,-1.3783,-1.3763,-1.3675,-1.3593,-2.1176,-2.1096,-2.0962,-2.0935,-2.0863,-2.1015,-2.1036,-2.1133,-2.1221,-2.1376,-2.1314,-1.9524,-1.7916,-1.6264,-1.5829,-1.5977,-1.684,-1.9658,-1.7741,-1.2288,-1.1312,-1.1424,-1.2521,-1.2521,-1.246,-1.2338,-1.23,-1.1948,-1.143,-1.1351,-1.1038,-1.0747,-1.1178,-1.1082,-1.0609,-1.0566,-1.1606,-1.3479,-1.5129,-1.5265,-1.397,-1.2676,-1.1894,-1.1894,-1.1344,-1.1128,-1.1128,-1.0607,-1.0209,-1.0053,-0.9869,-0.9639,-0.934,-0.8899,0.0,0.0,0.0,0.0,0.0,0.0,0.0,0.0,0.0,-0.9483,-0.8764,0.0,-0.9625,0.0,-1.0039,-1.0358,-1.0541,-1.0697,0.0,0.0,-1.1063,-1.1267,-1.1491,-1.1708,-1.1864,-1.1898,-1.2162,-1.2338,-1.2345,-1.261,-1.28,-1.2793,-1.2569,-1.2372,-1.2311,-1.2461,-1.2637,-1.2813,-1.2929,-1.3064,-1.32,-1.3295,-1.3356,-1.3397,-1.3397,-1.3397,-1.3397,-1.3397,-1.3397,-1.3397,-1.3397,-1.3397,-1.3397,-1.3397,-1.341,-1.3451,-1.3485,-1.3505,-1.3505,-1.3478,-1.3458,-2.0989,-2.1109,-2.1109,-2.1109,-2.1109,-2.1109,-2.1062,-2.1067,-2.1067,-2.1208,-2.1221,-1.8724,-1.6165,-1.3587,-1.3578,-1.3561,-1.3665,-1.5619,-1.444,-1.0731,-1.0705,-1.0786,-1.0968,-1.0968,-1.0928,-1.0846,-1.0846,-1.0806,-1.0724,-1.0717,-1.0717,-1.0717,-1.0717,-1.0733,-1.0756,-1.0732,-1.1192,-1.2011,-1.3012,-1.3062,-1.2157,-1.124,-1.069,-1.0622,-1.0534,-1.046,-1.0399,-1.0324,-1.0209,-1.0059,-0.9971,-0.9815,-0.9585,-0.9286,-0.9076,0.0,0.0,0.0,0.0,0.0,0.0,0.0,0.0,0.0,0.0,0.0,-1.0148,0.0,-1.0629,0.0,-1.1009,-1.1212,-1.1375,-1.145,-1.166,-1.1884,-1.2101,-1.2264,-1.2386,-1.2454,-1.261,-1.2705,-1.2712,-1.2922,-1.3078,-1.3078,-1.3003,-1.2861,-1.2651,-1.2739,-1.2888,-1.303,-1.3119,-1.3227,-1.3376,-1.3397,-1.3397,-1.3397,-1.3397,-1.3397,-1.3397,-1.3397,-1.3397,-1.3397,-1.3397,-1.3397,-1.3397,-1.3397,-1.3397,-1.3397,-1.3397,-1.3397,-1.3397,-1.3397,-1.3397,-2.0762,-2.1002,-2.1002,-2.1029,-2.1056,-2.1056,-2.1069,-2.1109,-2.1109,-2.0843,-2.0195,-1.7216,-1.397,-1.0717,-1.0982,-1.0941,-1.074,-1.0663,-1.0656,-1.074,-1.067,-1.0711,-1.0717,-1.0717,-1.0717,-1.0717,-1.0717,-1.0717,-1.0717,-1.0717,-1.0717,-1.0717,-1.0717,-1.0717,-1.0717,-1.0717,-1.0717,-1.0717,-1.0717,-1.0717,-1.0717,-1.0717,-1.0643,-1.05,-1.0473,-1.0399,-1.0263,-1.0249,-1.0188,-1.0059,-1.0066,-1.0019,-0.9883,-0.9747,-0.9553,0.0,-0.953,0.0,0.0,0.0,0.0,0.0,0.0,0.0,0.0,-1.0534,-1.0717,-1.0846,-1.126,-1.1525,-1.1565,-1.1782,-1.1791,-1.1965,-1.2196,-1.2406,-1.2528,-1.2691,-1.284,-1.2963,-1.3003,-1.3024,-1.3003,-1.3152,-1.3097,-1.2257,-1.2008,-1.1965,-1.2236,-1.2514,-1.3078,-1.3193,-1.32,-1.3268,-1.337,-1.3397,-1.3397,-1.3397,-1.3397,-1.3397,-1.3397,-1.3397,-1.3403,-1.3431,-1.3417,-1.341,-1.3424,-1.3417,-1.3397,-1.3397,-1.3397,-1.3397,-1.3397,-1.3397,-1.3397,-2.0347,-2.0401,-2.0944,-2.1094,-2.1037,-2.1051,-2.1034,-2.1109,-2.1109,-1.9546,-1.6947,-1.6172,-1.397,-1.085,-1.215,-1.1972,-1.0726,-1.0678,-1.0685,-1.0733,-1.0747,-1.0656,-1.0717,-1.0717,-1.0717,-1.0717,-1.0717,-1.0717,-1.0717,-1.0717,-1.0717,-1.0717,-1.0717,-1.0717,-1.0717,0.0,0.0,0.0,-1.0717,-1.0717,-1.0717,-1.0717,-1.0649,-1.05,-1.0385,0.0,-1.01,-1.0093,-1.008,-1.0059,-1.0168,0.0,0.0,0.0,0.0,0.0,0.0,0.0,0.0,0.0,0.0,0.0,-0.8423,-1.0315,-1.0545,-1.1212,-1.1592,-1.1626,-1.1797,-1.1947,-1.2333,-1.2159,-1.2192,-1.2311,-1.2377,-1.2417,-1.2443,-1.2675,-1.2976,-1.3212,-1.3247,-1.3184,-1.2906,-1.3184,-1.1908,-0.9026,-0.8036,-0.8003,-0.8229,-1.1095,-1.3012,-1.3363,-1.3342,-1.3363,-1.3397,-1.3397,-1.3397,-1.3397,-1.3397,-1.3403,-1.3403,-1.3403,-1.3451,-1.3546,-1.3485,-1.3444,-1.3385,-1.3318,-1.341,-1.3403,-1.3403,-1.3397,-1.3397,-1.3403,-1.3397,-2.0107,0.0,-2.0375,-2.0591,0.0,-2.1026,-2.0099,-1.8494,-1.8486,-1.7022,-1.4614,-1.4623,-1.3193,-1.0717,-1.1637,-1.2437,-1.326,-1.3341,-1.321,-1.3128,-1.1476,-1.0683,-1.0717,-1.0717,-1.0717,-1.0717,-1.0717,-1.0717,-1.0717,-1.0717,-1.0758,-1.0692,-1.0699,-1.0699,-1.0692,-1.0758,-1.0717,-1.0717,-1.0717,-1.0717,-1.0717,-1.0717,-1.0649,-1.05,0.0,0.0,0.0,0.0,0.0,0.0,0.0,0.0,0.0,0.0,0.0,-1.0193,-0.8403,-0.7374,-0.7528,-0.9136,-0.8734,-0.5499,-0.6953,-0.8887,-1.098,-1.1649,-1.1967,-1.2106,-1.2278,-1.1615,-0.9626,-0.9392,-0.9218,-0.9482,-0.9452,-0.9457,-0.9401,-0.9514,-0.9748,-1.0092,-1.018,-1.006,-1.0004,-1.2099,-1.2495,-1.0273,-0.8072,-0.7554,-0.9697,-1.173,-1.3271,-1.3403,-1.3397,-1.3397,-1.3397,-1.3397,-1.3403,-1.3403,-1.3417,-1.3424,-1.3424,-1.3424,-1.3478,-1.3607,-1.3519,-1.3464,-1.3499,-1.3614,-1.3532,-1.36,-1.362,-1.3587,-1.3532,-1.3464,-1.3424,-1.9867,-2.008,-1.9813,-1.9853,-2.0053,-2.0644,-1.8577,-1.5003,0.0,0.0,0.0,-1.3325,-1.2281,-1.0717,-1.0982,-1.2616,-1.4988,-1.5668,-1.5536,-1.4846,-1.2071,-1.0704,-1.0717,-1.0717,-1.0717,-1.0717,-1.0717,-1.0717,-1.0724,-1.0751,-1.0685,-1.0664,-1.0697,-1.0846,-1.0839,-1.0725,-1.0799,-1.0799,-1.0772,-1.0758,-1.0758,-1.0785,-1.0731,-1.0575,-1.0575,-1.0507,-1.0365,-1.0385,-1.0337,-1.0222,-1.0493,-1.0656,-1.0538,-1.069,-1.0835,-1.0779,-0.6905,-0.4504,-0.445,-0.7186,-0.7591,-0.4957,-0.5373,-0.7137,-1.0452,-1.0849,-1.1172,-1.1403,-1.2262,-1.1445,-0.7827,-0.5972,-0.5147,-0.5194,-0.5155,-0.5166,-0.5243,-0.5113,-0.5305,-0.551,-0.5521,-0.5533,-0.57,-0.8416,-1.0986,-1.0645,-0.9123,-0.8614,-1.1484,-1.2631,-1.3458,-1.3458,-1.3464,-1.3451,-1.3444,-1.3451,-1.3431,-1.3417,-1.3458,-1.3151,-1.247,-1.2154,-1.2564,-1.3579,-1.3607,-1.3614,-1.3606,-1.3715,-1.3668,-1.3919,-1.3763,-1.3729,-1.3627,-1.3546,-1.3498,-1.9452,-1.9492,-1.9479,-1.9495,-1.9496,-1.9633,-1.6538,-1.1735,-1.454,-1.4865,-1.3325,-1.3325,-1.2281,-1.085,-1.2281,-1.2382,-1.1694,-1.4493,-1.4353,0.0,-1.0885,-1.0656,-1.0717,-1.0717,-1.0717,-1.0717,-1.0717,-1.0717,-1.0731,-1.0853,-1.0792,-1.069,-1.0933,-1.1131,-1.1131,-1.1111,-1.1097,-1.1097,-1.0982,-1.0914,-1.0921,-1.1036,-1.1029,-1.0894,-1.088,-1.0812,-1.067,-1.0778,-1.0846,-1.0833,-1.1104,-1.1134,-1.0888,-1.1025,-1.1078,-1.0387,-0.4481,-0.0752,-0.0,-0.0,-0.126,-0.1127,-0.3888,-0.6156,-0.6919,-0.7084,-0.7132,-0.7226,-1.0245,-1.2662,-1.1914,-0.5468,-0.0,-0.0,-0.0,-0.0,-0.0,-0.0,-0.0,-0.0,-0.1004,-0.0,-0.0,-0.0,-0.0,-0.0,-0.7953,-1.1356,-0.9608,-1.1081,-1.3158,-1.3573,-1.3593,-1.36,-1.3593,-1.3593,-1.3553,-1.3458,-1.3385,-1.2246,-0.9338,-0.8029,-0.9135,-1.2954,-1.3535,-1.3831,-1.3851,-1.3722,-1.3634,-1.3566,-1.3546,-1.3532,-1.3707,-1.3762,-1.3648,-1.9372,-1.9372,-1.9372,-1.9439,-1.9207,-1.6011,-1.3248,-1.0857,-1.2374,-1.2676,-1.1894,-1.1894,-1.1505,-1.085,-1.1505,-1.1483,-1.0795,-1.2397,-1.2266,-1.0795,-1.067,-1.0683,-1.0717,-1.0717,-1.0717,-1.0717,-1.0717,-1.0765,-1.0846,-1.0914,-1.0893,-1.1034,-1.126,-1.1427,-1.142,-1.1344,-1.1165,-1.1165,-1.1097,-1.1063,-1.1063,-1.1124,-1.1131,-1.1063,-1.1063,-1.1036,-1.0962,-1.1029,-1.1104,-1.1185,-1.1396,-1.1558,-1.1358,-1.0222,-0.9014,-0.8026,-0.3043,-0.0,-0.0,-0.0,-0.0,-0.0,-0.1653,-0.2652,-0.2811,-0.2794,-0.2961,-0.2995,-0.4674,-0.5861,-0.6059,-0.2333,-0.0,-0.0,-0.0,-0.0,-0.0,-0.0,-0.0,-0.0,-0.0,-0.0,-0.0,-0.0,-0.0,-0.0,-0.7808,-1.2155,-1.0779,-1.2155,-1.3519,-1.3641,-1.3627,-1.3668,-1.3722,-1.3695,-1.3641,-1.3587,-1.3425,-1.2583,-1.0018,-0.7177,-0.5687,-0.9221,-1.2003,-1.3747,-1.3939,-1.3865,-1.3756,-1.3715,-1.3749,-1.377,-1.3913,-1.3974,-1.3858,-1.9372,-1.9372,-1.9372,-1.9362,-1.8813,-1.3215,-1.0665,-1.0754,-1.069,-1.0717,-1.0717,-1.0717,-1.0717,-1.0717,-1.0717,-1.0717,-1.0717,-1.0717,-1.0717,-1.0717,-1.0717,-1.0717,-1.0717,-1.0717,-1.0717,-1.0724,-1.0751,-1.0833,-1.0941,-1.1016,-1.104,-1.1275,-1.1443,-1.1592,-1.1585,-1.1328,-1.1267,-1.1267,-1.1267,-1.1246,-1.1212,-1.1246,-1.1267,-1.1267,-1.1267,-1.128,-1.1307,-1.1314,-1.1382,-1.1538,-1.1687,-1.1823,-1.1784,-1.0105,-0.8545,-0.7091,-0.2623,-0.0,-0.0,-0.0,-0.0,-0.0,-0.0,-0.0,-0.0,-0.0,-0.0,-0.0,-0.0,-0.0,-0.0,-0.0,-0.0,-0.0,-0.0,-0.0,-0.0,-0.0,-0.0,-0.0,-0.0,-0.0,-0.0,-0.0,-0.0,-0.0,-0.6142,-1.0693,-1.3051,-1.378,-1.37,-1.3763,-1.3715,-1.3783,-1.3878,-1.3844,-1.3777,-1.3729,-1.3519,-1.1944,-1.0048,-0.5112,-0.4115,-0.7615,-1.1128,-1.3581,-1.3973,-1.3939,-1.3343,-1.2423,-1.2081,-1.2834,-1.3693,-1.3885,-1.3946,-1.9372,-1.9372,-1.9372,-1.9443,-1.8754,-1.3128,-1.0693,-1.0677,-1.0717,-1.0717,-1.0717,-1.0717,-1.0717,-1.0717,-1.0717,-1.0717,-1.0717,-1.0717,-1.0717,-1.0717,-1.0717,-1.0717,-1.0724,-1.0724,-1.0717,-1.0744,-1.0867,-1.0941,-1.0989,-1.1226,-1.143,-1.1579,-1.1599,-1.1599,-1.1592,-1.1579,-1.1572,-1.1572,-1.1579,-1.1511,-1.1389,-1.1504,-1.1579,-1.1579,-1.1572,-1.164,-1.1742,-1.1769,-1.1837,-1.1993,-1.2135,-1.2237,-1.2132,-1.2106,-1.2057,-1.1485,-0.4381,-0.0,-0.0,-0.0,-0.0,-0.0,-0.0,-0.0,-0.0,-0.0,-0.0,-0.0,-0.0,-0.0,-0.0,-0.0,-0.0,-0.0,-0.0,-0.0,-0.0,-0.0,-0.0,-0.0,-0.0,-0.0,-0.0,-0.0,-0.0,-0.0,-0.0,-0.4986,-1.0972,-1.3487,-1.3454,-1.3594,-1.3794,-1.3847,-1.3881,-1.3914,-1.3787,-1.3646,-1.3165,-1.0345,-0.634,-0.8444,-1.1491,-0.8654,-1.0841,-1.3674,-1.3858,-1.3797,-1.2282,-1.0439,-1.0043,-1.0504,-1.2885,-1.3804,-1.3783,-1.9372,-1.9372,-1.9372,-1.9391,-1.8643,-1.311,-1.0777,-1.0713,-1.0683,-1.0717,-1.0717,-1.0717,-1.0717,-1.0717,-1.0717,-1.0717,-1.0717,-1.0717,-1.0717,-1.0717,-1.0717,-1.0765,-1.0846,-1.0853,-1.0894,-1.0982,-1.1043,-1.1124,-1.1246,-1.1511,-1.1647,-1.1633,-1.1701,-1.1708,-1.1626,-1.1619,-1.1619,-1.1619,-1.1701,-1.1714,-1.1653,-1.1626,-1.166,-1.1735,-1.1748,-1.1816,-1.1952,-1.1965,-1.204,-1.2182,-1.2257,-1.2338,-1.2454,-1.2501,-1.244,-1.1956,-0.466,-0.0,-0.0,-0.0,-0.0,-0.0,-0.0,-0.0,-0.0,-0.0,-0.0,-0.0,-0.0,-0.0,-0.0,-0.0,-0.0,-0.0,-0.0,-0.0,-0.0,-0.0,-0.0,-0.0,-0.0,-0.0,-0.0,-0.0,-0.0,-0.0,-0.0,-0.0,-0.0,-1.0068,-1.2396,-1.0539,-0.983,-1.1232,-1.3326,-1.4132,-1.3919,-1.3019,-0.8932,-0.3919,-0.8766,-1.0391,-1.3089,-1.1101,-1.2836,-1.3921,-1.4016,-1.2306,-1.0772,-0.9743,-1.0889,-1.2295,-1.3861,-1.3994,-1.3939,-1.9372,-1.9372,-1.9399,-1.9351,-1.8788,-1.304,-1.0587,-1.0753,-1.0747,-1.0683,-1.0717,-1.0717,-1.0717,-1.0717,-1.0717,-1.0717,-1.0717,-1.0717,-1.0717,-1.0724,-1.0765,-1.0846,-1.0948,-1.0989,-1.1056,-1.1151,-1.1206,-1.1307,-1.1463,-1.1701,-1.1775,-1.1714,-1.183,-1.1823,-1.1694,-1.1714,-1.1714,-1.1694,-1.1823,-1.1891,-1.1877,-1.1796,-1.1789,-1.1884,-1.1898,-1.1965,-1.2115,-1.2128,-1.2196,-1.2338,-1.2386,-1.2467,-1.2589,-1.2617,-1.2069,-1.0297,-0.4091,-0.0,-0.0,-0.0,-0.0,-0.0,-0.0,-0.0,-0.0,-0.0,-0.0,-0.0,-0.0,-0.0,-0.0,-0.0,-0.0,-0.0,-0.0,-0.0,-0.0,-0.0,-0.0,-0.0,-0.0,-0.0,-0.0,-0.0,-0.0,-0.0,-0.0,-0.0,-0.0,-0.5692,-0.8757,-0.7392,-0.7192,-0.9109,-1.3268,-1.4333,-1.3946,-0.9525,-0.4121,-0.4101,-1.1169,-1.3521,-1.4084,-1.2613,-1.3753,-1.4177,-1.3933,-1.2188,-1.0988,-1.2658,-1.3459,-1.3613,-1.4027,-1.4041,-1.4055,-1.9372,-1.9386,-1.9389,-1.9298,-1.8788,-1.2602,-1.0154,-1.0746,-1.0644,-1.0719,-1.0711,-1.0717,-1.0717,-1.0717,-1.0717,-1.0717,-1.0717,-1.0717,-1.0724,-1.0744,-1.1008,-1.1083,-1.0962,-1.109,-1.1165,-1.1212,-1.1328,-1.1463,-1.1613,-1.1762,-1.1976,-1.2136,-1.2127,-1.1972,-1.171,-1.1952,-1.1965,-1.185,-1.1972,-1.2054,-1.2054,-1.2047,-1.2047,-1.206,-1.2054,-1.2121,-1.2257,-1.2284,-1.2345,-1.2488,-1.2617,-1.2705,-1.2732,-1.2861,-1.116,-0.7132,-0.2627,-0.0,-0.0,-0.0,-0.0,-0.0,-0.0,-0.0,-0.0,-0.0,-0.0,-0.0,-0.0,-0.0,-0.0,-0.0,-0.0,-0.0,-0.0,-0.0,-0.0,-0.0,-0.0,-0.0,-0.0,-0.0,-0.0,-0.0,-0.0,-0.0,-0.0,-0.0,-0.0,-0.0,-0.2838,-0.561,-0.6799,-0.8544,-1.2941,-1.2015,-0.8714,-0.0,-0.0,-0.0,-0.877,-1.3586,-1.3749,-1.3783,-1.4014,-1.4089,-1.3807,-1.3574,-1.3382,-1.379,-1.3552,-1.368,-1.4,-1.3899,-1.3953,-1.8765,-1.7948,-1.9011,-1.8282,-1.5892,-1.1649,-1.0062,-1.05,-1.0561,-1.067,-1.0711,-1.0717,-1.0717,-1.0717,-1.0717,-1.0717,-1.0717,-1.0717,-1.0772,-1.0725,-1.1063,-1.1193,-1.1372,-1.1287,-1.1369,-1.1457,-1.1511,-1.1613,-1.1755,-1.1904,-1.1979,-1.2155,-1.2135,-1.2135,-1.2168,-1.2182,-1.2033,-1.1999,-1.2128,-1.221,-1.2216,-1.2298,-1.2345,-1.2338,-1.2257,-1.2277,-1.242,-1.2427,-1.2454,-1.2501,-1.2644,-1.2739,-1.2951,-1.3205,-1.2363,-0.9891,-0.3821,-0.0,-0.0,-0.0,-0.0,-0.0,-0.0,-0.0,-0.0,-0.0,-0.0,-0.0,-0.0,-0.0,-0.0,-0.0,-0.0,-0.0,-0.0,-0.0,-0.0,-0.0,-0.0,-0.0,-0.0,-0.0,-0.0,-0.0,-0.0,-0.0,-0.0,-0.0,-0.0,-0.0,-0.0,-0.0,-0.2583,-0.3092,-0.4431,-0.4952,-0.0,-0.0,-0.0,-0.0,-0.7574,-1.2539,-1.3627,-1.3939,-1.4082,-1.4129,-1.4068,-1.3912,-1.3892,-1.3865,-1.381,-1.3851,-1.3939,-1.3905,-1.4014,-1.804,-1.7232,-1.7565,-1.6635,-1.4289,-1.1225,-1.0009,-1.0424,-1.0623,-1.0767,-1.0704,-1.0717,-1.0717,-1.0717,-1.0717,-1.0717,-1.0717,-1.0724,-1.0665,-1.0806,-1.1138,-1.1434,-1.1509,-1.1443,-1.1518,-1.1606,-1.1619,-1.1694,-1.1837,-1.1986,-1.2081,-1.2142,-1.2284,-1.2436,-1.2477,-1.2333,-1.2189,-1.2176,-1.2284,-1.2359,-1.2372,-1.2447,-1.2501,-1.2488,-1.2406,-1.24,-1.2501,-1.2501,-1.2528,-1.2583,-1.2718,-1.2861,-1.3171,-1.1898,-1.1694,-1.1712,-0.4693,-0.0,-0.0,-0.0,-0.0,-0.0,-0.0,-0.0,-0.0,-0.0,-0.0,-0.0,-0.0,-0.0,-0.0,-0.0,-0.0,-0.0,-0.0,-0.0,-0.0,-0.0,-0.0,-0.0,-0.0,-0.0,-0.0,-0.0,-0.0,-0.0,-0.0,-0.0,-0.0,-0.0,-0.0,-0.0,-0.0,-0.0,-0.0,-0.0,-0.0,-0.0,-0.0,-0.0,-0.6246,-1.0893,-1.3618,-1.3948,-1.4143,-1.4197,-1.4129,-1.396,-1.3905,-1.3892,-1.3878,-1.3899,-1.3939,-1.3953,-1.4061,-1.6962,-1.6503,-1.5189,-1.451,-1.3769,-1.1096,-1.0143,-1.0651,-1.0707,-1.0753,-1.0704,-1.0717,-1.0717,-1.0717,-1.0717,-1.0724,-1.0738,-1.0744,-1.0692,-1.0697,-1.1248,-1.1538,-1.1564,-1.1538,-1.1599,-1.1619,-1.1626,-1.1708,-1.1857,-1.2013,-1.2149,-1.2139,-1.2413,-1.2567,-1.245,-1.2393,-1.2413,-1.2345,-1.242,-1.2488,-1.2501,-1.2501,-1.2501,-1.2501,-1.2488,-1.2488,-1.2501,-1.2501,-1.2562,-1.2548,-1.2861,-1.3105,-1.284,-0.9711,-0.8901,-1.0959,-0.4883,-0.0,-0.0,-0.0,-0.0,-0.0,-0.0,-0.0,-0.0,-0.0,-0.0,-0.0,-0.0,-0.0,-0.0,-0.0,-0.0,-0.0,-0.0,-0.0,-0.0,-0.0,-0.0,-0.0,-0.0,-0.0,-0.0,-0.0,-0.0,-0.0,-0.0,-0.0,-0.0,-0.0,-0.0,-0.0,-0.0,-0.0,-0.0,-0.0,-0.0,-0.0,-0.0,-0.4168,-0.6993,-1.0776,-1.3475,-1.4177,-1.4211,-1.4251,-1.419,-1.4041,-1.4014,-1.4,-1.398,-1.3933,-1.396,-1.3987,-1.4048,-1.4718,-1.3526,-1.2001,-1.1292,-1.1187,-1.0176,-1.01,-1.041,-1.0642,-1.0678,-1.0697,-1.0717,-1.0717,-1.0717,-1.0724,-1.0778,-1.0873,-1.0745,-1.0677,-1.0816,-1.1253,-1.1543,-1.1531,-1.1599,-1.1619,-1.1633,-1.1721,-1.1843,-1.1993,-1.2142,-1.2298,-1.242,-1.2481,-1.2481,-1.2587,-1.2481,-1.2467,-1.2447,-1.2474,-1.2501,-1.2501,-1.2501,-1.2501,-1.2501,-1.2501,-1.2501,-1.2501,-1.2501,-1.2576,-1.2561,-1.2874,-1.3112,-1.2701,-1.0055,-0.8544,-0.8395,-0.6379,-0.302,-0.0,-0.0,-0.0,-0.0,-0.0,-0.0,-0.0,-0.0,-0.0,-0.0,-0.0,-0.0,-0.0,-0.0,-0.0,-0.0,-0.0,-0.0,-0.0,-0.0,-0.0,-0.0,-0.0,-0.0,-0.0,-0.0,-0.0,-0.0,-0.0,-0.0,-0.0,-0.0,-0.0,-0.0,-0.0,-0.0,-0.0,-0.0,-0.0,-0.5548,-0.6962,-0.6473,-0.8807,-1.0626,-1.3148,-1.4238,-1.4272,-1.4265,-1.4197,-1.4156,-1.4116,-1.4027,-1.3946,-1.3946,-1.3994,-1.4055,-1.4122,-1.3646,-1.2097,-1.0422,-0.9822,-0.9829,-0.9801,-0.9962,-1.0276,-1.0635,-1.0664,-1.069,-1.0717,-1.0717,-1.0717,-1.0717,-1.0806,-1.0941,-1.0866,-1.0967,-1.0955,-1.1335,-1.1619,-1.1599,-1.1619,-1.1653,-1.1708,-1.1789,-1.1938,-1.2142,-1.2244,-1.2359,-1.2481,-1.2501,-1.2501,-1.2501,-1.2501,-1.2501,-1.2501,-1.2501,-1.2501,-1.2501,-1.2501,-1.2501,-1.2501,-1.2501,-1.2501,-1.2508,-1.2549,-1.2494,-1.2655,-1.2842,-1.3234,-1.3264,-1.1576,-1.0226,-0.9402,-0.9068,-0.7889,-0.5038,-0.0,-0.0,-0.0,-0.0,-0.0,-0.0,-0.0,-0.0,-0.0,-0.0,-0.0,-0.0,-0.0,-0.0,-0.0,-0.0,-0.0,-0.0,-0.0,-0.0,-0.0,-0.0,-0.0,-0.0,-0.0,-0.0,-0.0,-0.0,-0.0,-0.0,-0.0,-0.0,-0.0,-0.0,-0.0,-0.0,-0.0,-0.0,-1.0457,-1.2637,-1.1467,-1.1539,-1.2479,-1.4312,-1.4278,-1.4292,-1.4292,-1.4238,-1.4217,-1.4177,-1.4055,-1.3973,-1.4034,-1.4109,-1.4143,-1.419,-1.3636,-1.1976,-1.0422,-0.9822,-0.9822,-0.9849,-1.0025,-1.0256,-1.0572,-1.0739,-1.0683,-1.0717,-1.0717,-1.0717,-1.0717,-1.0812,-1.0962,-1.1084,-1.124,-1.1362,-1.1571,-1.1646,-1.1606,-1.1619,-1.1674,-1.1769,-1.1837,-1.1999,-1.2216,-1.2291,-1.2366,-1.2488,-1.2501,-1.2501,-1.2501,-1.2501,-1.2501,-1.2501,-1.2501,-1.2501,-1.2501,-1.2501,-1.2501,-1.2501,-1.2501,-1.2508,-1.2556,-1.2691,-1.2668,-1.2655,-1.3057,-1.3383,-1.3437,-1.3451,-1.2951,-1.2804,-1.3325,-1.283,-1.1311,-0.5373,-0.0,-0.0,-0.0,-0.0,-0.0,-0.0,-0.0,-0.0,-0.0,-0.0,-0.0,-0.0,-0.0,-0.0,-0.0,-0.0,-0.0,-0.0,-0.0,-0.0,-0.0,-0.0,-0.0,-0.0,-0.0,-0.0,-0.0,-0.0,-0.0,-0.0,-0.0,-0.0,-0.0,-0.0,-0.3548,-0.7231,-1.1172,-1.1854,-1.4263,-1.3683,-1.3015,-1.3774,-1.434,-1.4312,-1.4299,-1.4292,-1.4285,-1.4258,-1.4251,-1.4204,-1.4177,-1.4197,-1.4211,-1.4231,-1.4238,-1.2794,-1.0415,-0.9943,-0.9822,-0.9836,-0.9808,-0.9968,-1.0283,-1.0656,-1.0671,-1.0697,-1.0717,-1.0717,-1.0717,-1.0724,-1.086,-1.1063,-1.1138,-1.1314,-1.1531,-1.1558,-1.1572,-1.1613,-1.1619,-1.1647,-1.1714,-1.1898,-1.204,-1.2135,-1.2338,-1.2454,-1.2501,-1.2501,-1.2501,-1.2501,-1.2501,-1.2501,-1.2501,-1.2501,-1.2501,-1.2501,-1.2501,-1.2501,-1.2501,-1.2501,-1.2562,-1.2684,-1.2922,-1.3064,-1.2956,-1.3288,-1.3403,-1.341,-1.3417,-1.3424,-1.3431,-1.3437,-1.3458,-1.2303,-0.8232,-0.3692,-0.0,-0.0,-0.0,-0.0,-0.0,-0.0,-0.0,-0.0,-0.0,-0.0,-0.0,-0.0,-0.0,-0.0,-0.0,-0.0,-0.0,-0.0,-0.0,-0.0,-0.0,-0.0,-0.0,-0.0,-0.0,-0.0,-0.0,-0.0,-0.0,-0.0,-0.0,-0.0,-0.0,-0.8009,-1.1658,-1.3713,-1.3454,-1.4095,-1.4292,-1.3951,-1.4135,-1.4319,-1.4306,-1.4299,-1.4299,-1.4299,-1.4285,-1.4299,-1.4299,-1.4285,-1.4251,-1.4265,-1.4278,-1.4278,-1.2504,-0.9822,-0.9822,-0.9822,-0.9842,-0.9854,-1.0009,-1.0417,-1.0561,-1.0713,-1.0697,-1.0717,-1.0717,-1.0717,-1.0724,-1.0887,-1.1138,-1.1165,-1.1335,-1.1579,-1.1613,-1.1613,-1.1619,-1.1619,-1.1681,-1.1816,-1.1979,-1.2128,-1.2257,-1.2427,-1.2494,-1.2501,-1.2501,-1.2501,-1.2501,-1.2501,-1.2501,-1.2501,-1.2501,-1.2501,-1.2501,-1.2501,-1.2501,-1.2501,-1.2508,-1.2596,-1.282,-1.3051,-1.3166,-1.32,-1.3315,-1.3397,-1.3397,-1.3397,-1.3397,-1.3397,-1.3417,-1.3451,-1.2984,-1.0775,-0.6556,-0.0,-0.0,-0.0,-0.0,-0.0,-0.0,-0.0,-0.0,-0.0,-0.0,-0.0,-0.0,-0.0,-0.0,-0.0,-0.0,-0.0,-0.0,-0.0,-0.0,-0.0,-0.0,-0.0,-0.0,-0.0,-0.0,-0.0,-0.0,-0.0,-0.0,-0.0,-0.3897,-0.8319,-1.0208,-1.2803,-1.4007,-1.3953,-1.4116,-1.4319,-1.4306,-1.4299,-1.4306,-1.4299,-1.4299,-1.4299,-1.4299,-1.4299,-1.4299,-1.4299,-1.4299,-1.4299,-1.4299,-1.4299,-1.4299,-1.2487,-0.9822,-0.9822,-0.9822,-0.9849,-0.9751,-1.0161,-1.0686,-1.0725,-1.0733,-1.0697,-1.0717,-1.0717,-1.0717,-1.0758,-1.0907,-1.1158,-1.1199,-1.1369,-1.1545,-1.1619,-1.1633,-1.1667,-1.1667,-1.1775,-1.1959,-1.2047,-1.2223,-1.2372,-1.2467,-1.2501,-1.2501,-1.2501,-1.2501,-1.2501,-1.2501,-1.2501,-1.2501,-1.2501,-1.2501,-1.2501,-1.2501,-1.2501,-1.2508,-1.2589,-1.2725,-1.2942,-1.3105,-1.3186,-1.32,-1.3336,-1.3397,-1.341,-1.341,-1.341,-1.3424,-1.3444,-1.3478,-1.3338,-1.2849,-0.9282,-0.0,-0.0,-0.0,-0.0,-0.0,-0.0,-0.0,-0.0,-0.0,-0.0,-0.0,-0.0,-0.0,-0.0,-0.0,-0.0,-0.0,-0.0,-0.0,-0.0,-0.0,-0.0,-0.0,-0.0,-0.0,-0.0,-0.0,-0.0,-0.0,-0.0,-0.0,-0.7792,-1.2803,-1.3343,-1.3559,-1.3838,-1.3905,-1.4136,-1.4299,-1.4258,-1.4258,-1.4285,-1.4299,-1.4299,-1.4299,-1.4299,-1.4299,-1.4299,-1.4299,-1.4299,-1.4299,-1.4299,-1.4299,-1.4299,-1.2255,-0.9822,-0.9822,-0.9822,-0.9741,-0.985,-1.0116,-1.0693,-1.0692,-1.0683,-1.0717,-1.0717,-1.0717,-1.0724,-1.0839,-1.1002,-1.1165,-1.128,-1.1302,-1.1592,-1.1619,-1.1687,-1.1762,-1.1789,-1.183,-1.1952,-1.2142,-1.2271,-1.2352,-1.2454,-1.2501,-1.2501,-1.2501,-1.2501,-1.2501,-1.2515,-1.2501,-1.2501,-1.2508,-1.2515,-1.2501,-1.2508,-1.2508,-1.2522,-1.2712,-1.2929,-1.3078,-1.3152,-1.3227,-1.3336,-1.3397,-1.3424,-1.3424,-1.3111,-1.2945,-1.2951,-1.3311,-1.3338,-1.3365,-1.252,-0.9454,-0.0,-0.0,-0.0,-0.0,-0.0,-0.0,-0.0,-0.0,-0.0,-0.0,-0.0,-0.0,-0.0,-0.0,-0.0,-0.0,-0.0,-0.0,-0.0,-0.0,-0.0,-0.0,-0.0,-0.0,-0.0,-0.0,-0.0,-0.0,-0.0,-0.0,-0.7249,-0.9656,-1.3816,-1.3607,-1.3648,-1.3763,-1.3851,-1.4068,-1.4272,-1.4238,-1.4217,-1.4245,-1.4278,-1.4299,-1.4299,-1.4299,-1.4299,-1.4299,-1.4299,-1.4299,-1.4299,-1.4299,-1.4299,-1.4299,-1.2221,-0.9815,-0.9822,-0.9822,-0.9747,-0.9758,-1.0149,-1.06,-1.0726,-1.0717,-1.0717,-1.0717,-1.0717,-1.0731,-1.088,-1.1023,-1.1192,-1.1396,-1.1395,-1.1626,-1.1681,-1.1762,-1.1857,-1.1979,-1.2054,-1.2074,-1.2203,-1.2311,-1.2393,-1.2454,-1.2501,-1.2501,-1.2501,-1.2501,-1.2522,-1.2569,-1.2569,-1.2556,-1.2651,-1.2657,-1.2528,-1.2576,-1.2556,-1.2549,-1.2725,-1.2895,-1.2949,-1.3051,-1.3125,-1.322,-1.3322,-1.3376,-1.2847,-1.1346,-1.0346,-1.0346,-1.2637,-1.3191,-1.3211,-0.9282,-0.4883,-0.0,-0.0,-0.0,-0.0,-0.0,-0.0,-0.0,-0.0,-0.0,-0.0,-0.0,-0.0,-0.0,-0.0,-0.0,-0.0,-0.0,-0.0,-0.0,-0.0,-0.0,-0.0,-0.0,-0.0,-0.0,-0.0,-0.0,-0.0,-0.0,-0.0,-1.0997,-1.2228,-1.3607,-1.3539,-1.358,-1.3715,-1.381,-1.3933,-1.4129,-1.4224,-1.4211,-1.4204,-1.4251,-1.4299,-1.4299,-1.4299,-1.4299,-1.4299,-1.4299,-1.4299,-1.4299,-1.4299,-1.4299,-1.4299,-1.2203,-0.9788,-0.9815,-0.9822,-0.9747,-0.9758,-1.0149,-1.0714,-1.0733,-1.0717,-1.0717,-1.0717,-1.0717,-1.0758,-1.0914,-1.107,-1.1274,-1.1457,-1.1613,-1.1626,-1.1901,-1.1983,-1.1932,-1.2115,-1.2271,-1.2311,-1.2332,-1.24,-1.2467,-1.2501,-1.2501,-1.2501,-1.2501,-1.2501,-1.2535,-1.2773,-1.2773,-1.2542,-1.2684,-1.2718,-1.2549,-1.261,-1.2603,-1.261,-1.2664,-1.2779,-1.284,-1.2915,-1.3143,-1.3164,-1.3146,-1.337,-1.2225,-0.8427,-0.5775,-0.5778,-0.854,-0.9613,-0.8773,-0.0,-0.0,-0.0,-0.0,-0.0,-0.0,-0.0,-0.0,-0.0,-0.0,-0.0,-0.0,-0.0,-0.0,-0.0,-0.0,-0.0,-0.0,-0.0,-0.0,-0.0,-0.0,-0.0,-0.0,-0.0,-0.0,-0.0,-0.0,-0.2189,-0.421,-0.572,-0.9608,-1.2501,-1.3211,-1.3546,-1.3478,-1.3539,-1.3668,-1.3736,-1.3831,-1.4007,-1.4183,-1.4224,-1.4224,-1.4265,-1.4299,-1.4299,-1.4299,-1.4299,-1.4299,-1.4299,-1.4299,-1.4299,-1.4299,-1.4299,-1.4299,-1.2125,-0.9652,-0.9774,-0.9822,-0.9741,-0.9764,-1.0143,-1.0593,-1.0719,-1.0717,-1.0717,-1.0717,-1.0717,-1.0785,-1.1016,-1.1267,-1.147,-1.1592,-1.1619,-1.164,-1.1914,-1.2031,-1.2026,-1.2189,-1.2345,-1.244,-1.2454,-1.2467,-1.2488,-1.2501,-1.2501,-1.2501,-1.2501,-1.2501,-1.2508,-1.2535,-1.2562,-1.2528,-1.2617,-1.261,-1.2542,-1.2535,-1.2603,-1.263,-1.2684,-1.2752,-1.284,-1.2847,-1.2874,-1.2963,-1.284,-1.2922,-1.1613,-0.5967,-0.0,-0.0,-0.0,-0.0,-0.0,-0.0,-0.0,-0.0,-0.0,-0.0,-0.0,-0.0,-0.0,-0.0,-0.0,-0.0,-0.0,-0.0,-0.0,-0.0,-0.0,-0.0,-0.0,-0.0,-0.0,-0.0,-0.0,-0.0,-0.0,-0.0,-0.0,-0.0,-0.0,-0.7081,-0.9114,-0.8923,-0.924,-1.1605,-1.3305,-1.3451,-1.3417,-1.3519,-1.362,-1.3654,-1.3756,-1.3926,-1.4082,-1.4197,-1.4251,-1.4285,-1.4299,-1.4299,-1.4299,-1.4299,-1.4299,-1.4299,-1.4299,-1.4299,-1.4299,-1.4299,-1.4299,-1.202,-0.9612,-0.9806,-0.9761,-0.9856,-0.9804,-1.0082,-1.07,-1.0774,-1.0649,-1.0704,-1.0717,-1.0717,-1.0799,-1.1029,-1.1328,-1.1552,-1.1619,-1.1619,-1.1647,-1.1769,-1.1918,-1.206,-1.2216,-1.2366,-1.2467,-1.2501,-1.2501,-1.2501,-1.2501,-1.2501,-1.2501,-1.2501,-1.2501,-1.2522,-1.2589,-1.2556,-1.2549,-1.263,-1.2644,-1.2515,-1.2501,-1.2556,-1.2589,-1.2617,-1.2651,-1.2691,-1.2725,-1.1427,-1.0346,-1.1488,-1.2549,-1.0572,-0.0,-0.0,-0.0,-0.0,-0.0,-0.0,-0.0,-0.0,-0.0,-0.0,-0.0,-0.0,-0.0,-0.0,-0.0,-0.0,-0.0,-0.0,-0.0,-0.0,-0.0,-0.0,-0.0,-0.0,-0.0,-0.0,-0.0,-0.0,-0.0,-0.0,-0.0,-0.0,-0.0,-0.0,-1.1154,-1.3043,-1.2142,-1.0565,-1.1581,-1.3444,-1.3431,-1.341,-1.3478,-1.3573,-1.3614,-1.3682,-1.3851,-1.4007,-1.4136,-1.4224,-1.4285,-1.4292,-1.4299,-1.4299,-1.4299,-1.4299,-1.4299,-1.4299,-1.4299,-1.4299,-1.4299,-1.4292,-1.1697,-0.9564,-0.9717,-0.9813,-0.9836,-0.9854,-0.9995,-1.051,-1.0684,-1.0699,-1.067,-1.0704,-1.0717,-1.0799,-1.1023,-1.1314,-1.1565,-1.1592,-1.1619,-1.1647,-1.161,-1.175,-1.2026,-1.2203,-1.2345,-1.242,-1.2494,-1.2501,-1.2501,-1.2501,-1.2501,-1.2501,-1.2501,-1.2501,-1.2522,-1.2583,-1.2576,-1.2623,-1.2712,-1.2718,-1.2562,-1.2501,-1.2501,-1.2501,-1.2508,-1.2522,-1.2556,-1.2603,-1.1179,-0.9468,-0.9051,-0.9796,-0.9371,-0.3915,-0.0,-0.0,-0.0,-0.0,-0.0,-0.0,-0.0,-0.0,-0.0,-0.0,-0.0,-0.0,-0.0,-0.0,-0.0,-0.0,-0.0,-0.0,-0.0,-0.0,-0.0,-0.0,-0.0,-0.0,-0.0,-0.0,-0.0,-0.0,-0.0,-0.0,-0.0,-0.0,-0.6395,-1.0791,-1.2495,-1.3305,-1.2414,-1.2752,-1.3424,-1.3417,-1.341,-1.3424,-1.3519,-1.3587,-1.3648,-1.377,-1.3926,-1.4082,-1.4156,-1.4224,-1.4292,-1.4299,-1.4299,-1.4299,-1.4299,-1.4299,-1.4299,-1.4299,-1.4299,-1.4285,-1.4272,-1.0713,-0.9422,-0.9676,-0.9813,-0.9836,-0.9848,-0.9804,-0.9988,-1.05,-1.063,-1.0548,-1.0663,-1.0724,-1.0806,-1.1029,-1.1392,-1.1564,-1.1565,-1.1619,-1.164,-1.1596,-1.1677,-1.1911,-1.2169,-1.2271,-1.2359,-1.2454,-1.2494,-1.2501,-1.2501,-1.2501,-1.2501,-1.2501,-1.2501,-1.2508,-1.2542,-1.2522,-1.2515,-1.2549,-1.2549,-1.2515,-1.2501,-1.2501,-1.2515,-1.2528,-1.2225,-1.207,-1.2115,-1.1829,-1.1035,-0.4876,-0.2069,-0.1292,-0.0966,-0.0,-0.0,-0.0,-0.0,-0.0,-0.0,-0.0,-0.0,-0.0,-0.0,-0.0,-0.0,-0.0,-0.0,-0.0,-0.0,-0.0,-0.0,-0.0,-0.0,-0.0,-0.0,-0.0,-0.0,-0.0,-0.0,-0.0,-0.0,-0.0,-0.0,-0.0,-0.0,-0.4199,-0.8914,-1.213,-1.2945,-1.3431,-1.3431,-1.3444,-1.3437,-1.2414,-1.2593,-1.2297,-1.2713,-1.3465,-1.3532,-1.3844,-1.3987,-1.4061,-1.4129,-1.4211,-1.4285,-1.4299,-1.4299,-1.4299,-1.4285,-1.4265,-1.4278,-1.4299,-1.4272,-1.4204,-0.9723,-0.9388,-0.9573,-0.9618,-0.9815,-0.9767,-0.9848,-0.983,-1.0276,-1.0548,-1.0507,-1.0656,-1.0765,-1.0867,-1.1077,-1.1386,-1.1543,-1.1552,-1.1619,-1.1619,-1.1543,-1.161,-1.1864,-1.2054,-1.2182,-1.2305,-1.242,-1.2494,-1.2501,-1.2501,-1.2501,-1.2501,-1.2501,-1.2501,-1.2501,-1.2501,-1.2501,-1.2501,-1.2508,-1.2501,-1.2501,-1.2501,-1.2515,-1.2528,-1.2387,-1.1286,-1.0036,-1.1654,-1.2318,-1.1041,-0.4554,-0.0,-0.0,-0.0,-0.0,-0.0,-0.0,-0.0,-0.0,-0.0,-0.0,-0.0,-0.0,-0.0,-0.0,-0.0,-0.0,-0.0,-0.0,-0.0,-0.0,-0.0,-0.0,-0.0,-0.0,-0.0,-0.0,-0.0,-0.0,-0.0,-0.0,-0.0,-0.0,-0.0,-0.0,-0.0,-0.4707,-0.9938,-1.2303,-1.3125,-1.3451,-1.3437,-1.3458,-1.3471,-1.2105,-1.126,-0.9938,-1.0498,-1.3115,-1.3356,-1.3606,-1.3878,-1.3946,-1.4027,-1.4109,-1.419,-1.4258,-1.4299,-1.4292,-1.4265,-1.4231,-1.4204,-1.417,-1.4048,-1.3973,-0.9089,-0.932,-0.9361,-0.9551,-0.9815,-0.9822,-0.9761,-0.9875,-1.0202,-1.0344,-1.0466,-1.0629,-1.0785,-1.0914,-1.1063,-1.1365,-1.1482,-1.1531,-1.1606,-1.1619,-1.1626,-1.1681,-1.1803,-1.1959,-1.2128,-1.2237,-1.242,-1.2488,-1.2501,-1.2501,-1.2501,-1.2501,-1.2501,-1.2501,-1.2501,-1.2501,-1.2501,-1.2501,-1.2501,-1.2501,-1.2501,-1.2501,-1.2515,-1.2218,-1.128,-0.9547,-0.7357,-0.7221,-0.8812,-0.7389,-0.3611,-0.0,-0.0,-0.0,-0.0,-0.0,-0.0,-0.0,-0.0,-0.0,-0.0,-0.0,-0.0,-0.0,-0.0,-0.0,-0.0,-0.0,-0.0,-0.0,-0.0,-0.0,-0.0,-0.0,-0.0,-0.0,-0.0,-0.0,-0.0,-0.0,-0.0,-0.0,-0.0,-0.0,-0.0,-0.0,-0.5048,-1.0283,-1.2136,-1.2785,-1.2445,-1.2099,-1.1254,-1.1784,-1.2142,-1.0618,-0.8955,-0.7945,-1.053,-1.2952,-1.3506,-1.3736,-1.3804,-1.3899,-1.3994,-1.4208,-1.4249,-1.419,-1.4285,-1.4211,-1.4136,-1.4075,-1.4007,-1.3878,-1.3783,-0.9028,-0.9184,-0.9442,-0.9551,-0.9815,-0.9822,-0.9829,-0.9883,-1.0154,-1.0297,-1.0392,-1.0582,-1.0731,-1.0812,-1.1029,-1.1172,-1.1199,-1.1491,-1.1592,-1.1619,-1.1619,-1.1633,-1.1742,-1.1891,-1.2054,-1.2121,-1.2305,-1.244,-1.2488,-1.2461,-1.2481,-1.2501,-1.2501,-1.2501,-1.2501,-1.2501,-1.2501,-1.2501,-1.2501,-1.2501,-1.2501,-1.2501,-1.2508,-1.1727,-0.9226,-0.657,-0.6098,-0.3762,-0.0,-0.0,-0.0,-0.0,-0.0,-0.0,-0.0,-0.0,-0.0,-0.0,-0.0,-0.0,-0.0,-0.0,-0.0,-0.0,-0.0,-0.0,-0.0,-0.0,-0.0,-0.0,-0.0,-0.0,-0.0,-0.0,-0.0,-0.0,-0.0,-0.0,-0.0,-0.0,-0.0,-0.0,-0.0,-0.0,-0.0,-0.0,-0.0,-0.5849,-1.0247,-1.1254,-1.0592,-1.008,-0.8725,-0.9416,-1.2005,-1.0477,-0.6909,-0.5552,-0.6913,-1.0461,-1.3184,-1.3418,-1.3668,-1.3743,-1.3831,-1.4029,-1.4091,-1.4222,-1.4129,-1.3921,-1.3861,-1.3926,-1.3844,-1.3749,-1.3682,-0.9022,-0.9164,-0.932,-0.9621,-0.982,-0.9788,-0.9822,-0.9869,-1.0141,-1.0392,-1.0548,-1.067,-1.0717,-1.0806,-1.1016,-1.1165,-1.1206,-1.1484,-1.1586,-1.1619,-1.1619,-1.1619,-1.1701,-1.1796,-1.1918,-1.1972,-1.2142,-1.2298,-1.2366,-1.2386,-1.244,-1.2467,-1.2501,-1.2501,-1.2501,-1.2501,-1.2501,-1.2501,-1.2501,-1.2501,-1.2501,-1.2508,-1.2522,-1.2251,-1.1622,-0.7053,-0.329,-0.1098,-0.0,-0.0,-0.0,-0.0,-0.0,-0.0,-0.0,-0.0,-0.0,-0.0,-0.0,-0.0,-0.0,-0.0,-0.0,-0.0,-0.0,-0.0,-0.0,-0.0,-0.0,-0.0,-0.0,-0.0,-0.0,-0.0,-0.0,-0.0,-0.0,-0.0,-0.0,-0.0,-0.0,-0.0,-0.0,-0.0,-0.0,-0.0,-0.0,-0.1329,-0.5668,-0.9397,-0.8738,-0.8579,-0.7394,-0.6553,-0.8941,-0.6902,-0.4367,-0.4195,-0.4193,-0.8395,-1.2624,-1.3298,-1.3378,-1.3439,-1.3506,-1.3729,-1.381,-1.3926,-1.3966,-1.376,-1.3666,-1.3715,-1.3654,-1.3607,-1.358,-0.8994,-0.911,-0.93,-0.9586,-0.9744,-0.9761,-0.9822,-0.9876,-1.0148,-1.0446,-1.0717,-1.0717,-1.0717,-1.0806,-1.1023,-1.1158,-1.1246,-1.1457,-1.1579,-1.1619,-1.1619,-1.1619,-1.1667,-1.1748,-1.1857,-1.1864,-1.1986,-1.2149,-1.2305,-1.2291,-1.2379,-1.2467,-1.2501,-1.2501,-1.2501,-1.2501,-1.2501,-1.2501,-1.2501,-1.2501,-1.2501,-1.2501,-1.2522,-1.2096,-1.0837,-0.911,-0.4706,-0.0,-0.0,-0.0,-0.0,-0.0,-0.0,-0.0,-0.0,-0.0,-0.0,-0.0,-0.0,-0.0,-0.0,-0.0,-0.0,-0.0,-0.0,-0.0,-0.0,-0.0,-0.0,-0.0,-0.0,-0.0,-0.0,-0.0,-0.0,-0.0,-0.0,-0.0,-0.0,-0.0,-0.0,-0.0,-0.0,-0.0,-0.0,-0.0,-0.0,-0.0,-0.1826,-0.4843,-0.6563,-0.6566,-0.6566,-0.5894,-0.539,-0.6902,-0.8076,-0.6041,-0.6543,-0.891,-1.1784,-1.2445,-1.3118,-1.3358,-1.358,-1.362,-1.3654,-1.3695,-1.3743,-1.3599,-1.3668,-1.3559,-1.3532,-1.3505,-1.3498,-0.894,-0.8981,-0.9259,-0.9586,-0.9731,-0.9761,-0.9822,-0.9863,-1.0148,-1.0446,-1.0697,-1.0717,-1.0717,-1.0792,-1.1029,-1.1151,-1.1372,-1.147,-1.1619,-1.1619,-1.1619,-1.1619,-1.166,-1.1735,-1.1789,-1.1857,-1.1938,-1.206,-1.225,-1.225,-1.2338,-1.2447,-1.2488,-1.2501,-1.2501,-1.2501,-1.2501,-1.2501,-1.2501,-1.2501,-1.2501,-1.2501,-1.2528,-1.1772,-0.9246,-0.7681,-0.6125,-0.2512,-0.0,-0.0,-0.0,-0.0,-0.0,-0.0,-0.0,-0.0,-0.0,-0.0,-0.0,-0.0,-0.0,-0.0,-0.0,-0.0,-0.0,-0.0,-0.0,-0.0,-0.0,-0.0,-0.0,-0.0,-0.0,-0.0,-0.0,-0.0,-0.0,-0.0,-0.0,-0.0,-0.0,-0.0,-0.0,-0.0,-0.0,-0.0,-0.0,-0.0,-0.0,-0.0,-0.0,-0.4712,-0.5216,-0.7753,-0.8257,-1.0981,-1.1646,-0.9249,-0.8395,-0.9923,-1.0597,-1.0909,-1.176,-1.2964,-1.3485,-1.3512,-1.3464,-1.3431,-1.3519,-1.36,-1.3519,-1.3437,-1.341,-1.3437,-1.3492,-0.894,-0.8967,-0.9259,-0.9408,-0.949,-0.972,-0.9822,-0.9876,-1.0148,-1.0446,-1.0677,-1.0717,-1.0717,-1.0812,-1.1002,-1.1165,-1.1365,-1.147,-1.1619,-1.1619,-1.1619,-1.1619,-1.164,-1.1667,-1.1701,-1.1701,-1.1769,-1.1864,-1.1979,-1.2101,-1.2381,-1.2491,-1.2467,-1.2501,-1.2501,-1.2501,-1.2501,-1.2501,-1.2501,-1.2501,-1.2501,-1.2501,-1.2528,-1.2265,-0.8462,-0.6108,-0.0,-0.0,-0.0,-0.0,-0.0,-0.0,-0.0,-0.0,-0.0,-0.0,-0.0,-0.0,-0.0,-0.0,-0.0,-0.0,-0.0,-0.0,-0.0,-0.0,-0.0,-0.0,-0.0,-0.0,-0.0,-0.0,-0.0,-0.0,-0.0,-0.0,-0.0,-0.0,-0.0,-0.0,-0.0,-0.0,-0.0,-0.0,-0.0,-0.0,-0.0,-0.0,-0.0,-0.0,-0.0,-0.0,-0.4034,-0.8081,-1.1137,-1.2669,-1.3345,-1.1611,-0.9574,-0.9077,-0.9574,-1.0065,-1.1426,-1.3318,-1.3444,-1.3397,-1.3403,-1.341,-1.3417,-1.3431,-1.341,-1.3403,-1.3403,-1.3492,-1.3614,-0.894,-0.8974,-0.9259,-0.9381,-0.9429,-0.9693,-0.9869,-0.9998,-1.0202,-1.0446,-1.067,-1.0717,-1.0717,-1.0806,-1.1009,-1.1165,-1.1337,-1.147,-1.1619,-1.1619,-1.1619,-1.1619,-1.1619,-1.1619,-1.164,-1.1619,-1.1633,-1.1708,-1.1864,-1.1999,-1.2182,-1.2366,-1.2454,-1.2494,-1.2501,-1.2501,-1.2501,-1.2501,-1.2501,-1.2501,-1.2501,-1.2508,-1.2535,-1.1305,-0.8466,-0.4696,-0.0,-0.0,-0.0,-0.0,-0.0,-0.0,-0.0,-0.0,-0.0,-0.0,-0.0,-0.0,-0.0,-0.0,-0.0,-0.0,-0.0,-0.0,-0.0,-0.0,-0.0,-0.0,-0.0,-0.0,-0.0,-0.0,-0.0,-0.0,-0.0,-0.0,-0.0,-0.0,-0.0,-0.0,-0.0,-0.0,-0.0,-0.0,-0.0,-0.0,-0.0,-0.0,-0.0,-0.0,-0.0,-0.0,-0.4365,-0.9095,-1.1807,-1.2811,-1.3478,-1.3471,-1.1939,-1.0247,-1.0419,-1.1426,-1.2631,-1.3325,-1.3298,-1.3444,-1.3424,-1.3424,-1.3424,-1.3417,-1.3403,-1.3403,-1.3403,-1.3498,-1.3452,-0.894,-0.8981,-0.9252,-0.9374,-0.9429,-0.9693,-0.9985,-1.0263,-1.0276,-1.0446,-1.0711,-1.0717,-1.0717,-1.0778,-1.1023,-1.1145,-1.1206,-1.147,-1.1572,-1.1613,-1.1619,-1.1619,-1.1619,-1.1619,-1.1619,-1.1619,-1.1626,-1.1681,-1.1823,-1.1986,-1.221,-1.2406,-1.2474,-1.2494,-1.2501,-1.2501,-1.2501,-1.2501,-1.2501,-1.2501,-1.2501,-1.2508,-1.2549,-1.1467,-0.9105,-0.4857,-0.0,-0.0,-0.0,-0.0,-0.0,-0.0,-0.0,-0.0,-0.0,-0.0,-0.0,-0.0,-0.0,-0.0,-0.0,-0.0,-0.0,-0.0,-0.0,-0.0,-0.0,-0.0,-0.0,-0.0,-0.0,-0.0,-0.0,-0.0,-0.0,-0.0,-0.0,-0.0,-0.0,-0.0,-0.0,-0.0,-0.0,-0.0,-0.0,-0.0,-0.0,-0.0,-0.0,-0.0,-0.0,-0.0,-0.4688,-1.0451,-1.2656,-1.3138,-1.3451,-1.3444,-1.3444,-1.226,-1.2439,-1.2111,-1.1951,-1.2303,-1.2991,-1.3318,-1.3458,-1.3437,-1.3424,-1.3417,-1.3258,-1.3417,-1.3424,-1.3284,-1.2869,-0.894,-0.896,-0.9144,-0.9279,-0.9415,-0.9693,-0.9998,-1.0256,-1.041,-1.0446,-1.0717,-1.0717,-1.0717,-1.0744,-1.0921,-1.1056,-1.1206,-1.1502,-1.1511,-1.1572,-1.1613,-1.1613,-1.1619,-1.1619,-1.1619,-1.1619,-1.1626,-1.1647,-1.1735,-1.1918,-1.2285,-1.2477,-1.2433,-1.2474,-1.2488,-1.2501,-1.2501,-1.2501,-1.2501,-1.2501,-1.2508,-1.2522,-1.24,-1.1317,-1.1017,-0.6595,-0.0,-0.0,-0.0,-0.0,-0.0,-0.0,-0.0,-0.0,-0.0,-0.0,-0.0,-0.0,-0.0,-0.0,-0.0,-0.0,-0.0,-0.0,-0.0,-0.0,-0.0,-0.0,-0.0,-0.0,-0.0,-0.0,-0.0,-0.0,-0.0,-0.0,-0.0,-0.0,-0.0,-0.0,-0.0,-0.0,-0.0,-0.0,-0.0,-0.0,-0.0,-0.0,-0.0,-0.0,-0.0,-0.0,-0.2173,-0.7227,-1.1455,-1.2798,-1.3105,-1.3417,-1.3431,-1.3451,-1.3131,-1.2464,-1.1444,-1.0602,-0.9928,-1.1455,-1.3325,-1.2618,-1.0554,-1.2785,-1.3138,-1.3291,-1.3451,-1.3311,-1.3204,-0.894,-0.896,-0.9089,-0.9273,-0.9614,-0.972,-0.9971,-1.0175,-1.0383,-1.0426,-1.0622,-1.069,-1.0717,-1.0744,-1.088,-1.1002,-1.1084,-1.1447,-1.1598,-1.1497,-1.1586,-1.1613,-1.1619,-1.1619,-1.1619,-1.1619,-1.1619,-1.1626,-1.1681,-1.1837,-1.2196,-1.2505,-1.2498,-1.24,-1.2427,-1.2461,-1.2501,-1.2501,-1.2501,-1.2501,-1.2515,-1.2373,-1.1772,-1.0843,-1.1348,-0.7232,-0.0,-0.0,-0.0,-0.0,-0.0,-0.0,-0.0,-0.0,-0.0,-0.0,-0.0,-0.0,-0.0,-0.0,-0.0,-0.0,-0.0,-0.0,-0.0,-0.0,-0.0,-0.0,-0.0,-0.0,-0.0,-0.0,-0.0,-0.0,-0.0,-0.0,-0.0,-0.0,-0.0,-0.0,-0.0,-0.0,-0.0,-0.0,-0.0,-0.0,-0.0,-0.0,-0.0,-0.0,-0.0,-0.0,-0.0,-0.2684,-0.6878,-1.1098,-1.2272,-1.2765,-1.3464,-1.3478,-1.3331,-1.2142,-1.0278,-0.8072,-0.6047,-0.0,-0.0,-0.0,-0.6864,-0.924,-1.1455,-1.179,-1.2297,-1.3345,-1.3257,-0.894,-0.8954,-0.9103,-0.9327,-0.971,-0.9747,-0.9781,-0.979,-1.0209,-1.0493,-1.0507,-1.0656,-1.0717,-1.0744,-1.0846,-1.0921,-1.1023,-1.1199,-1.1454,-1.1382,-1.1511,-1.1565,-1.1572,-1.1613,-1.1619,-1.1619,-1.1619,-1.1619,-1.166,-1.1789,-1.2093,-1.2359,-1.2347,-1.2271,-1.2436,-1.24,-1.244,-1.2447,-1.2488,-1.2515,-1.2522,-1.2063,-1.082,-0.8466,-0.8485,-0.0,-0.0,-0.0,-0.0,-0.0,-0.0,-0.0,-0.0,-0.0,-0.0,-0.0,-0.0,-0.0,-0.0,-0.0,-0.0,-0.0,-0.0,-0.0,-0.0,-0.0,-0.0,-0.0,-0.0,-0.0,-0.0,-0.0,-0.0,-0.0,-0.0,-0.0,-0.0,-0.0,-0.0,-0.0,-0.0,-0.0,-0.0,-0.0,-0.0,-0.0,-0.0,-0.0,-0.0,-0.0,-0.0,-0.0,-0.0,-0.0,-0.2348,-0.6543,-1.0257,-1.1617,-1.1957,-1.3331,-1.3177,-1.1311,-0.8941,-0.0,-0.0,-0.0,-0.0,-0.0,-0.0,-0.5368,-0.7394,-0.9431,-1.0797,-1.2353,-1.0672,-0.894,-0.896,-0.8983,-0.9136,-0.9469,-0.9713,-0.9836,-0.9903,-1.0168,-1.0358,-1.05,-1.0643,-1.0717,-1.0738,-1.0765,-1.0833,-1.0962,-1.0906,-1.1118,-1.1233,-1.1375,-1.1443,-1.1477,-1.1545,-1.1592,-1.1619,-1.1619,-1.1619,-1.1647,-1.1748,-1.1837,-1.1898,-1.2033,-1.2115,-1.2128,-1.2271,-1.2366,-1.2379,-1.2481,-1.2535,-1.2549,-1.2576,-1.1648,-0.8959,-0.8024,-0.0,-0.0,-0.0,-0.0,-0.0,-0.0,-0.0,-0.0,-0.0,-0.0,-0.0,-0.0,-0.0,-0.0,-0.0,-0.0,-0.0,-0.0,-0.0,-0.0,-0.0,-0.0,-0.0,-0.0,-0.0,-0.0,-0.0,-0.0,-0.0,-0.0,-0.0,-0.0,-0.0,-0.0,-0.0,-0.0,-0.0,-0.0,-0.0,-0.0,-0.0,-0.0,-0.0,-0.0,-0.0,-0.0,-0.0,-0.0,-0.0,-0.0,-0.2013,-0.6047,-0.7725,-0.7893,-0.9933,-0.0,-0.0,-0.0,-0.0,-0.0,-0.0,-0.0,-0.0,-0.0,-0.0,-0.4201,-0.6566,-0.9286,-1.1177,-0.7772,-0.894,-0.8967,-0.895,-0.9083,-0.9415,-0.9632,-0.9761,-0.9856,-0.9948,-1.0256,-1.0426,-1.0609,-1.0717,-1.0717,-1.0724,-1.0751,-1.086,-1.0786,-1.0859,-1.1097,-1.1199,-1.1127,-1.1208,-1.145,-1.1484,-1.1518,-1.1592,-1.1626,-1.164,-1.1674,-1.1735,-1.1616,-1.1884,-1.1965,-1.1993,-1.2149,-1.2284,-1.2318,-1.2467,-1.2549,-1.2576,-1.2454,-1.2467,-1.0085,-0.0,-0.0,-0.0,-0.0,-0.0,-0.0,-0.0,-0.0,-0.0,-0.0,-0.0,-0.0,-0.0,-0.0,-0.0,-0.0,-0.0,-0.0,-0.0,-0.0,-0.0,-0.0,-0.0,-0.0,-0.0,-0.0,-0.0,-0.0,-0.0,-0.0,-0.0,-0.0,-0.0,-0.0,-0.0,-0.0,-0.0,-0.0,-0.0,-0.0,-0.0,-0.0,-0.0,-0.0,-0.0,-0.0,-0.0,-0.0,-0.0,-0.0,-0.0,-0.0,-0.1848,-0.3023,-0.0,-0.0,-0.0,-0.0,-0.0,-0.0,-0.0,-0.0,-0.0,-0.0,-0.0,-0.0,-0.0,-0.4044,-0.6919,-0.98,-0.7577,-0.894,-0.896,-0.8864,-0.901,-0.9388,-0.9669,-0.9813,-0.9836,-0.9861,-0.9995,-1.0283,-1.0555,-1.0677,-1.0717,-1.0717,-1.0717,-1.0751,-1.0699,-1.0766,-1.0812,-1.0789,-1.098,-1.106,-1.1307,-1.1409,-1.1497,-1.1572,-1.1606,-1.1619,-1.1647,-1.1653,-1.1653,-1.1714,-1.1657,-1.1744,-1.1904,-1.2216,-1.2298,-1.242,-1.2556,-1.2447,-1.2161,-1.136,-0.8655,-0.0,-0.0,-0.0,-0.0,-0.0,-0.0,-0.0,-0.0,-0.0,-0.0,-0.0,-0.0,-0.0,-0.0,-0.0,-0.0,-0.0,-0.0,-0.0,-0.0,-0.0,-0.0,-0.0,-0.0,-0.0,-0.0,-0.0,-0.0,-0.0,-0.0,-0.0,-0.0,-0.0,-0.0,-0.0,-0.0,-0.0,-0.0,-0.0,-0.0,-0.0,-0.0,-0.0,-0.0,-0.0,-0.0,-0.0,-0.0,-0.0,-0.0,-0.0,-0.0,-0.0,-0.0,-0.0,-0.0,-0.0,-0.0,-0.0,-0.0,-0.0,-0.0,-0.0,-0.0,-0.0,-0.0,-0.0,-0.0,-0.6693,-0.8874,-0.8361,-0.894,-0.8954,-0.8858,-0.9003,-0.9033,-0.9544,-0.9813,-0.9829,-0.9848,-0.9942,-1.0168,-1.0399,-1.0595,-1.0717,-1.0717,-1.0717,-1.0724,-1.0645,-1.0765,-1.0652,-1.065,-1.0833,-1.092,-1.1233,-1.1436,-1.1531,-1.1579,-1.1606,-1.1619,-1.1619,-1.1619,-1.1633,-1.1633,-1.1687,-1.1583,-1.175,-1.1606,-1.1881,-1.2366,-1.2515,-1.2284,-1.0878,-0.7706,-0.4554,-0.0,-0.0,-0.0,-0.0,-0.0,-0.0,-0.0,-0.0,-0.0,-0.0,-0.0,-0.0,-0.0,-0.0,-0.0,-0.0,-0.0,-0.0,-0.0,-0.0,-0.0,-0.0,-0.0,-0.0,-0.0,-0.0,-0.0,-0.0,-0.0,-0.0,-0.0,-0.0,-0.0,-0.0,-0.0,-0.0,-0.0,-0.0,-0.0,-0.0,-0.0,-0.0,-0.0,-0.0,-0.0,-0.0,-0.0,-0.0,-0.0,-0.0,-0.0,-0.0,-0.0,-0.0,-0.0,-0.0,-0.0,-0.0,-0.0,-0.0,-0.0,-0.0,-0.0,-0.0,-0.0,-0.0,-0.0,-0.0,-0.0,-0.8953,-0.9269]},{"header":{"parameterUnit":"m.s-1","parameterCategory":1,"la1":31.0,"la2":29.5877,"lo1":-88.7671,"lo2":-86.6584,"dy":0.0162,"dx":0.0185,"nx":115,"ny":88,"refTime":"2025-12-10T12:00:00:Z","depth":0,"parameterNumber":3,"parameterNumberName":"V-component_of_WINDS"},"data":[0.0,0.0,0.0,0.0,0.0,0.0,0.0,0.0,0.0,0.0,0.0,0.0,0.0,0.0,0.0,0.0,0.0,0.0,0.0,0.0,0.0,0.0,0.0,0.0,0.0,0.0,0.0,0.0,0.0,0.0,0.0,0.0,0.0,0.0,0.0,0.0,0.0,0.0,0.0,0.0,0.0,0.0,0.0,0.0,0.0,0.0,0.0,0.0,0.0,0.0,0.0,0.0,0.0,0.0,0.0,0.0,0.0,0.0,0.0,0.0,0.0,0.0,0.0,0.0,0.0,0.0,0.0,0.0,0.0,0.0,0.0,0.0,0.0,0.0,0.0,0.0,0.0,0.0,0.0,0.0,0.0,0.0,0.0,0.0,0.0,0.0,0.0,0.0,0.0,0.0,0.0,0.0,0.0,0.0,0.0,0.0,0.0,0.0,0.0,0.0,0.0,0.0,0.0,0.0,0.0,0.0,0.0,0.0,0.0,0.0,0.0,0.0,0.0,0.0,0.0,0.0,0.0,0.0,0.0,0.0,0.0,0.0,0.0,0.0,0.0,0.0,0.0,0.0,0.0,0.0,0.0,0.0,0.0,0.0,0.0,0.0,0.0,0.0,0.0,0.0,0.0,0.0,0.0,0.0,0.0,0.0,0.0,0.0,0.0,0.0,0.0,0.0,0.0,0.0,0.0,0.0,0.0,0.0,0.0,0.0,0.0,0.0,0.0,0.0,0.0,0.0,0.0,0.0,0.0,0.0,0.0,0.0,0.0,0.0,0.0,0.0,0.0,0.0,0.0,0.0,0.0,0.0,0.0,0.0,0.0,0.0,0.0,0.0,0.0,0.0,0.0,0.0,0.0,0.0,0.0,0.0,0.0,0.0,0.0,0.0,0.0,0.0,0.0,0.0,0.0,0.0,0.0,0.0,0.0,0.0,0.0,0.0,0.0,0.0,0.0,0.0,0.0,0.0,0.0,0.0,0.0,0.0,0.0,0.0,0.0,0.0,0.0,0.0,0.0,0.0,0.0,0.0,0.0,0.0,0.0,0.0,0.0,0.0,0.0,0.0,0.0,0.0,0.0,0.0,0.0,0.0,0.0,0.0,0.0,0.0,0.0,0.0,0.0,0.0,0.0,0.0,0.0,0.0,0.0,0.0,0.0,0.0,0.0,0.0,0.0,0.0,0.0,0.0,0.0,0.0,0.0,0.0,0.0,0.0,0.0,0.0,0.0,0.0,0.0,0.0,0.0,0.0,0.0,0.0,0.0,0.0,0.0,0.0,0.0,0.0,0.0,0.0,0.0,0.0,0.0,0.0,0.0,0.0,0.0,0.0,0.0,0.0,0.0,0.0,0.0,0.0,0.0,0.0,0.0,0.0,0.0,0.0,0.0,0.0,0.0,0.0,0.0,0.0,0.0,0.0,0.0,0.0,0.0,0.0,0.0,0.0,0.0,0.0,0.0,0.0,0.0,0.0,0.0,0.0,0.0,0.0,0.0,0.0,0.0,0.0,0.0,0.0,0.0,0.0,0.0,0.0,0.0,0.0,0.0,0.0,0.0,0.0,0.0,0.0,0.0,0.0,0.0,0.0,0.0,0.0,0.0,0.0,0.0,0.0,0.0,0.0,0.0,0.0,0.0,0.0,0.0,0.0,0.0,0.0,0.0,0.0,0.0,0.0,0.0,0.0,0.0,0.0,0.0,0.0,0.0,0.0,0.0,0.0,0.0,0.0,0.0,0.0,0.0,0.0,0.0,0.0,0.0,0.0,0.0,0.0,0.0,0.0,0.0,0.0,0.0,0.0,0.0,0.0,0.0,0.0,0.0,0.0,0.0,0.0,0.0,0.0,0.0,0.0,0.0,0.0,0.0,0.0,0.0,0.0,0.0,0.0,0.0,0.0,0.0,0.0,0.0,0.0,0.0,0.0,0.0,0.0,0.0,0.0,0.0,0.0,0.0,0.0,0.0,0.0,0.0,0.0,0.0,0.0,0.0,0.0,0.0,0.0,0.0,0.0,0.0,0.0,0.0,0.0,0.0,0.0,0.0,0.0,0.0,0.0,0.0,0.0,0.0,0.0,0.0,0.0,0.0,0.0,0.0,0.0,0.0,0.0,0.0,0.0,0.0,0.0,0.0,0.0,0.0,0.0,0.0,0.0,0.0,0.0,0.0,0.0,0.0,0.0,0.0,0.0,0.0,0.0,0.0,0.0,0.0,0.0,0.0,0.0,0.0,0.0,0.0,0.0,0.0,0.0,0.0,0.0,0.0,0.0,0.0,0.0,0.0,0.0,0.0,0.0,0.0,0.0,0.0,0.0,0.0,0.0,0.0,0.0,0.0,0.0,0.0,0.0,0.0,0.0,0.0,0.0,0.0,0.0,0.0,0.0,0.0,0.0,0.0,0.0,0.0,0.0,0.0,0.0,0.0,0.0,0.0,0.0,0.0,0.0,0.0,0.0,0.0,0.0,0.0,0.0,0.0,0.0,0.0,0.0,0.0,0.0,0.0,0.0,0.0,0.0,0.0,0.0,0.0,0.0,0.0,0.0,0.0,0.0,0.0,0.0,0.0,0.0,0.0,0.0,0.0,0.0,0.0,0.0,0.0,0.0,0.0,0.0,0.0,0.0,0.0,0.0,0.0,0.0,0.0,0.0,0.0,0.0,0.0,0.0,0.0,0.0,0.0,0.0,0.0,0.0,0.0,0.0,0.0,0.0,0.0,0.0,0.0,0.0,0.0,0.0,0.0,0.0,0.0,0.0,0.0,0.0,0.0,0.0,0.0,0.0,0.0,0.0,0.0,0.0,0.0,0.0,0.0,0.0,0.0,0.0,0.0,0.0,0.0,0.0,0.0,0.0,0.0,0.0,0.0,0.0,0.0,0.0,0.0,0.0,0.0,0.0,0.0,0.0,0.0,0.0,0.0,0.0,0.0,0.0,0.0,0.0,0.0,0.0,0.0,0.0,0.0,0.0,0.0,0.0,0.0,0.0,0.0,0.0,0.0,0.0,0.0,0.0,0.0,0.0,0.0,0.0,0.0,0.0,0.0,0.0,0.0,0.0,0.0,0.0,0.0,0.0,0.0,0.0,0.0,0.0,0.0,0.0,0.0,0.0,0.0,0.0,0.0,0.0,0.0,0.0,0.0,0.0,0.0,0.0,0.0,0.0,0.0,0.0,0.0,0.0,0.0,0.0,0.0,0.0,0.0,0.0,0.0,0.0,0.0,0.0,0.0,0.0,0.0,0.0,0.0,0.0,0.0,0.0,0.0,0.0,0.0,0.0,0.0,0.0,0.0,0.0,0.0,0.0,0.0,0.0,0.0,0.0,0.0,0.0,0.0,0.0,0.0,0.0,0.0,0.0,0.0,0.0,0.0,0.0,0.0,0.0,0.0,0.0,0.0,0.0,0.0,0.0,0.0,0.0,0.0,0.0,0.0,0.0,0.0,0.0,0.0,0.0,0.0,0.0,0.0,0.0,0.0,0.0,0.0,0.0,0.0,0.0,0.0,0.0,0.0,0.0,0.0,0.0,0.0,0.0,0.0,0.0,0.0,0.0,0.0,0.0,0.0,0.0,0.0,0.0,0.0,0.0,0.0,0.0,0.0,0.0,0.0,0.0,0.0,0.0,0.0,0.0,0.0,0.0,0.0,0.0,0.0,0.0,0.0,0.0,0.0,0.0,0.0,0.0,0.0,0.0,0.0,0.0,0.0,0.0,0.0,0.0,0.0,0.0,0.0,0.0,0.0,0.0,0.0,0.0,0.0,0.0,0.0,0.0,0.0,0.0,0.0,0.0,0.0,0.0,0.0,0.0,0.0,0.0,0.0,0.0,0.0,0.0,0.0,0.0,0.0,0.0,0.0,0.0,0.0,0.0,0.0,0.0,0.0,0.0,0.0,0.0,0.0,0.0,0.0,0.0,0.0,0.0,0.0,0.0,0.0,0.0,0.0,0.0,0.0,0.0,0.0,0.0,0.0,0.0,0.0,0.0,0.0,0.0,0.0,0.0,0.0,0.0,0.0,0.0,0.0,0.0,0.0,0.0,0.0,0.0,0.0,0.0,0.0,0.0,0.0,0.0,0.0,0.0,0.0,0.0,0.0,0.0,0.0,0.0,0.0,0.0,0.0,0.0,0.0,0.0,0.0,0.0,0.0,0.0,0.0,0.0,0.0,0.0,0.0,0.0,0.0,0.0,0.0,0.0,0.0,0.0,0.0,0.0,0.0,0.0,0.0,0.0,0.0,0.0,0.0,0.0,0.0,0.0,0.0,0.0,0.0,0.0,-5.0765,0.0,0.0,0.0,0.0,0.0,0.0,0.0,0.0,0.0,0.0,0.0,0.0,0.0,0.0,0.0,0.0,0.0,0.0,0.0,0.0,0.0,0.0,0.0,0.0,0.0,0.0,0.0,0.0,0.0,0.0,0.0,0.0,0.0,0.0,0.0,0.0,0.0,0.0,0.0,0.0,0.0,0.0,0.0,0.0,0.0,0.0,0.0,0.0,0.0,0.0,0.0,0.0,0.0,0.0,0.0,0.0,0.0,0.0,0.0,0.0,0.0,0.0,0.0,0.0,0.0,0.0,0.0,0.0,0.0,0.0,0.0,0.0,0.0,0.0,0.0,0.0,0.0,0.0,0.0,0.0,0.0,0.0,0.0,0.0,0.0,0.0,0.0,0.0,0.0,0.0,0.0,0.0,0.0,0.0,0.0,0.0,0.0,0.0,0.0,0.0,0.0,0.0,0.0,0.0,0.0,0.0,0.0,0.0,0.0,0.0,-5.238,-5.3151,-5.1646,-5.0802,-5.0765,0.0,0.0,0.0,0.0,0.0,0.0,0.0,0.0,0.0,0.0,0.0,0.0,0.0,0.0,0.0,0.0,0.0,0.0,0.0,0.0,0.0,0.0,0.0,0.0,0.0,0.0,0.0,0.0,0.0,0.0,0.0,0.0,0.0,0.0,0.0,0.0,0.0,0.0,0.0,0.0,0.0,0.0,0.0,0.0,0.0,0.0,0.0,0.0,0.0,0.0,0.0,0.0,0.0,0.0,0.0,0.0,0.0,0.0,0.0,0.0,0.0,0.0,0.0,0.0,0.0,0.0,0.0,0.0,0.0,0.0,0.0,0.0,0.0,0.0,0.0,0.0,0.0,0.0,0.0,0.0,0.0,0.0,0.0,0.0,0.0,0.0,0.0,0.0,0.0,0.0,0.0,0.0,0.0,0.0,0.0,0.0,0.0,0.0,0.0,0.0,0.0,0.0,0.0,0.0,0.0,0.0,0.0,0.0,0.0,0.0,0.0,0.0,-5.2087,-5.1059,-5.0508,0.0,0.0,0.0,0.0,0.0,0.0,0.0,0.0,0.0,0.0,0.0,0.0,0.0,0.0,0.0,0.0,0.0,0.0,0.0,0.0,0.0,0.0,0.0,0.0,0.0,0.0,0.0,0.0,0.0,0.0,0.0,0.0,0.0,0.0,0.0,0.0,0.0,0.0,0.0,0.0,0.0,0.0,0.0,0.0,0.0,0.0,0.0,0.0,0.0,0.0,0.0,0.0,0.0,0.0,0.0,0.0,0.0,0.0,0.0,0.0,0.0,0.0,0.0,0.0,0.0,0.0,0.0,0.0,0.0,0.0,0.0,0.0,0.0,0.0,0.0,0.0,0.0,0.0,0.0,0.0,0.0,0.0,0.0,0.0,0.0,0.0,0.0,0.0,0.0,0.0,0.0,0.0,0.0,0.0,0.0,0.0,0.0,0.0,0.0,0.0,0.0,0.0,0.0,0.0,0.0,0.0,0.0,0.0,0.0,0.0,-5.1977,-5.4216,-5.3408,0.0,-4.9811,0.0,0.0,0.0,0.0,0.0,0.0,0.0,0.0,0.0,0.0,0.0,0.0,0.0,0.0,0.0,0.0,0.0,0.0,0.0,0.0,0.0,0.0,0.0,0.0,0.0,0.0,0.0,0.0,0.0,0.0,0.0,0.0,0.0,0.0,0.0,0.0,0.0,0.0,0.0,0.0,0.0,0.0,0.0,0.0,0.0,0.0,0.0,0.0,0.0,0.0,0.0,0.0,0.0,0.0,0.0,0.0,0.0,0.0,0.0,0.0,0.0,0.0,0.0,0.0,0.0,0.0,0.0,0.0,0.0,0.0,0.0,0.0,0.0,0.0,0.0,0.0,0.0,0.0,0.0,0.0,0.0,0.0,0.0,0.0,0.0,0.0,0.0,0.0,0.0,0.0,0.0,0.0,0.0,0.0,0.0,0.0,0.0,0.0,0.0,0.0,0.0,0.0,0.0,0.0,0.0,0.0,0.0,0.0,0.0,0.0,0.0,-5.4363,-5.2711,-5.0839,0.0,0.0,0.0,0.0,0.0,0.0,0.0,0.0,0.0,0.0,0.0,0.0,0.0,0.0,0.0,0.0,0.0,0.0,0.0,0.0,0.0,0.0,0.0,0.0,0.0,0.0,0.0,0.0,0.0,0.0,0.0,0.0,0.0,0.0,0.0,0.0,0.0,0.0,0.0,0.0,0.0,0.0,0.0,0.0,0.0,0.0,0.0,0.0,0.0,0.0,0.0,0.0,0.0,0.0,0.0,0.0,0.0,0.0,0.0,0.0,0.0,0.0,0.0,0.0,0.0,0.0,0.0,0.0,0.0,0.0,0.0,0.0,0.0,0.0,0.0,0.0,0.0,0.0,0.0,0.0,0.0,0.0,0.0,0.0,0.0,0.0,0.0,0.0,0.0,0.0,0.0,0.0,0.0,0.0,0.0,0.0,0.0,0.0,0.0,0.0,0.0,0.0,0.0,0.0,0.0,0.0,0.0,0.0,0.0,0.0,-5.1463,0.0,-5.3885,-5.238,-5.0472,-4.8379,0.0,0.0,0.0,0.0,0.0,0.0,0.0,0.0,0.0,0.0,0.0,0.0,0.0,0.0,0.0,0.0,0.0,0.0,0.0,0.0,0.0,0.0,0.0,0.0,0.0,0.0,0.0,0.0,0.0,0.0,0.0,0.0,0.0,0.0,0.0,0.0,0.0,0.0,0.0,0.0,0.0,0.0,0.0,0.0,0.0,0.0,0.0,0.0,0.0,0.0,0.0,0.0,0.0,0.0,0.0,0.0,0.0,0.0,0.0,0.0,0.0,0.0,0.0,0.0,0.0,0.0,0.0,0.0,0.0,0.0,0.0,0.0,0.0,0.0,0.0,0.0,0.0,0.0,0.0,0.0,0.0,0.0,0.0,0.0,0.0,0.0,0.0,0.0,0.0,0.0,0.0,0.0,0.0,0.0,0.0,0.0,0.0,0.0,0.0,0.0,0.0,0.0,0.0,0.0,0.0,0.0,0.0,0.0,0.0,-5.1242,-5.1646,-5.3182,-5.3151,-5.1573,0.0,0.0,0.0,0.0,0.0,0.0,0.0,0.0,0.0,0.0,0.0,0.0,0.0,0.0,0.0,0.0,0.0,0.0,0.0,0.0,0.0,0.0,0.0,0.0,0.0,0.0,0.0,0.0,0.0,0.0,0.0,0.0,0.0,0.0,0.0,0.0,0.0,0.0,0.0,0.0,0.0,0.0,0.0,0.0,0.0,0.0,0.0,0.0,0.0,0.0,0.0,0.0,0.0,0.0,0.0,0.0,0.0,0.0,0.0,0.0,0.0,0.0,0.0,0.0,0.0,0.0,0.0,0.0,0.0,0.0,0.0,0.0,0.0,0.0,0.0,0.0,0.0,0.0,0.0,0.0,0.0,0.0,0.0,0.0,0.0,0.0,0.0,0.0,0.0,0.0,0.0,0.0,0.0,0.0,0.0,0.0,0.0,0.0,0.0,0.0,0.0,0.0,0.0,0.0,0.0,0.0,0.0,0.0,0.0,-5.0398,-5.0727,-5.1682,-5.309,-5.0452,-4.8614,0.0,0.0,0.0,0.0,0.0,0.0,0.0,0.0,0.0,0.0,0.0,0.0,0.0,0.0,0.0,0.0,0.0,0.0,0.0,0.0,0.0,0.0,0.0,0.0,0.0,0.0,0.0,0.0,0.0,0.0,0.0,0.0,0.0,0.0,0.0,0.0,0.0,0.0,0.0,0.0,0.0,0.0,0.0,0.0,0.0,0.0,0.0,0.0,0.0,0.0,0.0,0.0,0.0,0.0,0.0,0.0,0.0,0.0,0.0,0.0,0.0,0.0,0.0,0.0,0.0,0.0,0.0,0.0,0.0,0.0,0.0,0.0,0.0,0.0,0.0,0.0,0.0,0.0,0.0,0.0,0.0,0.0,0.0,0.0,0.0,0.0,0.0,0.0,0.0,0.0,0.0,0.0,0.0,0.0,0.0,0.0,0.0,0.0,0.0,0.0,0.0,0.0,0.0,0.0,0.0,0.0,0.0,0.0,0.0,-4.9601,0.0,-5.1164,0.0,-4.8508,-4.6673,0.0,0.0,0.0,0.0,0.0,0.0,0.0,0.0,0.0,0.0,0.0,0.0,0.0,0.0,0.0,0.0,0.0,0.0,0.0,0.0,0.0,0.0,0.0,0.0,0.0,0.0,0.0,0.0,0.0,0.0,0.0,0.0,0.0,0.0,0.0,0.0,0.0,0.0,0.0,0.0,0.0,0.0,0.0,0.0,0.0,0.0,0.0,0.0,0.0,0.0,0.0,0.0,0.0,0.0,0.0,0.0,0.0,0.0,0.0,0.0,0.0,0.0,0.0,0.0,0.0,0.0,0.0,0.0,0.0,0.0,0.0,0.0,0.0,0.0,0.0,0.0,0.0,0.0,0.0,0.0,0.0,0.0,0.0,0.0,0.0,0.0,0.0,0.0,0.0,0.0,0.0,0.0,0.0,0.0,0.0,0.0,0.0,0.0,0.0,0.0,0.0,0.0,0.0,0.0,0.0,0.0,0.0,0.0,-4.8798,-4.9658,-5.0407,-4.9912,-4.789,-4.7652,-4.6165,0.0,0.0,0.0,0.0,0.0,0.0,0.0,0.0,0.0,0.0,0.0,0.0,0.0,0.0,0.0,0.0,0.0,0.0,0.0,0.0,0.0,0.0,0.0,0.0,0.0,0.0,0.0,0.0,0.0,0.0,0.0,0.0,0.0,0.0,0.0,0.0,0.0,0.0,0.0,0.0,0.0,0.0,0.0,0.0,0.0,0.0,0.0,0.0,0.0,0.0,0.0,0.0,0.0,0.0,0.0,0.0,0.0,0.0,0.0,0.0,0.0,0.0,0.0,0.0,0.0,0.0,0.0,0.0,0.0,0.0,0.0,0.0,0.0,0.0,0.0,0.0,0.0,0.0,0.0,0.0,0.0,0.0,0.0,0.0,0.0,0.0,0.0,0.0,0.0,0.0,0.0,0.0,0.0,0.0,0.0,0.0,0.0,0.0,0.0,0.0,0.0,0.0,0.0,0.0,0.0,0.0,0.0,0.0,0.0,-4.8892,-4.9281,-4.9422,-4.9164,-4.6305,-4.473,0.0,0.0,0.0,0.0,0.0,0.0,0.0,0.0,0.0,0.0,0.0,0.0,0.0,0.0,0.0,0.0,0.0,0.0,0.0,0.0,0.0,0.0,0.0,0.0,0.0,0.0,0.0,0.0,0.0,0.0,0.0,0.0,0.0,0.0,0.0,0.0,0.0,0.0,0.0,0.0,0.0,0.0,0.0,0.0,0.0,0.0,0.0,0.0,0.0,0.0,0.0,0.0,0.0,0.0,0.0,0.0,0.0,0.0,0.0,0.0,0.0,0.0,0.0,0.0,0.0,0.0,0.0,0.0,0.0,0.0,0.0,0.0,0.0,0.0,0.0,0.0,0.0,0.0,0.0,0.0,0.0,0.0,0.0,0.0,0.0,0.0,0.0,0.0,0.0,0.0,0.0,0.0,0.0,0.0,0.0,0.0,0.0,0.0,0.0,0.0,0.0,0.0,0.0,0.0,0.0,0.0,0.0,0.0,0.0,-4.9019,-4.9144,-4.9199,-4.9227,-4.5728,-4.4045,-4.435,0.0,0.0,0.0,0.0,0.0,0.0,0.0,0.0,0.0,0.0,0.0,0.0,0.0,0.0,0.0,0.0,0.0,0.0,0.0,0.0,0.0,0.0,0.0,0.0,0.0,0.0,0.0,0.0,0.0,0.0,0.0,0.0,0.0,0.0,0.0,0.0,0.0,0.0,0.0,0.0,0.0,0.0,0.0,0.0,0.0,0.0,0.0,0.0,0.0,0.0,0.0,0.0,0.0,0.0,0.0,0.0,0.0,0.0,0.0,0.0,0.0,0.0,0.0,0.0,0.0,0.0,0.0,0.0,0.0,0.0,0.0,0.0,0.0,0.0,0.0,0.0,0.0,0.0,0.0,0.0,0.0,0.0,0.0,0.0,0.0,0.0,0.0,0.0,0.0,0.0,0.0,0.0,0.0,0.0,0.0,0.0,0.0,0.0,0.0,0.0,0.0,0.0,0.0,0.0,0.0,0.0,0.0,0.0,-4.987,-5.0,-4.9492,-4.8139,-4.5906,-4.4012,0.0,0.0,0.0,0.0,0.0,0.0,0.0,0.0,0.0,0.0,0.0,0.0,0.0,0.0,0.0,0.0,0.0,0.0,0.0,0.0,0.0,0.0,0.0,0.0,0.0,0.0,0.0,0.0,0.0,0.0,0.0,0.0,0.0,0.0,0.0,0.0,0.0,0.0,0.0,0.0,0.0,0.0,0.0,0.0,0.0,0.0,0.0,0.0,0.0,0.0,0.0,0.0,0.0,0.0,0.0,0.0,0.0,0.0,0.0,0.0,0.0,0.0,0.0,0.0,0.0,0.0,0.0,0.0,0.0,0.0,0.0,0.0,0.0,0.0,0.0,0.0,0.0,0.0,0.0,0.0,0.0,0.0,0.0,0.0,0.0,0.0,0.0,0.0,0.0,0.0,0.0,0.0,0.0,0.0,0.0,0.0,0.0,0.0,0.0,0.0,0.0,0.0,0.0,0.0,0.0,0.0,0.0,0.0,0.0,-5.0594,-5.0804,-5.0697,-5.0304,-4.7665,-4.5771,0.0,0.0,0.0,0.0,0.0,0.0,0.0,0.0,0.0,0.0,0.0,0.0,0.0,0.0,0.0,0.0,0.0,0.0,0.0,0.0,0.0,0.0,0.0,0.0,0.0,0.0,0.0,0.0,0.0,0.0,0.0,0.0,0.0,0.0,0.0,0.0,0.0,0.0,0.0,0.0,0.0,0.0,0.0,0.0,0.0,0.0,0.0,0.0,0.0,0.0,0.0,0.0,0.0,0.0,0.0,0.0,0.0,0.0,0.0,0.0,0.0,0.0,0.0,0.0,0.0,0.0,0.0,0.0,0.0,0.0,0.0,0.0,0.0,0.0,0.0,0.0,0.0,0.0,0.0,0.0,0.0,0.0,0.0,0.0,0.0,0.0,0.0,0.0,0.0,0.0,0.0,0.0,0.0,0.0,0.0,0.0,0.0,0.0,0.0,0.0,0.0,0.0,0.0,0.0,0.0,0.0,0.0,0.0,-5.047,-5.0929,-5.139,-5.1522,-5.1217,-4.8951,-4.709,0.0,0.0,0.0,0.0,0.0,0.0,0.0,0.0,0.0,0.0,0.0,0.0,0.0,0.0,0.0,0.0,0.0,0.0,0.0,0.0,0.0,0.0,0.0,0.0,0.0,0.0,0.0,0.0,0.0,0.0,0.0,0.0,0.0,0.0,0.0,0.0,0.0,0.0,0.0,0.0,0.0,0.0,0.0,0.0,0.0,0.0,0.0,0.0,0.0,0.0,0.0,0.0,0.0,0.0,0.0,0.0,0.0,0.0,0.0,0.0,0.0,0.0,0.0,0.0,0.0,0.0,0.0,0.0,0.0,0.0,0.0,0.0,0.0,0.0,0.0,0.0,0.0,0.0,0.0,0.0,0.0,0.0,0.0,0.0,0.0,0.0,0.0,0.0,0.0,0.0,0.0,0.0,0.0,0.0,0.0,0.0,0.0,0.0,0.0,0.0,0.0,0.0,0.0,0.0,0.0,0.0,0.0,0.0,-5.107,-5.1123,-5.1898,-5.1995,-5.1319,-4.983,-4.8003,0.0,0.0,0.0,0.0,0.0,0.0,0.0,0.0,0.0,0.0,0.0,0.0,0.0,0.0,0.0,0.0,0.0,0.0,0.0,0.0,0.0,0.0,0.0,0.0,0.0,0.0,0.0,0.0,0.0,0.0,0.0,0.0,0.0,0.0,0.0,0.0,0.0,0.0,0.0,0.0,0.0,0.0,0.0,0.0,0.0,0.0,0.0,0.0,0.0,0.0,0.0,0.0,0.0,0.0,0.0,0.0,0.0,0.0,0.0,0.0,0.0,0.0,0.0,0.0,0.0,0.0,0.0,0.0,0.0,0.0,0.0,0.0,0.0,0.0,0.0,0.0,0.0,0.0,0.0,0.0,0.0,0.0,0.0,0.0,0.0,0.0,0.0,0.0,0.0,0.0,0.0,0.0,0.0,0.0,0.0,0.0,0.0,0.0,0.0,0.0,0.0,0.0,0.0,0.0,0.0,0.0,0.0,0.0,-5.19,-5.1935,-5.2173,-5.2232,-5.2063,-5.0067,-4.824,0.0,0.0,0.0,0.0,0.0,0.0,0.0,0.0,0.0,0.0,0.0,0.0,0.0,0.0,0.0,0.0,0.0,0.0,0.0,0.0,0.0,0.0,0.0,0.0,0.0,0.0,0.0,0.0,0.0,0.0,0.0,0.0,0.0,0.0,0.0,0.0,0.0,0.0,0.0,0.0,0.0,0.0,0.0,0.0,0.0,0.0,0.0,0.0,-5.2824,0.0,0.0,0.0,0.0,0.0,0.0,0.0,0.0,0.0,0.0,0.0,0.0,0.0,0.0,0.0,0.0,0.0,0.0,0.0,0.0,0.0,0.0,0.0,0.0,0.0,0.0,0.0,0.0,0.0,0.0,0.0,0.0,0.0,0.0,0.0,0.0,0.0,0.0,0.0,0.0,0.0,0.0,0.0,0.0,0.0,0.0,0.0,0.0,0.0,0.0,0.0,0.0,0.0,0.0,0.0,0.0,0.0,0.0,0.0,-5.1759,-5.2201,-5.1615,-5.1251,-5.1183,-4.9796,-4.8308,0.0,0.0,0.0,0.0,0.0,0.0,0.0,0.0,0.0,0.0,0.0,0.0,0.0,0.0,0.0,0.0,0.0,0.0,0.0,0.0,0.0,0.0,0.0,0.0,0.0,0.0,0.0,0.0,0.0,0.0,0.0,0.0,0.0,0.0,0.0,0.0,0.0,0.0,0.0,0.0,0.0,0.0,0.0,0.0,0.0,0.0,0.0,0.0,0.0,0.0,0.0,0.0,0.0,0.0,0.0,0.0,0.0,0.0,0.0,0.0,0.0,0.0,0.0,0.0,0.0,0.0,0.0,0.0,0.0,0.0,0.0,0.0,0.0,0.0,0.0,0.0,0.0,0.0,0.0,0.0,0.0,0.0,0.0,0.0,0.0,0.0,0.0,0.0,0.0,0.0,0.0,0.0,0.0,0.0,0.0,0.0,0.0,0.0,0.0,0.0,0.0,0.0,0.0,0.0,0.0,0.0,0.0,-5.0653,-5.1352,-5.2396,-5.0926,-5.0101,-5.0067,-4.939,-4.824,-4.6684,0.0,0.0,0.0,0.0,0.0,0.0,0.0,0.0,0.0,0.0,0.0,0.0,0.0,0.0,0.0,0.0,0.0,0.0,0.0,0.0,0.0,0.0,0.0,0.0,0.0,0.0,0.0,0.0,0.0,0.0,0.0,0.0,0.0,0.0,0.0,0.0,0.0,0.0,-5.199,-5.4798,0.0,0.0,0.0,0.0,0.0,0.0,0.0,0.0,-5.4533,0.0,0.0,0.0,0.0,0.0,0.0,0.0,0.0,0.0,0.0,0.0,0.0,0.0,0.0,0.0,0.0,0.0,0.0,0.0,0.0,0.0,0.0,0.0,0.0,0.0,0.0,0.0,0.0,0.0,0.0,0.0,0.0,0.0,0.0,0.0,0.0,0.0,0.0,0.0,0.0,0.0,0.0,0.0,0.0,0.0,0.0,0.0,0.0,0.0,0.0,0.0,0.0,0.0,0.0,0.0,0.0,-5.3518,-5.1226,-5.1069,-5.3193,-5.1227,-5.0101,-5.0067,-4.939,-4.8037,-4.6007,0.0,0.0,0.0,0.0,0.0,0.0,0.0,0.0,0.0,0.0,0.0,0.0,0.0,0.0,0.0,0.0,0.0,0.0,0.0,0.0,0.0,0.0,0.0,0.0,0.0,0.0,0.0,0.0,0.0,0.0,0.0,0.0,0.0,0.0,0.0,0.0,0.0,0.0,0.0,-5.6958,-5.8448,0.0,0.0,0.0,0.0,0.0,0.0,0.0,0.0,-5.4689,0.0,0.0,0.0,0.0,0.0,0.0,0.0,0.0,0.0,0.0,0.0,0.0,0.0,0.0,0.0,0.0,0.0,0.0,0.0,0.0,0.0,0.0,0.0,0.0,0.0,0.0,0.0,0.0,0.0,0.0,0.0,0.0,0.0,0.0,0.0,0.0,0.0,0.0,0.0,0.0,0.0,0.0,0.0,0.0,0.0,0.0,0.0,0.0,0.0,0.0,0.0,0.0,0.0,0.0,0.0,-5.1642,-5.0952,-5.1263,-5.2714,-5.0686,-4.9526,-4.9492,-4.8443,-4.6989,0.0,0.0,0.0,0.0,0.0,0.0,0.0,0.0,0.0,0.0,0.0,0.0,0.0,0.0,0.0,0.0,0.0,0.0,0.0,0.0,0.0,0.0,0.0,0.0,0.0,0.0,0.0,0.0,0.0,0.0,0.0,0.0,0.0,0.0,0.0,0.0,0.0,0.0,0.0,0.0,-5.8539,-5.9811,-6.0431,0.0,0.0,0.0,0.0,0.0,0.0,-5.5775,-5.5437,0.0,0.0,0.0,0.0,0.0,0.0,0.0,0.0,0.0,0.0,0.0,0.0,0.0,0.0,0.0,0.0,0.0,0.0,0.0,0.0,0.0,0.0,0.0,0.0,0.0,0.0,0.0,0.0,0.0,0.0,0.0,0.0,0.0,0.0,0.0,0.0,0.0,0.0,0.0,0.0,0.0,0.0,0.0,0.0,0.0,0.0,0.0,0.0,0.0,0.0,0.0,0.0,0.0,0.0,0.0,-4.9735,-5.0307,-5.1228,-5.2396,-5.0204,-4.9018,-4.8984,-4.7868,-4.6413,0.0,0.0,0.0,0.0,0.0,0.0,0.0,0.0,0.0,0.0,0.0,0.0,0.0,0.0,0.0,0.0,0.0,0.0,0.0,0.0,0.0,0.0,0.0,0.0,0.0,0.0,0.0,0.0,0.0,0.0,0.0,0.0,0.0,0.0,0.0,0.0,0.0,0.0,0.0,0.0,0.0,-6.1031,-6.071,-5.9179,0.0,0.0,0.0,0.0,-5.6992,-5.7565,0.0,0.0,0.0,0.0,0.0,0.0,0.0,0.0,0.0,0.0,0.0,0.0,0.0,0.0,0.0,0.0,0.0,0.0,0.0,0.0,0.0,0.0,0.0,0.0,0.0,0.0,0.0,0.0,0.0,0.0,0.0,0.0,0.0,0.0,0.0,0.0,0.0,0.0,0.0,0.0,0.0,0.0,0.0,0.0,0.0,0.0,0.0,0.0,0.0,0.0,0.0,0.0,0.0,0.0,0.0,0.0,-5.0468,-4.9554,-5.0413,-5.3033,-5.0538,-4.9018,-4.9018,-4.8849,-4.7428,0.0,0.0,0.0,0.0,0.0,0.0,0.0,0.0,0.0,0.0,0.0,0.0,0.0,0.0,0.0,0.0,0.0,0.0,0.0,0.0,0.0,0.0,0.0,0.0,0.0,0.0,0.0,0.0,0.0,0.0,0.0,0.0,0.0,0.0,0.0,0.0,0.0,0.0,0.0,0.0,0.0,-6.1869,-6.0474,-5.9728,-5.9235,0.0,0.0,-5.9311,-6.0157,-6.1847,0.0,0.0,0.0,0.0,0.0,0.0,0.0,0.0,0.0,0.0,0.0,0.0,0.0,0.0,0.0,0.0,0.0,0.0,0.0,0.0,0.0,0.0,0.0,0.0,0.0,0.0,0.0,0.0,0.0,0.0,0.0,0.0,0.0,0.0,0.0,0.0,0.0,0.0,0.0,0.0,0.0,0.0,0.0,0.0,0.0,0.0,0.0,0.0,0.0,0.0,0.0,0.0,0.0,0.0,0.0,-4.8196,-4.9991,-5.0056,-5.0944,-5.2644,-5.0307,-4.9018,-4.9018,-4.78,-4.6312,0.0,0.0,0.0,0.0,0.0,0.0,0.0,0.0,0.0,0.0,0.0,0.0,0.0,0.0,0.0,0.0,0.0,0.0,0.0,0.0,0.0,0.0,0.0,0.0,0.0,0.0,0.0,0.0,0.0,0.0,0.0,0.0,0.0,0.0,0.0,0.0,0.0,0.0,0.0,0.0,0.0,0.0,-6.0953,-6.093,0.0,0.0,0.0,-6.1089,-6.1473,0.0,0.0,0.0,0.0,0.0,0.0,0.0,0.0,0.0,0.0,0.0,0.0,0.0,0.0,0.0,0.0,0.0,0.0,0.0,0.0,0.0,0.0,0.0,0.0,0.0,0.0,0.0,0.0,0.0,0.0,0.0,0.0,0.0,0.0,0.0,0.0,0.0,0.0,0.0,0.0,0.0,0.0,0.0,0.0,0.0,0.0,0.0,0.0,0.0,0.0,0.0,0.0,0.0,0.0,0.0,0.0,0.0,-4.9848,-5.0844,-5.1759,-5.2502,-5.0617,-4.939,-4.8984,-4.7539,0.0,0.0,0.0,0.0,0.0,0.0,0.0,0.0,0.0,0.0,0.0,0.0,0.0,0.0,0.0,0.0,0.0,0.0,0.0,0.0,0.0,0.0,0.0,0.0,0.0,0.0,0.0,-4.4982,0.0,0.0,0.0,0.0,0.0,0.0,0.0,0.0,0.0,0.0,0.0,0.0,0.0,0.0,-6.1237,-6.1106,-6.2003,-6.2781,0.0,0.0,-6.2781,-6.3012,-6.4089,-6.3553,0.0,0.0,0.0,0.0,0.0,0.0,0.0,0.0,0.0,0.0,0.0,0.0,0.0,0.0,0.0,0.0,0.0,0.0,0.0,0.0,0.0,0.0,0.0,0.0,0.0,0.0,0.0,0.0,0.0,0.0,0.0,0.0,0.0,0.0,0.0,0.0,0.0,0.0,0.0,0.0,0.0,0.0,0.0,0.0,0.0,0.0,0.0,0.0,0.0,0.0,0.0,0.0,0.0,0.0,0.0,-5.0688,-5.162,-5.2537,-5.337,-5.1855,-5.0405,-4.9052,-4.9478,-4.8342,0.0,0.0,0.0,0.0,0.0,0.0,0.0,0.0,0.0,0.0,0.0,0.0,0.0,0.0,0.0,0.0,0.0,0.0,0.0,0.0,0.0,0.0,0.0,0.0,0.0,0.0,0.0,0.0,0.0,0.0,0.0,0.0,0.0,0.0,0.0,0.0,0.0,0.0,0.0,0.0,0.0,-6.1955,-6.0456,-6.2682,-6.4705,0.0,0.0,-6.4705,-6.5513,-6.7667,-6.7051,-6.0527,0.0,0.0,0.0,0.0,0.0,0.0,0.0,0.0,0.0,0.0,0.0,0.0,0.0,0.0,0.0,0.0,0.0,0.0,0.0,0.0,0.0,0.0,0.0,0.0,0.0,0.0,0.0,0.0,0.0,0.0,0.0,0.0,0.0,0.0,0.0,0.0,0.0,0.0,0.0,0.0,0.0,0.0,0.0,0.0,0.0,0.0,0.0,0.0,0.0,0.0,0.0,0.0,0.0,-4.9114,-5.0802,-5.2159,-5.357,-5.4789,-5.3394,-5.2358,-5.1765,-5.1134,-4.9521,0.0,0.0,0.0,0.0,0.0,0.0,0.0,0.0,0.0,0.0,0.0,0.0,0.0,0.0,0.0,0.0,0.0,0.0,0.0,0.0,0.0,0.0,0.0,0.0,0.0,0.0,0.0,0.0,-4.88,-4.8652,-4.8238,0.0,0.0,0.0,0.0,0.0,0.0,0.0,0.0,0.0,0.0,-6.2333,-6.2442,-6.4151,0.0,0.0,-6.6359,-6.6436,-6.7321,-6.7398,-6.609,-6.2435,-6.1089,0.0,0.0,0.0,0.0,0.0,0.0,0.0,0.0,0.0,0.0,0.0,0.0,0.0,0.0,0.0,0.0,0.0,0.0,0.0,0.0,0.0,0.0,0.0,0.0,0.0,0.0,0.0,0.0,0.0,0.0,0.0,0.0,0.0,0.0,0.0,0.0,0.0,0.0,0.0,0.0,0.0,0.0,0.0,0.0,0.0,0.0,0.0,0.0,0.0,0.0,0.0,0.0,-4.952,-5.1132,-5.3053,-5.4616,-5.5772,-5.4706,-5.3937,-5.3495,-5.2375,-5.0695,0.0,0.0,0.0,0.0,0.0,0.0,0.0,0.0,0.0,0.0,0.0,0.0,0.0,0.0,0.0,0.0,0.0,0.0,0.0,0.0,0.0,0.0,0.0,0.0,0.0,0.0,0.0,0.0,-4.989,-4.9433,-4.9048,0.0,0.0,0.0,0.0,0.0,0.0,0.0,0.0,0.0,0.0,-6.2784,-6.3618,-6.4742,-6.5705,-6.6282,-6.6128,-6.6244,-6.7128,-6.6474,-6.5243,-6.3281,0.0,0.0,0.0,0.0,0.0,0.0,0.0,0.0,0.0,0.0,0.0,0.0,0.0,0.0,0.0,0.0,0.0,0.0,0.0,0.0,0.0,0.0,0.0,0.0,0.0,0.0,0.0,0.0,0.0,0.0,-4.3497,0.0,0.0,0.0,0.0,0.0,0.0,0.0,0.0,0.0,0.0,0.0,0.0,0.0,0.0,0.0,0.0,0.0,0.0,0.0,0.0,0.0,0.0,0.0,-5.1977,-5.4361,-5.5699,-5.5808,-5.5686,-5.5001,-5.3655,-5.3319,-5.2065,-4.9722,0.0,0.0,0.0,0.0,0.0,0.0,0.0,0.0,0.0,0.0,0.0,0.0,0.0,0.0,0.0,0.0,0.0,0.0,0.0,0.0,0.0,0.0,0.0,0.0,0.0,0.0,-4.826,-4.7509,-4.7355,0.0,0.0,0.0,0.0,0.0,0.0,0.0,0.0,0.0,0.0,-6.1642,-6.3281,-6.3334,-6.4089,-6.4743,-6.4743,-6.4012,-6.3782,-6.4743,-6.5397,-6.5051,0.0,0.0,0.0,0.0,0.0,0.0,0.0,0.0,0.0,0.0,0.0,0.0,0.0,0.0,0.0,0.0,0.0,0.0,0.0,0.0,0.0,0.0,0.0,0.0,0.0,0.0,0.0,-4.7019,-4.6324,0.0,0.0,0.0,0.0,0.0,0.0,0.0,0.0,0.0,0.0,0.0,-5.5207,-5.5757,0.0,0.0,0.0,0.0,0.0,0.0,0.0,0.0,0.0,0.0,0.0,0.0,-4.9814,-5.2013,-5.4407,-5.6181,-5.724,-5.7255,-5.6975,-5.6515,-5.5895,-5.3981,-5.055,0.0,0.0,0.0,0.0,0.0,0.0,0.0,0.0,0.0,0.0,0.0,0.0,0.0,0.0,0.0,0.0,0.0,0.0,0.0,0.0,0.0,0.0,0.0,0.0,0.0,-4.8355,0.0,0.0,0.0,0.0,0.0,0.0,0.0,0.0,0.0,0.0,0.0,-5.8165,-6.0089,-6.205,-6.332,-6.332,-6.4551,-6.5628,0.0,0.0,0.0,0.0,0.0,0.0,0.0,0.0,0.0,0.0,0.0,0.0,0.0,0.0,-6.8398,-6.4512,-6.354,-6.3438,-6.3705,0.0,0.0,0.0,0.0,0.0,0.0,0.0,0.0,0.0,0.0,0.0,0.0,0.0,0.0,-4.8875,0.0,-4.8086,0.0,0.0,0.0,0.0,0.0,0.0,0.0,0.0,-5.591,-5.7485,-5.8474,-5.9024,-5.8841,0.0,-5.6198,-5.3566,0.0,0.0,0.0,0.0,0.0,0.0,0.0,0.0,-5.0505,-5.2417,-5.506,-5.6932,-5.7923,-5.7997,-5.7997,-5.796,-5.6779,-5.4843,-5.1927,-4.9846,-4.8128,0.0,0.0,0.0,0.0,0.0,0.0,0.0,0.0,0.0,0.0,0.0,0.0,0.0,0.0,0.0,0.0,0.0,0.0,0.0,0.0,0.0,0.0,0.0,-4.9548,0.0,0.0,0.0,0.0,0.0,0.0,0.0,0.0,0.0,-5.7434,-5.8704,-6.0358,-6.232,-6.3243,-6.3782,-6.3743,0.0,0.0,0.0,0.0,0.0,0.0,0.0,-6.6128,-6.6667,-6.659,-6.6859,-6.8205,-7.0283,-7.1629,-7.1014,0.0,0.0,-6.8436,-6.791,-6.8152,-6.8475,-6.8975,-6.9398,-6.9667,-6.9975,-7.0014,0.0,0.0,0.0,0.0,0.0,0.0,0.0,0.0,-5.1406,-5.1019,0.0,-5.0178,0.0,0.0,0.0,0.0,0.0,0.0,0.0,0.0,-6.0041,-6.1618,-6.1728,-6.1691,-6.1287,-6.0504,-5.9669,-5.8208,-5.6144,-5.1155,0.0,0.0,0.0,0.0,0.0,0.0,-5.2443,-5.334,-5.6308,-5.796,-5.8042,-5.8042,-5.8006,-5.8015,-5.6162,-5.4764,-5.3907,-5.2065,-5.0572,-4.9703,-4.818,0.0,0.0,0.0,0.0,0.0,0.0,0.0,0.0,0.0,0.0,0.0,0.0,0.0,0.0,0.0,0.0,0.0,0.0,0.0,0.0,-5.1433,0.0,0.0,0.0,0.0,0.0,0.0,0.0,0.0,0.0,0.0,-6.0896,-6.1627,-6.3012,-6.5397,0.0,0.0,0.0,0.0,-6.4397,-6.3705,-6.4243,-6.4859,-6.4974,-6.6898,-6.8436,-6.8513,0.0,0.0,-7.1168,-7.2437,-7.3053,-7.1398,-7.3168,-7.4476,-7.363,-7.2706,-7.2514,-7.3245,-7.3399,-7.3822,-7.4437,-7.3899,-7.3514,-5.4143,0.0,0.0,0.0,0.0,-5.3083,-5.4191,-5.6218,-5.5421,-5.4711,-5.4179,-5.3959,0.0,0.0,0.0,0.0,0.0,0.0,-5.6614,-5.91,-6.0628,-6.2425,-6.4421,-6.3862,-6.3447,-6.3147,-6.1761,-6.0229,-5.846,-5.5798,-5.2897,-4.9787,0.0,0.0,0.0,0.0,-5.3093,-5.4494,-5.6227,-5.7597,-5.8466,-5.8503,-5.8673,-5.899,-5.7899,-5.6917,-5.6086,-5.5253,-5.3857,-5.1839,-5.0994,0.0,0.0,0.0,0.0,0.0,0.0,0.0,0.0,0.0,0.0,0.0,0.0,0.0,0.0,0.0,0.0,0.0,0.0,0.0,-4.9663,-5.1625,-5.2241,0.0,0.0,0.0,0.0,0.0,0.0,0.0,0.0,0.0,-6.4897,-6.3897,-6.3243,0.0,0.0,-6.3474,-6.2897,-6.4359,-6.5859,-6.6821,0.0,0.0,0.0,-6.9629,-6.9744,-7.0937,-7.2706,-7.3899,-7.363,-7.4514,-7.513,-7.4591,-7.513,-7.5553,-7.5322,-7.5091,-7.5014,-7.5216,-7.5293,-7.5361,-7.5553,-7.5899,-7.5976,-5.6712,-5.506,-5.4417,-5.4612,-5.5281,-5.4846,-5.5915,-5.7956,-5.7145,-5.6692,-5.6573,-5.6424,-5.511,-5.3003,-5.3347,0.0,0.0,0.0,-5.785,-5.9999,-6.0653,-6.2053,-6.3955,-6.3578,-6.3352,-6.3239,-6.1994,-6.0931,-6.0151,-5.8515,-5.6381,-5.379,0.0,0.0,-5.163,-5.3408,-5.4828,-5.5806,-5.7148,-5.8229,-5.8952,-5.899,-5.9102,-5.9389,-5.8765,-5.818,-5.7718,-5.7374,-5.6294,-5.4417,-5.3464,-5.1933,0.0,0.0,0.0,0.0,0.0,0.0,0.0,0.0,0.0,0.0,0.0,-4.9125,0.0,0.0,0.0,0.0,-4.9971,-5.1125,-5.2279,-5.4087,0.0,0.0,0.0,0.0,0.0,0.0,0.0,-6.2743,-6.3666,-6.482,-6.6782,-6.6359,-6.582,-6.5859,-6.5551,-6.5282,-6.5128,0.0,-6.7475,-6.9167,-6.9821,-7.0629,-7.1975,-7.1898,-7.2168,-7.3476,-7.4514,-7.5207,-7.5245,-7.5668,-7.5976,-7.5976,-7.5976,-7.5976,-7.5976,-7.5976,-7.613,-7.6447,-7.6784,-7.6976,-7.7015,-7.7169,-7.713,-5.8694,-5.785,-5.6381,-5.6206,-5.6882,-5.6887,-5.7317,-5.8033,-5.7313,-5.7397,-5.8042,-5.7798,-5.7262,-5.6556,-5.6199,0.0,0.0,-5.7839,-5.8967,-6.0033,-6.0512,-6.1172,-6.1876,-6.1951,-6.1913,-6.18,-6.1082,-6.0909,-6.1171,-5.9712,-5.8807,-5.8457,-5.6202,-5.4993,-5.4879,-5.6368,-5.7136,-5.7143,-5.8593,-5.9389,-5.9458,-5.9492,-5.9492,-5.9526,-5.9079,-5.8835,-5.8863,-5.85,-5.7896,-5.7011,-5.5472,-5.3818,-5.2049,0.0,0.0,0.0,0.0,0.0,0.0,0.0,0.0,0.0,0.0,0.0,0.0,0.0,0.0,0.0,-5.3857,0.0,-5.7165,-5.8088,0.0,0.0,0.0,-5.9973,-6.0089,-6.2243,-6.4012,-6.482,0.0,0.0,-6.7398,0.0,-6.9975,-7.0014,-6.9206,-6.8859,-6.959,-6.909,-6.9283,-7.0898,-7.1168,-7.1552,-7.2629,-7.3745,-7.4822,-7.563,-7.5976,-7.5938,-7.5938,-7.5976,-7.5976,-7.5976,-7.5976,-7.5976,-7.5976,-7.5976,-7.6245,-7.6976,-7.7669,-7.8169,-7.8054,-7.7553,-7.7092,-5.818,-5.796,-5.7593,-5.7519,-5.7712,-5.774,-5.8189,-5.886,-5.8704,-5.8731,-5.8961,-5.9208,-5.9061,-5.8646,-5.8562,-5.8603,-5.8727,-5.9616,-6.0377,-6.1081,-6.1785,-6.24,-6.2946,-6.2946,-6.264,-6.2027,-6.1835,-6.1467,-6.0929,-6.0507,-6.0287,-6.0181,-5.9585,-5.8371,-5.6552,-5.7712,-5.8349,-5.8386,-5.903,-5.9559,-5.9916,-6.0283,-6.0482,-6.0482,-5.9753,-5.9317,-5.9317,-5.8658,-5.7896,-5.7011,-5.5972,-5.4664,-5.2972,-5.0471,0.0,0.0,0.0,0.0,0.0,0.0,0.0,0.0,0.0,-5.378,-4.9702,0.0,-5.4587,0.0,-5.6934,-5.8742,-5.9781,-6.0666,0.0,0.0,-6.2743,-6.3897,-6.5166,-6.6397,-6.7282,-6.7475,-6.8975,-6.9975,-7.0014,-7.1514,-7.2591,-7.2552,-7.1283,-7.0167,-6.9821,-7.0667,-7.1668,-7.2668,-7.3322,-7.4091,-7.4861,-7.5399,-7.5745,-7.5976,-7.5976,-7.5976,-7.5976,-7.5976,-7.5976,-7.5976,-7.5976,-7.5976,-7.5976,-7.5976,-7.6053,-7.6284,-7.6476,-7.6592,-7.6592,-7.6438,-7.6322,-5.7666,-5.7997,-5.7997,-5.7997,-5.7997,-5.7997,-5.8263,-5.8676,-5.8676,-5.8667,-5.8704,-5.9384,-5.9807,-6.0044,-6.0006,-5.993,-5.9786,-6.0396,-6.0729,-6.0858,-6.1497,-6.1959,-6.2204,-6.2204,-6.1973,-6.1512,-6.1512,-6.1281,-6.0819,-6.0781,-6.0781,-6.0781,-6.0781,-6.0104,-5.875,-5.935,-5.9662,-5.9702,-5.9932,-6.0161,-6.043,-6.0647,-6.0627,-6.0242,-5.9742,-5.9319,-5.8973,-5.855,-5.7896,-5.7049,-5.6549,-5.5665,-5.4357,-5.2664,-5.1471,0.0,0.0,0.0,0.0,0.0,0.0,0.0,0.0,0.0,0.0,0.0,-5.755,0.0,-6.0281,0.0,-6.2435,-6.3589,-6.4512,-6.4936,-6.6128,-6.7398,-6.8629,-6.9552,-7.0244,-7.0629,-7.1514,-7.2052,-7.2091,-7.3283,-7.4168,-7.4168,-7.3745,-7.2937,-7.1745,-7.2245,-7.3091,-7.3899,-7.4399,-7.5014,-7.5861,-7.5976,-7.5976,-7.5976,-7.5976,-7.5976,-7.5976,-7.5976,-7.5976,-7.5976,-7.5976,-7.5976,-7.5976,-7.5976,-7.5976,-7.5976,-7.5976,-7.5976,-7.5976,-7.5976,-7.5976,-5.7042,-5.7703,-5.7703,-5.7776,-5.785,-5.785,-5.7886,-5.7997,-5.7997,-5.8051,-5.8238,-5.9065,-5.9916,-6.0781,-6.0734,-6.0503,-6.0142,-6.0473,-6.0435,-6.0142,-6.0512,-6.0742,-6.0781,-6.0781,-6.0781,-6.0781,-6.0781,-6.0781,-6.0781,-6.0781,-6.0781,-6.0781,-6.0781,-6.0781,-6.0781,-6.0781,-6.0781,-6.0781,-6.0781,-6.0781,-6.0781,-6.0781,-6.0358,-5.955,-5.9396,-5.8973,-5.8204,-5.8127,-5.778,-5.7049,-5.7088,-5.6819,-5.6049,-5.528,-5.4878,0.0,-5.4049,0.0,0.0,0.0,0.0,0.0,0.0,0.0,0.0,-5.9742,-6.0781,-6.1512,-6.3858,-6.5359,-6.559,-6.6821,-6.7731,-6.7859,-6.9167,-7.036,-7.1052,-7.1975,-7.2822,-7.3514,-7.3745,-7.386,-7.3745,-7.4591,-7.5236,-7.5258,-7.5813,-7.5543,-7.4114,-7.379,-7.4168,-7.4822,-7.4861,-7.5245,-7.5822,-7.5976,-7.5976,-7.5976,-7.5976,-7.5976,-7.5976,-7.5976,-7.6015,-7.6169,-7.6092,-7.6053,-7.613,-7.6092,-7.5976,-7.5976,-7.5976,-7.5976,-7.5976,-7.5976,-7.5976,-5.5904,-5.6051,-5.6017,-5.642,-5.7024,-5.7061,-5.74,-5.7997,-5.7997,-5.8418,-5.9102,-5.9319,-5.9916,-6.0757,-6.0391,-6.0188,-6.0065,-5.9796,-5.9835,-6.0104,-6.0181,-6.0435,-6.0781,-6.0781,-6.0781,-6.0781,-6.0781,-6.0781,-6.0781,-6.0781,-6.0781,-6.0781,-6.0781,-6.0781,-6.0781,0.0,0.0,0.0,-6.0781,-6.0781,-6.0781,-6.0781,-6.0396,-5.955,-5.8896,0.0,-5.728,-5.7242,-5.7165,-5.7049,-5.7665,0.0,0.0,0.0,0.0,0.0,0.0,0.0,0.0,0.0,0.0,0.0,-6.189,-6.1643,-6.0573,-6.3589,-6.5743,-6.5936,-6.777,-6.9528,-7.0848,-7.076,-7.0952,-7.1645,-7.203,-7.2261,-7.2415,-7.3763,-7.4543,-7.3986,-7.513,-7.5736,-7.511,-7.5736,-7.6263,-7.6264,-7.6454,-7.6143,-7.5137,-7.5359,-7.5726,-7.5784,-7.5668,-7.5784,-7.5976,-7.5976,-7.5976,-7.5976,-7.5976,-7.6015,-7.6015,-7.6015,-7.6284,-7.6823,-7.6476,-7.6245,-7.689,-7.6506,-7.6053,-7.6015,-7.6015,-7.5976,-7.5976,-7.6015,-7.5976,-5.5244,0.0,-5.5603,-5.5815,0.0,-5.6612,-5.7155,-5.7776,-5.8189,-5.8878,-5.9722,-5.976,-6.0132,-6.0781,-6.0572,-6.0453,-6.0437,-6.0179,-6.0208,-6.0466,-6.0444,-6.0589,-6.0781,-6.0781,-6.0781,-6.0781,-6.0781,-6.0781,-6.0781,-6.0781,-6.1012,-6.142,-6.1458,-6.1458,-6.142,-6.1012,-6.0781,-6.0781,-6.0781,-6.0781,-6.0781,-6.0781,-6.0396,-5.955,0.0,0.0,0.0,0.0,0.0,0.0,0.0,0.0,0.0,0.0,0.0,-6.0911,-6.075,-6.1158,-6.2438,-6.3013,-6.4174,-6.6178,-6.7573,-6.7503,-6.5611,-6.7795,-6.9643,-7.0452,-7.1453,-7.2315,-7.3119,-7.2559,-7.2463,-7.3256,-7.3024,-7.3062,-7.3896,-7.4788,-7.5309,-7.5382,-7.604,-7.6411,-7.5985,-7.6391,-7.6723,-7.6737,-7.6803,-7.6699,-7.6221,-7.6212,-7.6236,-7.6015,-7.5976,-7.5976,-7.5976,-7.5976,-7.6015,-7.6015,-7.6092,-7.613,-7.613,-7.613,-7.6438,-7.7169,-7.6669,-7.6361,-7.7545,-7.7207,-7.6746,-7.713,-7.7246,-7.7053,-7.6746,-7.6361,-7.613,-5.4583,-5.517,-5.5184,-5.5294,-5.5471,-5.6337,-5.7175,-5.8013,0.0,0.0,0.0,-6.0103,-6.0365,-6.0781,-6.0734,-6.0655,-6.0676,-6.0585,-6.0619,-6.0671,-6.0686,-6.0704,-6.0781,-6.0781,-6.0781,-6.0781,-6.0781,-6.0781,-6.0819,-6.0973,-6.1381,-6.2059,-6.2252,-6.2305,-6.2267,-6.1612,-6.1243,-6.1243,-6.1089,-6.1012,-6.1012,-6.1166,-6.0858,-5.9973,-5.9973,-5.9588,-5.8781,-5.8896,-5.8627,-5.7973,-5.9511,-6.0435,-6.0535,-6.2213,-6.3892,-6.5288,-6.5693,-6.6488,-6.7901,-6.8373,-6.9312,-7.0881,-7.23,-7.2462,-7.0992,-7.1525,-7.2583,-7.4088,-7.4268,-7.4359,-7.4472,-7.3821,-7.3609,-7.4272,-7.3726,-7.3882,-7.4973,-7.5491,-7.5869,-7.6403,-7.6559,-7.6715,-7.6702,-7.6845,-7.6954,-7.6962,-7.7079,-7.7098,-7.6842,-7.6503,-7.6322,-7.6322,-7.6361,-7.6284,-7.6245,-7.6284,-7.6169,-7.6092,-7.6322,-7.6534,-7.6569,-7.6739,-7.7147,-7.8006,-7.7169,-7.7207,-7.816,-7.7784,-7.7515,-7.7946,-7.8054,-7.7861,-7.7284,-7.6823,-7.6553,-5.3445,-5.3555,-5.3518,-5.3928,-5.4675,-5.5828,-5.7676,-5.9677,-5.9419,-5.962,-6.0103,-6.0103,-6.0365,-6.0757,-6.0365,-6.0185,-6.0163,-5.9792,-5.9785,0.0,-6.0195,-6.0435,-6.0781,-6.0781,-6.0781,-6.0781,-6.0781,-6.0781,-6.0858,-6.155,-6.1997,-6.2213,-6.2805,-6.3128,-6.3128,-6.3012,-6.2935,-6.2935,-6.2281,-6.1897,-6.1935,-6.2589,-6.2551,-6.1781,-6.1704,-6.132,-6.0512,-6.1127,-6.1512,-6.1435,-6.2974,-6.396,-6.42,-6.5881,-6.7099,-6.7486,-6.8369,-6.898,-6.918,-7.0547,-7.2176,-7.378,-7.4195,-7.408,-7.3542,-7.3566,-7.4071,-7.5043,-7.5282,-7.5666,-7.6302,-7.5819,-7.539,-7.5586,-7.5508,-7.5312,-7.4922,-7.6015,-7.664,-7.6172,-7.6673,-7.7109,-7.707,-7.7109,-7.7148,-7.7148,-7.7287,-7.7137,-7.6863,-7.6427,-7.6573,-7.6976,-7.7092,-7.713,-7.7092,-7.7092,-7.6861,-7.6322,-7.689,-7.7317,-7.7447,-7.8025,-7.8651,-7.9538,-7.8767,-7.8438,-7.8554,-7.7823,-7.7323,-7.6938,-7.6823,-7.6746,-7.6754,-7.7062,-7.74,-5.3225,-5.3225,-5.3225,-5.3408,-5.3865,-5.5836,-5.7958,-6.0042,-6.0147,-6.0283,-6.0482,-6.0482,-6.0597,-6.0757,-6.0597,-6.0482,-6.045,-6.0261,-6.0288,-6.045,-6.0512,-6.0589,-6.0781,-6.0781,-6.0781,-6.0781,-6.0781,-6.105,-6.1512,-6.1897,-6.2574,-6.3383,-6.3858,-6.3988,-6.3949,-6.3526,-6.332,-6.332,-6.2935,-6.2743,-6.2743,-6.3089,-6.3128,-6.2743,-6.2743,-6.2589,-6.2166,-6.2551,-6.2974,-6.3435,-6.4628,-6.5551,-6.6101,-6.7393,-6.8472,-6.9106,-6.9699,-7.0469,-7.1484,-7.3164,-7.4453,-7.5234,-7.5763,-7.593,-7.5768,-7.53,-7.5371,-7.623,-7.642,-7.6612,-7.6988,-7.637,-7.6094,-7.6562,-7.6211,-7.5937,-7.6094,-7.664,-7.7031,-7.6719,-7.6953,-7.7187,-7.7226,-7.7226,-7.7226,-7.7226,-7.7537,-7.7846,-7.793,-7.7846,-7.766,-7.7361,-7.7284,-7.7515,-7.7823,-7.7669,-7.7361,-7.7053,-7.7121,-7.7263,-7.7401,-7.8108,-7.8858,-7.9388,-7.9134,-7.8968,-7.9054,-7.8631,-7.8015,-7.7784,-7.7977,-7.8092,-7.7908,-7.8254,-7.8592,-5.3225,-5.3225,-5.3225,-5.3561,-5.4252,-5.6121,-5.825,-6.0219,-6.0627,-6.0781,-6.0781,-6.0781,-6.0781,-6.0781,-6.0781,-6.0781,-6.0781,-6.0781,-6.0781,-6.0781,-6.0781,-6.0781,-6.0781,-6.0781,-6.0781,-6.0819,-6.0973,-6.1435,-6.205,-6.2474,-6.3421,-6.4768,-6.4897,-6.491,-6.4872,-6.4243,-6.3897,-6.3897,-6.3897,-6.3782,-6.3589,-6.3782,-6.3897,-6.3897,-6.3897,-6.3974,-6.4128,-6.4166,-6.4551,-6.5436,-6.6282,-6.7051,-6.7693,-6.8635,-6.9594,-7.0425,-7.0693,-7.1601,-7.3437,-7.5039,-7.5976,-7.6211,-7.6797,-7.7187,-7.7148,-7.6601,-7.6445,-7.707,-7.7148,-7.7187,-7.7148,-7.664,-7.6484,-7.707,-7.664,-7.6484,-7.707,-7.7226,-7.7226,-7.7226,-7.7226,-7.7226,-7.7226,-7.7226,-7.7305,-7.7578,-7.804,-7.8572,-7.9047,-7.9161,-7.8699,-7.8054,-7.7784,-7.8169,-7.8707,-7.8515,-7.813,-7.7861,-7.766,-7.7602,-7.7633,-7.7997,-7.8525,-7.9087,-7.9183,-7.9037,-7.9246,-7.9054,-7.8681,-7.8436,-7.849,-7.8805,-7.8661,-7.8746,-7.9092,-5.3225,-5.3225,-5.3225,-5.4528,-5.6459,-5.6863,-5.8404,-6.055,-6.0781,-6.0781,-6.0781,-6.0781,-6.0781,-6.0781,-6.0781,-6.0781,-6.0781,-6.0781,-6.0781,-6.0781,-6.0781,-6.0781,-6.0819,-6.0819,-6.0781,-6.0935,-6.1627,-6.205,-6.232,-6.3666,-6.482,-6.5667,-6.5782,-6.5782,-6.5743,-6.5667,-6.5628,-6.5628,-6.5667,-6.5282,-6.4589,-6.5243,-6.5667,-6.5667,-6.5628,-6.6013,-6.659,-6.6744,-6.7128,-6.8013,-6.8821,-6.9398,-6.9694,-7.0452,-7.1094,-7.1505,-7.1624,-7.2422,-7.4297,-7.5351,-7.625,-7.6992,-7.7109,-7.7226,-7.7226,-7.7109,-7.707,-7.7187,-7.7187,-7.7148,-7.7187,-7.7031,-7.6953,-7.7031,-7.707,-7.7109,-7.7187,-7.7226,-7.7226,-7.7226,-7.7226,-7.7226,-7.7226,-7.7226,-7.75,-7.8164,-7.8359,-7.8709,-7.9323,-7.9528,-7.9336,-7.9114,-7.9238,-7.9546,-7.9738,-7.9931,-7.9199,-7.8391,-7.8672,-7.858,-7.8377,-7.8689,-7.9249,-7.902,-7.9656,-7.9576,-7.8592,-7.8246,-7.8656,-7.7976,-7.7595,-7.7179,-7.8045,-7.8284,-7.8169,-5.3225,-5.3225,-5.3225,-5.4381,-5.6125,-5.6787,-5.815,-5.9988,-6.0589,-6.0781,-6.0781,-6.0781,-6.0781,-6.0781,-6.0781,-6.0781,-6.0781,-6.0781,-6.0781,-6.0781,-6.0781,-6.105,-6.1512,-6.155,-6.1781,-6.2281,-6.2627,-6.3089,-6.3782,-6.5282,-6.6051,-6.5974,-6.6359,-6.6397,-6.5936,-6.5897,-6.5897,-6.5897,-6.6359,-6.6436,-6.609,-6.5936,-6.6128,-6.6551,-6.6628,-6.7013,-6.7782,-6.7859,-6.8282,-6.909,-6.9513,-6.9975,-7.0629,-7.0898,-7.1464,-7.2418,-7.3563,-7.4531,-7.5312,-7.6172,-7.6836,-7.7187,-7.7226,-7.7226,-7.7226,-7.7226,-7.7226,-7.7148,-7.6719,-7.6445,-7.6445,-7.6445,-7.6445,-7.6523,-7.6875,-7.7226,-7.7226,-7.7226,-7.7226,-7.7226,-7.7226,-7.7226,-7.7226,-7.7226,-7.7578,-7.8359,-7.8789,-7.9336,-8.0039,-8.0545,-8.0536,-8.0051,-8.0063,-7.9918,-7.9635,-7.9138,-7.8938,-7.8854,-7.8399,-7.8026,-7.8457,-7.8928,-7.9278,-7.8989,-7.9913,-7.9969,-7.8485,-7.881,-7.9153,-7.7948,-7.7481,-7.7626,-7.9623,-7.9361,-7.9054,-5.3225,-5.3225,-5.3298,-5.427,-5.5747,-5.6483,-5.7828,-5.9465,-6.0181,-6.0589,-6.0781,-6.0781,-6.0781,-6.0781,-6.0781,-6.0781,-6.0781,-6.0781,-6.0781,-6.0819,-6.105,-6.1512,-6.2089,-6.232,-6.2704,-6.3243,-6.3551,-6.4128,-6.5013,-6.6359,-6.6782,-6.6436,-6.709,-6.7051,-6.632,-6.6436,-6.6436,-6.632,-6.7051,-6.7436,-6.7359,-6.6898,-6.6859,-6.7398,-6.7475,-6.7859,-6.8706,-6.8783,-6.9167,-6.9975,-7.0244,-7.0706,-7.1398,-7.1552,-7.2122,-7.3264,-7.4927,-7.5898,-7.5898,-7.6719,-7.7226,-7.7226,-7.7226,-7.7226,-7.7226,-7.7226,-7.7226,-7.7148,-7.6406,-7.5976,-7.625,-7.625,-7.625,-7.6289,-7.6875,-7.7187,-7.7226,-7.7226,-7.7226,-7.7226,-7.7226,-7.7226,-7.7226,-7.7226,-7.75,-7.8359,-7.918,-7.9961,-8.0703,-8.1403,-8.1602,-8.0442,-8.0186,-7.9951,-7.9288,-7.9261,-7.9092,-7.8998,-7.8642,-7.8252,-7.823,-7.869,-7.8869,-7.8525,-8.0038,-8.04,-7.9015,-7.9185,-7.9439,-7.7726,-7.7314,-7.8199,-7.9554,-7.9631,-7.9708,-5.3225,-5.3261,-5.3634,-5.4496,-5.5747,-5.6262,-5.7588,-5.9427,-5.9604,-6.0027,-6.0742,-6.0781,-6.0781,-6.0781,-6.0781,-6.0781,-6.0781,-6.0781,-6.0819,-6.0935,-6.1642,-6.2065,-6.2166,-6.2897,-6.332,-6.3589,-6.4243,-6.5013,-6.5859,-6.6705,-6.7064,-6.7114,-6.791,-6.7898,-6.7269,-6.7782,-6.7859,-6.7205,-6.7898,-6.8359,-6.8359,-6.8321,-6.8321,-6.8398,-6.8359,-6.8744,-6.9513,-6.9667,-7.0014,-7.0821,-7.1552,-7.2052,-7.2206,-7.2937,-7.3572,-7.4071,-7.5227,-7.5937,-7.6055,-7.6758,-7.7226,-7.7226,-7.7226,-7.7226,-7.7226,-7.7226,-7.7226,-7.7187,-7.6484,-7.6289,-7.6914,-7.6875,-7.6914,-7.6953,-7.7109,-7.7187,-7.7226,-7.7226,-7.7226,-7.7226,-7.7226,-7.7226,-7.7226,-7.7226,-7.7578,-7.8281,-7.914,-7.9883,-8.0586,-8.1562,-8.1278,-8.0234,-7.971,-7.9621,-7.9461,-7.9211,-7.9563,-7.957,-7.9062,-7.9101,-7.8496,-7.8045,-7.7977,-7.8169,-7.9477,-7.99,-7.9315,-7.8998,-7.8912,-7.8207,-7.7852,-7.8584,-7.94,-7.8823,-7.9131,-5.3359,-5.3639,-5.4059,-5.464,-5.5423,-5.6626,-5.7802,-5.8796,-5.9896,-6.0512,-6.0742,-6.0781,-6.0781,-6.0781,-6.0781,-6.0781,-6.0781,-6.0781,-6.1089,-6.1612,-6.195,-6.268,-6.368,-6.4012,-6.4474,-6.4974,-6.5282,-6.5859,-6.6667,-6.7513,-6.7936,-6.8064,-6.8821,-6.8821,-6.8141,-6.8218,-6.8244,-6.8052,-6.8783,-6.9244,-6.9283,-6.9744,-7.0014,-6.9975,-6.9513,-6.9629,-7.0437,-7.0475,-7.0629,-7.0898,-7.1706,-7.2245,-7.2524,-7.3947,-7.4885,-7.5133,-7.6076,-7.6719,-7.6758,-7.7031,-7.7226,-7.7226,-7.7226,-7.7226,-7.7226,-7.7226,-7.7226,-7.7148,-7.6953,-7.6953,-7.6953,-7.6719,-7.6367,-7.6445,-7.6875,-7.7226,-7.7226,-7.7226,-7.7226,-7.7226,-7.7226,-7.7226,-7.7226,-7.7226,-7.7344,-7.7656,-7.8398,-7.9062,-7.9414,-8.0117,-8.0273,-7.9297,-7.8903,-7.8689,-7.8038,-7.8163,-7.8398,-7.8789,-7.8828,-7.8945,-7.8659,-7.9169,-7.9306,-7.9054,-7.9862,-8.0131,-7.9785,-7.89,-7.8784,-7.8631,-7.8323,-7.8554,-7.9054,-7.8861,-7.9477,-5.3526,-5.3833,-5.4464,-5.4837,-5.5252,-5.6433,-5.7495,-5.8373,-5.9488,-6.0296,-6.0704,-6.0781,-6.0781,-6.0781,-6.0781,-6.0781,-6.0781,-6.0819,-6.1266,-6.2074,-6.2373,-6.3232,-6.4449,-6.4897,-6.532,-6.582,-6.5897,-6.632,-6.7128,-6.7975,-6.8513,-6.8859,-6.9667,-6.964,-6.8998,-6.9064,-6.9129,-6.9052,-6.9667,-7.009,-7.0167,-7.0591,-7.0898,-7.0821,-7.036,-7.0321,-7.0898,-7.0898,-7.1052,-7.136,-7.2129,-7.2937,-7.3755,-7.5118,-7.598,-7.6096,-7.6731,-7.7226,-7.7226,-7.7226,-7.7226,-7.7226,-7.7226,-7.7226,-7.7226,-7.7226,-7.7226,-7.7226,-7.7226,-7.7226,-7.7109,-7.668,-7.6328,-7.6367,-7.6875,-7.7187,-7.7226,-7.7226,-7.7226,-7.7226,-7.7226,-7.7226,-7.7226,-7.7226,-7.7226,-7.7226,-7.7969,-7.8476,-7.8594,-7.914,-7.9414,-7.8672,-7.8555,-7.8164,-7.7695,-7.7617,-7.8359,-7.8789,-7.9062,-7.9101,-7.9364,-8.0043,-8.0299,-8.0123,-8.0208,-8.0516,-8.0131,-7.9169,-7.8861,-7.8784,-7.8707,-7.8823,-7.9054,-7.9131,-7.9746,-5.3795,-5.3979,-5.4769,-5.5114,-5.5223,-5.5782,-5.6797,-5.8174,-5.8481,-5.9465,-6.0704,-6.0781,-6.0781,-6.0781,-6.0781,-6.0819,-6.0896,-6.0935,-6.142,-6.2252,-6.2988,-6.3809,-6.4757,-6.5436,-6.5782,-6.5897,-6.5936,-6.6397,-6.7244,-6.8129,-6.8898,-6.9732,-7.0398,-7.0371,-6.9717,-7.0283,-7.0398,-7.0014,-7.0437,-7.0821,-7.0898,-7.0898,-7.0898,-7.0898,-7.0821,-7.0821,-7.0898,-7.0898,-7.1245,-7.208,-7.2937,-7.4322,-7.5716,-7.6338,-7.6633,-7.6761,-7.7072,-7.7187,-7.7187,-7.7187,-7.7187,-7.7226,-7.7226,-7.7226,-7.7226,-7.7226,-7.7226,-7.7226,-7.7226,-7.7226,-7.7226,-7.7109,-7.707,-7.7187,-7.7187,-7.7187,-7.7226,-7.7226,-7.7226,-7.7226,-7.7226,-7.7226,-7.7226,-7.7226,-7.7226,-7.7344,-7.7812,-7.832,-7.832,-7.8867,-7.9101,-7.8672,-7.8398,-7.8164,-7.7656,-7.7344,-7.832,-7.914,-7.9375,-7.9539,-7.9929,-8.0493,-8.0521,-8.04,-8.0592,-8.0823,-8.0477,-7.9631,-7.9477,-7.94,-7.9285,-7.9015,-7.9169,-7.9323,-7.9669,-5.4452,-5.476,-5.5275,-5.5503,-5.5605,-5.6275,-5.728,-5.8296,-5.885,-5.9796,-6.0666,-6.0781,-6.0781,-6.0781,-6.0819,-6.1127,-6.1666,-6.1728,-6.2136,-6.2945,-6.382,-6.4641,-6.5397,-6.5782,-6.5897,-6.5974,-6.6474,-6.7167,-6.8013,-6.8859,-6.9744,-7.0437,-7.0783,-7.0783,-7.0486,-7.0783,-7.0706,-7.0591,-7.0744,-7.0898,-7.0898,-7.0898,-7.0898,-7.0898,-7.0898,-7.0898,-7.0898,-7.0898,-7.1321,-7.2157,-7.3014,-7.4361,-7.5898,-7.6372,-7.6477,-7.6651,-7.6767,-7.6855,-7.6992,-7.6992,-7.707,-7.7148,-7.7226,-7.7226,-7.7226,-7.7226,-7.7226,-7.7226,-7.7226,-7.7226,-7.7226,-7.7226,-7.7226,-7.7226,-7.7226,-7.7226,-7.7226,-7.7226,-7.7226,-7.7226,-7.7226,-7.7226,-7.7226,-7.7226,-7.7226,-7.7226,-7.75,-7.7656,-7.7695,-7.793,-7.793,-7.7656,-7.789,-7.8164,-7.7617,-7.7656,-7.8633,-7.9337,-7.9579,-8.0012,-8.0417,-8.071,-8.0733,-8.0746,-8.0939,-8.09,-8.0516,-8.0285,-8.0054,-7.9554,-7.9092,-7.9092,-7.9361,-7.9708,-8.0092,-5.4731,-5.5134,-5.5554,-5.5703,-5.5742,-5.6302,-5.7225,-5.828,-5.8812,-5.9719,-6.0627,-6.0781,-6.0781,-6.0781,-6.0781,-6.1281,-6.205,-6.2421,-6.2998,-6.3753,-6.4282,-6.5064,-6.5782,-6.5897,-6.609,-6.6397,-6.6859,-6.7705,-6.8859,-6.9436,-7.009,-7.0783,-7.0898,-7.0898,-7.0898,-7.0898,-7.0898,-7.0898,-7.0898,-7.0898,-7.0898,-7.0898,-7.0898,-7.0898,-7.0898,-7.0898,-7.0937,-7.1168,-7.1772,-7.2696,-7.3773,-7.5053,-7.6198,-7.6314,-7.6389,-7.6573,-7.6614,-7.6665,-7.6866,-7.6914,-7.6992,-7.7148,-7.7226,-7.7226,-7.7226,-7.7226,-7.7226,-7.7226,-7.7226,-7.7226,-7.7226,-7.7226,-7.7226,-7.7226,-7.7226,-7.7226,-7.7226,-7.7226,-7.7226,-7.7226,-7.7226,-7.7226,-7.7226,-7.7226,-7.7226,-7.7226,-7.7226,-7.7226,-7.7226,-7.7226,-7.7226,-7.7265,-7.7539,-7.7617,-7.7422,-7.8008,-7.8984,-7.9432,-7.9787,-8.0318,-8.0821,-8.1076,-8.117,-8.0977,-8.1054,-8.1054,-8.0746,-8.0631,-8.04,-7.9708,-7.9246,-7.9592,-8.0015,-8.0208,-8.0477,-5.4693,-5.516,-5.5554,-5.5703,-5.5703,-5.5857,-5.6857,-5.8165,-5.8466,-5.9388,-6.0589,-6.0781,-6.0781,-6.0781,-6.0781,-6.132,-6.2166,-6.2858,-6.3743,-6.4436,-6.4795,-6.5218,-6.582,-6.5897,-6.6205,-6.6744,-6.7128,-6.8052,-6.9283,-6.9706,-7.0129,-7.0821,-7.0898,-7.0898,-7.0898,-7.0898,-7.0898,-7.0898,-7.0898,-7.0898,-7.0898,-7.0898,-7.0898,-7.0898,-7.0898,-7.0937,-7.1206,-7.1975,-7.2773,-7.3647,-7.5005,-7.5899,-7.6207,-7.6284,-7.637,-7.6514,-7.6544,-7.6668,-7.6828,-7.6843,-7.6953,-7.7187,-7.7226,-7.7226,-7.7226,-7.7226,-7.7226,-7.7226,-7.7226,-7.7226,-7.7226,-7.7226,-7.7226,-7.7226,-7.7226,-7.7226,-7.7226,-7.7148,-7.7031,-7.7148,-7.7187,-7.7148,-7.7148,-7.7226,-7.7226,-7.7226,-7.7226,-7.7226,-7.7226,-7.7226,-7.7226,-7.7305,-7.75,-7.7422,-7.7379,-7.8692,-7.9492,-7.9314,-7.9869,-8.0684,-8.1031,-8.1223,-8.1323,-8.117,-8.1093,-8.1054,-8.1016,-8.0862,-8.0823,-8.0554,-8.04,-8.0516,-8.0592,-8.0708,-8.0746,-5.4334,-5.5516,-5.5682,-5.5703,-5.578,-5.634,-5.7264,-5.8319,-5.8927,-5.9758,-6.0666,-6.0781,-6.0781,-6.0781,-6.0819,-6.1589,-6.2743,-6.3166,-6.4166,-6.5397,-6.5551,-6.5628,-6.5859,-6.5897,-6.6051,-6.6436,-6.7475,-6.8282,-6.8821,-6.9975,-7.0629,-7.0898,-7.0898,-7.0898,-7.0898,-7.0898,-7.0898,-7.0898,-7.0898,-7.0898,-7.0898,-7.0898,-7.0898,-7.0898,-7.0898,-7.1245,-7.1937,-7.3283,-7.4091,-7.4427,-7.5361,-7.6015,-7.6053,-7.6092,-7.613,-7.6169,-7.6207,-7.6322,-7.6596,-7.6708,-7.6864,-7.7148,-7.7226,-7.7226,-7.7226,-7.7226,-7.7226,-7.7226,-7.7226,-7.7226,-7.7226,-7.7226,-7.7226,-7.7226,-7.7226,-7.7226,-7.7109,-7.664,-7.6445,-7.6992,-7.664,-7.668,-7.7031,-7.7226,-7.7226,-7.7226,-7.7226,-7.7226,-7.7226,-7.7226,-7.7226,-7.7461,-7.7617,-7.7461,-7.7831,-7.9185,-7.9807,-7.9336,-7.9939,-8.1054,-8.1193,-8.1201,-8.1208,-8.1131,-8.1093,-8.1093,-8.1093,-8.1016,-8.1093,-8.1093,-8.1016,-8.0823,-8.09,-8.0977,-8.0977,-5.4161,-5.5703,-5.5703,-5.5703,-5.5818,-5.6609,-5.7495,-5.8335,-5.9142,-5.9988,-6.0666,-6.0781,-6.0781,-6.0781,-6.0819,-6.1743,-6.3166,-6.332,-6.4282,-6.5667,-6.5859,-6.5859,-6.5897,-6.5897,-6.6244,-6.7013,-6.7936,-6.8783,-6.9513,-7.0475,-7.086,-7.0898,-7.0898,-7.0898,-7.0898,-7.0898,-7.0898,-7.0898,-7.0898,-7.0898,-7.0898,-7.0898,-7.0898,-7.0898,-7.0937,-7.1437,-7.2706,-7.4014,-7.4668,-7.4861,-7.5515,-7.5976,-7.5976,-7.5976,-7.5976,-7.5976,-7.6092,-7.6284,-7.6563,-7.6668,-7.6869,-7.7148,-7.7226,-7.7226,-7.7226,-7.7226,-7.7226,-7.7226,-7.7226,-7.7226,-7.7226,-7.7226,-7.7226,-7.7226,-7.7226,-7.7226,-7.7226,-7.6797,-7.6719,-7.6914,-7.6797,-7.6562,-7.7148,-7.7187,-7.7226,-7.7226,-7.7226,-7.7226,-7.7226,-7.7226,-7.7226,-7.7422,-7.7597,-7.7523,-7.7534,-7.8613,-7.9438,-7.9131,-8.0054,-8.1208,-8.1131,-8.1093,-8.1131,-8.1093,-8.1093,-8.1093,-8.1093,-8.1093,-8.1093,-8.1093,-8.1093,-8.1093,-8.1093,-8.1093,-8.1093,-5.4085,-5.5703,-5.5703,-5.5703,-5.5857,-5.6746,-5.7627,-5.8366,-5.9311,-6.0104,-6.0666,-6.0781,-6.0781,-6.0781,-6.1012,-6.1858,-6.3281,-6.3512,-6.4474,-6.5474,-6.5897,-6.5974,-6.6167,-6.6167,-6.6782,-6.7821,-6.8321,-6.9321,-7.0167,-7.0706,-7.0898,-7.0898,-7.0898,-7.0898,-7.0898,-7.0898,-7.0898,-7.0898,-7.0898,-7.0898,-7.0898,-7.0898,-7.0898,-7.0937,-7.1398,-7.2168,-7.3399,-7.4322,-7.4784,-7.4861,-7.563,-7.5976,-7.6053,-7.6053,-7.6053,-7.613,-7.6245,-7.6438,-7.6621,-7.6784,-7.6981,-7.7148,-7.7226,-7.7226,-7.7226,-7.7226,-7.7226,-7.7226,-7.7226,-7.7226,-7.7226,-7.7226,-7.7226,-7.7226,-7.7226,-7.7226,-7.7187,-7.7148,-7.7109,-7.7148,-7.7148,-7.707,-7.7187,-7.7226,-7.7226,-7.7226,-7.7226,-7.7226,-7.7226,-7.7226,-7.7187,-7.7148,-7.7382,-7.7544,-7.7651,-7.7891,-7.8477,-7.8861,-8.0169,-8.1093,-8.0862,-8.0862,-8.1016,-8.1093,-8.1093,-8.1093,-8.1093,-8.1093,-8.1093,-8.1093,-8.1093,-8.1093,-8.1093,-8.1093,-8.1093,-5.3617,-5.5703,-5.5703,-5.5703,-5.5955,-5.7324,-5.811,-5.8404,-5.9873,-6.0589,-6.0781,-6.0781,-6.0781,-6.0819,-6.1473,-6.2397,-6.332,-6.3974,-6.4922,-6.5743,-6.5897,-6.6282,-6.6705,-6.6859,-6.709,-6.7782,-6.8859,-6.959,-7.0052,-7.0629,-7.0898,-7.0898,-7.0898,-7.0898,-7.0898,-7.0975,-7.0898,-7.0898,-7.0937,-7.0975,-7.0898,-7.0937,-7.0937,-7.1014,-7.2091,-7.3322,-7.4168,-7.4591,-7.5014,-7.563,-7.5976,-7.613,-7.613,-7.6303,-7.6332,-7.637,-7.6467,-7.6621,-7.6775,-7.6878,-7.7,-7.7148,-7.7226,-7.7226,-7.7226,-7.7226,-7.7226,-7.7226,-7.7226,-7.7226,-7.7226,-7.7226,-7.7226,-7.7226,-7.7226,-7.7226,-7.7109,-7.664,-7.664,-7.6914,-7.6719,-7.6445,-7.7109,-7.7187,-7.7226,-7.7226,-7.7226,-7.7226,-7.7187,-7.7187,-7.7109,-7.7042,-7.725,-7.737,-7.7169,-7.74,-7.8054,-7.8554,-7.9785,-8.0939,-8.0746,-8.0631,-8.0785,-8.0977,-8.1093,-8.1093,-8.1093,-8.1093,-8.1093,-8.1093,-8.1093,-8.1093,-8.1093,-8.1093,-8.1093,-5.3465,-5.5665,-5.5703,-5.5703,-5.5994,-5.7538,-5.8303,-5.8619,-6.0065,-6.0781,-6.0781,-6.0781,-6.0781,-6.0858,-6.1704,-6.2512,-6.3474,-6.4628,-6.5461,-6.5936,-6.6244,-6.6705,-6.7244,-6.7936,-6.8359,-6.8475,-6.9206,-6.9821,-7.0283,-7.0629,-7.0898,-7.0898,-7.0898,-7.0898,-7.1014,-7.1283,-7.1283,-7.1206,-7.1745,-7.1783,-7.1052,-7.1321,-7.1206,-7.1168,-7.2168,-7.3129,-7.3437,-7.4014,-7.4437,-7.4976,-7.5553,-7.5861,-7.5754,-7.5915,-7.6018,-7.6018,-7.6542,-7.6765,-7.6881,-7.6981,-7.7072,-7.7187,-7.7226,-7.7226,-7.7226,-7.7226,-7.7226,-7.7226,-7.7226,-7.7226,-7.7226,-7.7226,-7.7226,-7.7226,-7.7226,-7.7226,-7.7148,-7.6797,-7.664,-7.7031,-7.6875,-7.6836,-7.707,-7.7187,-7.7226,-7.7226,-7.7187,-7.7187,-7.7148,-7.7109,-7.7031,-7.7031,-7.7202,-7.7169,-7.6784,-7.7015,-7.7784,-7.8323,-7.9015,-8.0131,-8.0669,-8.0592,-8.0554,-8.0823,-8.1093,-8.1093,-8.1093,-8.1093,-8.1093,-8.1093,-8.1093,-8.1093,-8.1093,-8.1093,-8.1093,-5.3389,-5.5511,-5.5665,-5.5703,-5.5994,-5.7538,-5.8303,-5.8519,-6.0104,-6.0781,-6.0781,-6.0781,-6.0781,-6.1012,-6.1897,-6.2781,-6.3935,-6.4974,-6.5859,-6.5936,-6.6641,-6.7102,-6.7667,-6.8706,-6.959,-6.9821,-6.9937,-7.0321,-7.0706,-7.0898,-7.0898,-7.0898,-7.0898,-7.0898,-7.1091,-7.1525,-7.1525,-7.1129,-7.1937,-7.2129,-7.1168,-7.1514,-7.1475,-7.1514,-7.1822,-7.2476,-7.2822,-7.3245,-7.3601,-7.3716,-7.4553,-7.487,-7.5066,-7.5429,-7.5482,-7.5521,-7.6438,-7.6901,-7.7002,-7.7109,-7.7187,-7.7226,-7.7226,-7.7226,-7.7226,-7.7226,-7.7226,-7.7226,-7.7226,-7.7226,-7.7226,-7.7226,-7.7226,-7.7226,-7.7226,-7.7226,-7.7226,-7.7226,-7.7148,-7.7148,-7.707,-7.7109,-7.7148,-7.7226,-7.7226,-7.7187,-7.7187,-7.7156,-7.7112,-7.6975,-7.6863,-7.6762,-7.6881,-7.6823,-7.6438,-7.6784,-7.7515,-7.79,-7.8438,-7.9438,-8.0439,-8.0669,-8.0669,-8.09,-8.1093,-8.1093,-8.1093,-8.1093,-8.1093,-8.1093,-8.1093,-8.1093,-8.1093,-8.1093,-8.1093,-5.3046,-5.4741,-5.5434,-5.5703,-5.5955,-5.7576,-5.8264,-5.8581,-6.0027,-6.0781,-6.0781,-6.0781,-6.0781,-6.1166,-6.2474,-6.3897,-6.5051,-6.5743,-6.5897,-6.6013,-6.6718,-6.7372,-6.8205,-6.9129,-7.0014,-7.0552,-7.0629,-7.0706,-7.0821,-7.0898,-7.0898,-7.0898,-7.0898,-7.0898,-7.0937,-7.1091,-7.1245,-7.1052,-7.1552,-7.1514,-7.1129,-7.1091,-7.1475,-7.1629,-7.1937,-7.2322,-7.2822,-7.286,-7.3014,-7.3514,-7.2822,-7.3283,-7.4372,-7.582,-7.6211,-7.5976,-7.6445,-7.6953,-7.6992,-7.7148,-7.7187,-7.7226,-7.7226,-7.7226,-7.7226,-7.7226,-7.7226,-7.7226,-7.7226,-7.7226,-7.7226,-7.7226,-7.7226,-7.7226,-7.7226,-7.7226,-7.7226,-7.7226,-7.7226,-7.7226,-7.7226,-7.7226,-7.7226,-7.7226,-7.7226,-7.7148,-7.707,-7.7058,-7.7001,-7.6827,-7.6632,-7.6508,-7.6429,-7.6284,-7.6092,-7.6669,-7.7246,-7.7438,-7.8015,-7.8977,-7.9862,-8.0516,-8.0823,-8.1016,-8.1093,-8.1093,-8.1093,-8.1093,-8.1093,-8.1093,-8.1093,-8.1093,-8.1093,-8.1093,-8.1093,-5.2589,-5.4511,-5.4912,-5.5357,-5.5895,-5.7054,-5.7918,-5.8443,-5.958,-6.0396,-6.0704,-6.0781,-6.0781,-6.1243,-6.2551,-6.4243,-6.5513,-6.5897,-6.5897,-6.6051,-6.6744,-6.759,-6.8398,-6.9283,-7.0129,-7.0706,-7.0898,-7.0898,-7.0898,-7.0898,-7.0898,-7.0898,-7.0898,-7.0898,-7.1014,-7.1398,-7.1206,-7.1168,-7.1629,-7.1706,-7.0975,-7.0898,-7.1206,-7.1398,-7.1552,-7.1745,-7.1975,-7.2168,-7.2147,-7.2468,-7.2533,-7.3031,-7.4054,-7.5195,-7.6133,-7.5586,-7.6055,-7.6523,-7.668,-7.6875,-7.7226,-7.7226,-7.7226,-7.7226,-7.7226,-7.7226,-7.7226,-7.7226,-7.7226,-7.7226,-7.7226,-7.7226,-7.7226,-7.7226,-7.7226,-7.7226,-7.7226,-7.7226,-7.7187,-7.7187,-7.7187,-7.7187,-7.7226,-7.7226,-7.7226,-7.7109,-7.6992,-7.693,-7.691,-7.6661,-7.6382,-7.6353,-7.6245,-7.6169,-7.6053,-7.6438,-7.6976,-7.7207,-7.7592,-7.8554,-7.9438,-8.0169,-8.0669,-8.1016,-8.1054,-8.1093,-8.1093,-8.1093,-8.1093,-8.1093,-8.1093,-8.1093,-8.1093,-8.1093,-8.1054,-5.2222,-5.4241,-5.4413,-5.4951,-5.578,-5.6609,-5.7418,-5.812,-5.9081,-5.9911,-6.0512,-6.0704,-6.0781,-6.1243,-6.2512,-6.4166,-6.559,-6.5743,-6.5897,-6.6051,-6.6692,-6.75,-6.8205,-6.9206,-7.0014,-7.0437,-7.086,-7.0898,-7.0898,-7.0898,-7.0898,-7.0898,-7.0898,-7.0898,-7.1014,-7.136,-7.1321,-7.1591,-7.2091,-7.2129,-7.1245,-7.0898,-7.0898,-7.0898,-7.0937,-7.1014,-7.1206,-7.1475,-7.1593,-7.1918,-7.2405,-7.3175,-7.3664,-7.4702,-7.5117,-7.4844,-7.543,-7.5781,-7.6094,-7.6445,-7.6914,-7.7148,-7.7187,-7.7226,-7.7226,-7.7226,-7.7226,-7.7226,-7.7226,-7.7226,-7.7226,-7.7226,-7.7226,-7.7226,-7.7226,-7.7226,-7.7226,-7.7148,-7.6992,-7.6992,-7.7109,-7.7187,-7.7187,-7.6797,-7.6719,-7.707,-7.6961,-7.6784,-7.6723,-7.6429,-7.6222,-7.6206,-7.613,-7.6092,-7.6053,-7.613,-7.6669,-7.7053,-7.74,-7.8092,-7.8977,-7.9862,-8.0285,-8.0669,-8.1054,-8.1093,-8.1093,-8.1093,-8.1093,-8.1093,-8.1093,-8.1093,-8.1093,-8.1016,-8.0939,-5.2073,-5.3433,-5.4182,-5.4951,-5.578,-5.6571,-5.7054,-5.7379,-5.8796,-5.9527,-5.9819,-6.0473,-6.0819,-6.1281,-6.2551,-6.3795,-6.4757,-6.559,-6.5897,-6.6013,-6.6615,-6.7077,-6.7552,-6.9013,-6.959,-7.009,-7.0629,-7.086,-7.0898,-7.0898,-7.0898,-7.0898,-7.0898,-7.0898,-7.0937,-7.1129,-7.1014,-7.0975,-7.1168,-7.1168,-7.0975,-7.0898,-7.0898,-7.0975,-7.1052,-7.1145,-7.1171,-7.1441,-7.1647,-7.1695,-7.1983,-7.2939,-7.4012,-7.3783,-7.4101,-7.4609,-7.5312,-7.5898,-7.582,-7.6055,-7.6562,-7.7031,-7.7226,-7.7226,-7.7226,-7.7226,-7.7226,-7.7226,-7.7226,-7.7226,-7.7226,-7.7226,-7.7226,-7.7226,-7.7226,-7.7226,-7.7226,-7.7187,-7.6992,-7.6758,-7.6836,-7.707,-7.7187,-7.664,-7.625,-7.664,-7.6917,-7.675,-7.6584,-7.6332,-7.6169,-7.6169,-7.6245,-7.6207,-7.6222,-7.6272,-7.6558,-7.7004,-7.7352,-7.7737,-7.8515,-7.9323,-7.9746,-8.0131,-8.0592,-8.1016,-8.1093,-8.1093,-8.1093,-8.1016,-8.09,-8.0977,-8.1093,-8.0939,-8.0554,-5.183,-5.3241,-5.3605,-5.4549,-5.5665,-5.6109,-5.6571,-5.7208,-5.828,-5.9065,-5.9588,-6.0435,-6.105,-6.1627,-6.282,-6.3757,-6.4641,-6.5513,-6.5897,-6.5897,-6.6307,-6.6692,-6.7282,-6.8359,-6.909,-6.9783,-7.0437,-7.086,-7.0898,-7.0898,-7.0898,-7.0898,-7.0898,-7.0898,-7.0898,-7.0898,-7.0898,-7.0898,-7.0937,-7.0898,-7.0898,-7.0898,-7.0975,-7.1052,-7.1156,-7.126,-7.1407,-7.1557,-7.1684,-7.1733,-7.1887,-7.2539,-7.3476,-7.3555,-7.3515,-7.3789,-7.418,-7.4609,-7.5117,-7.5586,-7.6289,-7.6914,-7.7187,-7.7226,-7.7226,-7.7226,-7.7226,-7.7226,-7.7226,-7.7226,-7.7226,-7.7226,-7.7226,-7.7226,-7.7226,-7.7226,-7.7226,-7.7187,-7.707,-7.6797,-7.6562,-7.6797,-7.707,-7.6914,-7.664,-7.6836,-7.6965,-7.6781,-7.6596,-7.638,-7.6284,-7.6207,-7.6322,-7.6399,-7.643,-7.648,-7.6781,-7.714,-7.7333,-7.7728,-7.816,-7.8707,-7.9092,-7.9554,-8.0015,-8.0477,-8.0862,-8.1093,-8.1054,-8.09,-8.0708,-8.0554,-8.0362,-7.9669,-7.9246,-5.1548,-5.2856,-5.3087,-5.4164,-5.5665,-5.5703,-5.6071,-5.6725,-5.7857,-5.8665,-5.9358,-6.0281,-6.1166,-6.1897,-6.2743,-6.3641,-6.4295,-6.5397,-6.582,-6.5897,-6.5936,-6.6244,-6.6936,-6.7821,-6.8783,-6.9398,-7.0437,-7.0821,-7.0898,-7.0898,-7.0898,-7.0898,-7.0898,-7.0898,-7.0898,-7.0898,-7.0898,-7.0898,-7.0898,-7.0898,-7.0898,-7.0898,-7.0975,-7.1106,-7.1221,-7.1317,-7.1497,-7.1708,-7.1766,-7.1808,-7.1901,-7.2461,-7.3203,-7.3359,-7.332,-7.3437,-7.3555,-7.3945,-7.457,-7.5234,-7.6015,-7.6601,-7.7148,-7.7226,-7.7226,-7.7226,-7.7226,-7.7226,-7.7226,-7.7226,-7.7226,-7.7226,-7.7226,-7.7226,-7.7226,-7.7226,-7.7226,-7.7187,-7.6992,-7.6562,-7.6406,-7.6523,-7.6797,-7.707,-7.7109,-7.7109,-7.7022,-7.6815,-7.6623,-7.6398,-7.6415,-7.6391,-7.6441,-7.6559,-7.6661,-7.6769,-7.7099,-7.7209,-7.7373,-7.74,-7.7583,-7.79,-7.8284,-7.8823,-7.9361,-7.9561,-7.9792,-8.0477,-8.1016,-8.0592,-8.0169,-7.9823,-7.9438,-7.8707,-7.8169,-5.1202,-5.2087,-5.2874,-5.4164,-5.5665,-5.5703,-5.5742,-5.6049,-5.7588,-5.8396,-5.8934,-6.0012,-6.0858,-6.132,-6.2551,-6.3358,-6.3512,-6.5166,-6.5743,-6.5897,-6.5897,-6.5974,-6.659,-6.7436,-6.8359,-6.8744,-6.9783,-7.0552,-7.0821,-7.0667,-7.0783,-7.0898,-7.0898,-7.0898,-7.0898,-7.0898,-7.0898,-7.0898,-7.0898,-7.0898,-7.0898,-7.0898,-7.0937,-7.103,-7.128,-7.1496,-7.1498,-7.1776,-7.1953,-7.1953,-7.1992,-7.2226,-7.289,-7.3086,-7.3086,-7.3086,-7.3086,-7.3476,-7.4062,-7.4648,-7.5195,-7.5937,-7.668,-7.7226,-7.7226,-7.7226,-7.7226,-7.7226,-7.7226,-7.7226,-7.7226,-7.7226,-7.7226,-7.7226,-7.7226,-7.7226,-7.7226,-7.7226,-7.6953,-7.6406,-7.6328,-7.664,-7.6523,-7.6797,-7.6797,-7.6758,-7.664,-7.6456,-7.6544,-7.6441,-7.6575,-7.6566,-7.6575,-7.669,-7.6881,-7.6985,-7.7034,-7.6987,-7.7073,-7.6869,-7.6727,-7.7083,-7.7515,-7.7938,-7.8438,-7.8562,-7.8908,-7.9638,-8.0131,-7.9969,-7.9623,-7.8977,-7.8515,-7.7977,-7.7592,-5.1164,-5.1972,-5.2856,-5.3874,-5.4989,-5.5511,-5.5703,-5.5972,-5.7511,-5.8934,-5.9819,-6.0512,-6.0781,-6.1281,-6.2474,-6.332,-6.3551,-6.5128,-6.5705,-6.5897,-6.5897,-6.5897,-6.6359,-6.6898,-6.759,-6.7898,-6.8859,-6.9744,-7.0129,-7.0244,-7.0552,-7.0706,-7.0898,-7.0898,-7.0898,-7.0898,-7.0898,-7.0898,-7.0898,-7.0898,-7.0898,-7.0937,-7.1014,-7.1299,-7.1364,-7.1606,-7.176,-7.1906,-7.1992,-7.1992,-7.1992,-7.2265,-7.25,-7.2578,-7.2578,-7.2578,-7.2578,-7.2812,-7.332,-7.4101,-7.5195,-7.6445,-7.7031,-7.7187,-7.7187,-7.7187,-7.7187,-7.7226,-7.7187,-7.7187,-7.7187,-7.7187,-7.7226,-7.7226,-7.7148,-7.7031,-7.7031,-7.6914,-7.6953,-7.6445,-7.664,-7.6992,-7.6758,-7.6523,-7.6445,-7.6328,-7.6211,-7.6121,-7.6274,-7.6534,-7.6691,-7.6788,-7.6793,-7.683,-7.6982,-7.6957,-7.6907,-7.6839,-7.68,-7.6651,-7.6465,-7.639,-7.6852,-7.7198,-7.7583,-7.7861,-7.8323,-7.8977,-7.9208,-7.9045,-7.8507,-7.7784,-7.7438,-7.7169,-7.7015,-5.101,-5.1664,-5.2741,-5.3682,-5.4566,-5.5357,-5.5703,-5.6011,-5.755,-5.9242,-6.0781,-6.0781,-6.0781,-6.1281,-6.2512,-6.3281,-6.3782,-6.4974,-6.5667,-6.5897,-6.5897,-6.5897,-6.6167,-6.6628,-6.7244,-6.7282,-6.7975,-6.8898,-6.9783,-6.9706,-7.0206,-7.0706,-7.0898,-7.0898,-7.0898,-7.0898,-7.0898,-7.0898,-7.0898,-7.0898,-7.0898,-7.0898,-7.1014,-7.1325,-7.1448,-7.161,-7.1799,-7.1914,-7.1992,-7.1992,-7.1992,-7.1992,-7.1992,-7.1992,-7.1992,-7.1992,-7.1992,-7.207,-7.2695,-7.375,-7.5234,-7.6367,-7.668,-7.6875,-7.707,-7.6992,-7.6758,-7.7226,-7.7187,-7.7109,-7.6953,-7.6719,-7.6406,-7.6172,-7.6055,-7.5976,-7.6172,-7.6211,-7.6484,-7.6523,-7.6719,-7.664,-7.6133,-7.5703,-7.5351,-7.5508,-7.5976,-7.5937,-7.6072,-7.6448,-7.6947,-7.6986,-7.6986,-7.704,-7.7077,-7.6957,-7.6842,-7.6755,-7.6713,-7.6711,-7.6559,-7.6415,-7.6342,-7.6736,-7.7015,-7.7246,-7.7438,-7.7669,-7.7938,-7.8122,-7.7515,-7.6899,-7.6746,-7.6592,-7.6553,-5.0702,-5.0933,-5.251,-5.3682,-5.4489,-5.5357,-5.5703,-5.5934,-5.755,-5.9242,-6.0666,-6.0781,-6.0781,-6.1204,-6.2551,-6.3243,-6.368,-6.5051,-6.5897,-6.5897,-6.5897,-6.5897,-6.6128,-6.6551,-6.6859,-6.7244,-6.7705,-6.8398,-6.9475,-6.9475,-6.9975,-7.0591,-7.0821,-7.0898,-7.0898,-7.0898,-7.0898,-7.0898,-7.0898,-7.0898,-7.0898,-7.0898,-7.1052,-7.13,-7.1435,-7.1581,-7.1809,-7.1948,-7.1992,-7.1992,-7.1992,-7.1992,-7.1992,-7.1992,-7.1992,-7.1992,-7.1992,-7.2383,-7.3164,-7.4062,-7.4922,-7.5703,-7.5937,-7.6133,-7.668,-7.6562,-7.6289,-7.6836,-7.6992,-7.668,-7.6328,-7.5859,-7.5508,-7.5273,-7.5195,-7.5195,-7.543,-7.5547,-7.582,-7.5937,-7.5898,-7.5781,-7.5234,-7.4726,-7.4297,-7.4492,-7.539,-7.5742,-7.5742,-7.6211,-7.6758,-7.7043,-7.7011,-7.6993,-7.6941,-7.6915,-7.6778,-7.671,-7.6651,-7.6665,-7.6614,-7.6413,-7.6405,-7.6447,-7.6476,-7.663,-7.6361,-7.6169,-7.6669,-7.713,-7.6669,-7.6207,-7.6053,-7.6207,-7.6515,-5.0702,-5.0856,-5.251,-5.3356,-5.3818,-5.5126,-5.5703,-5.6011,-5.755,-5.9242,-6.055,-6.0781,-6.0781,-6.132,-6.2397,-6.332,-6.3641,-6.5051,-6.5897,-6.5897,-6.5897,-6.5897,-6.6013,-6.6167,-6.6359,-6.6359,-6.6744,-6.7282,-6.7936,-6.8629,-6.9333,-6.9948,-7.0706,-7.0898,-7.0898,-7.0898,-7.0898,-7.0898,-7.0898,-7.0898,-7.0898,-7.0898,-7.1052,-7.1376,-7.1493,-7.1615,-7.1836,-7.1992,-7.1992,-7.1992,-7.1992,-7.1992,-7.1992,-7.1992,-7.1992,-7.1992,-7.1992,-7.2109,-7.2617,-7.3242,-7.4101,-7.4687,-7.5078,-7.5195,-7.539,-7.5859,-7.6055,-7.6211,-7.6328,-7.6094,-7.5976,-7.5312,-7.4922,-7.4844,-7.4765,-7.4765,-7.4883,-7.4922,-7.5039,-7.5039,-7.5039,-7.4609,-7.4101,-7.3867,-7.3476,-7.3281,-7.3984,-7.4687,-7.4883,-7.5703,-7.6367,-7.6797,-7.6965,-7.6881,-7.6814,-7.6734,-7.6659,-7.6546,-7.6591,-7.6691,-7.6591,-7.645,-7.6455,-7.6506,-7.6245,-7.5976,-7.6015,-7.6053,-7.6092,-7.6169,-7.6053,-7.6015,-7.6015,-7.6515,-7.7207,-5.0702,-5.0894,-5.251,-5.3203,-5.3472,-5.4972,-5.5972,-5.6703,-5.7857,-5.9242,-6.0512,-6.0781,-6.0781,-6.1281,-6.2435,-6.332,-6.3488,-6.5051,-6.5897,-6.5897,-6.5897,-6.5897,-6.5897,-6.5897,-6.6013,-6.5897,-6.5974,-6.6397,-6.7282,-6.8052,-6.909,-7.0129,-7.0629,-7.086,-7.0898,-7.0898,-7.0898,-7.0898,-7.0898,-7.0898,-7.0898,-7.0937,-7.1091,-7.1376,-7.1532,-7.1643,-7.1875,-7.1992,-7.1992,-7.1992,-7.1992,-7.1992,-7.1992,-7.1992,-7.1992,-7.1992,-7.1992,-7.1992,-7.2265,-7.2461,-7.3164,-7.3515,-7.3906,-7.4297,-7.4453,-7.4765,-7.5078,-7.5273,-7.539,-7.5234,-7.5,-7.4336,-7.414,-7.4023,-7.3789,-7.375,-7.3789,-7.3828,-7.414,-7.414,-7.4101,-7.3594,-7.3125,-7.293,-7.2656,-7.2578,-7.2578,-7.332,-7.414,-7.5117,-7.6015,-7.6562,-7.6868,-7.6846,-7.6714,-7.6553,-7.6438,-7.6399,-7.6456,-7.6544,-7.656,-7.6455,-7.6503,-7.6544,-7.639,-7.6245,-7.613,-7.613,-7.613,-7.6092,-7.6015,-7.6015,-7.6015,-7.6553,-7.7275,-5.0702,-5.0933,-5.2472,-5.3164,-5.3472,-5.4972,-5.6626,-5.8204,-5.828,-5.9242,-6.0742,-6.0781,-6.0781,-6.1127,-6.2512,-6.3205,-6.3551,-6.5051,-6.5628,-6.5859,-6.5897,-6.5897,-6.5897,-6.5897,-6.5897,-6.5897,-6.5936,-6.6244,-6.7051,-6.7975,-6.9244,-7.036,-7.0744,-7.086,-7.0898,-7.0898,-7.0898,-7.0898,-7.0898,-7.0898,-7.0898,-7.0937,-7.1168,-7.1389,-7.1571,-7.1711,-7.1914,-7.1992,-7.1992,-7.1992,-7.1992,-7.1992,-7.1992,-7.1992,-7.1992,-7.1992,-7.1992,-7.1992,-7.2031,-7.2187,-7.2187,-7.2578,-7.293,-7.3633,-7.3984,-7.3906,-7.418,-7.4414,-7.4531,-7.4062,-7.3594,-7.332,-7.3008,-7.2734,-7.2383,-7.2383,-7.2461,-7.2695,-7.3125,-7.3281,-7.3281,-7.293,-7.2461,-7.2187,-7.2305,-7.2226,-7.2305,-7.2773,-7.3672,-7.4844,-7.5703,-7.6406,-7.6653,-7.6792,-7.6657,-7.6457,-7.6284,-7.6245,-7.6245,-7.6326,-7.6376,-7.6469,-7.6533,-7.6596,-7.6601,-7.6506,-7.6322,-7.6207,-7.613,-7.6092,-7.6159,-7.6092,-7.613,-7.6313,-7.6899,-5.0702,-5.0818,-5.1856,-5.2626,-5.3395,-5.4972,-5.6703,-5.8165,-5.8296,-5.9242,-6.0781,-6.0781,-6.0781,-6.0935,-6.1935,-6.2704,-6.3551,-6.4411,-6.5282,-6.5628,-6.5859,-6.5859,-6.5897,-6.5897,-6.5897,-6.5897,-6.5936,-6.6051,-6.6551,-6.759,-6.8794,-6.9871,-7.0514,-7.0744,-7.0821,-7.0898,-7.0898,-7.0898,-7.0898,-7.0898,-7.0937,-7.1014,-7.1233,-7.1453,-7.1579,-7.1768,-7.1953,-7.1992,-7.1992,-7.1992,-7.1992,-7.1992,-7.1992,-7.1992,-7.1992,-7.1992,-7.1992,-7.1992,-7.1992,-7.1992,-7.1992,-7.1992,-7.2305,-7.2344,-7.2734,-7.3086,-7.3359,-7.3555,-7.3672,-7.332,-7.3047,-7.2773,-7.25,-7.2226,-7.1992,-7.2031,-7.2109,-7.2226,-7.2617,-7.2617,-7.2617,-7.2539,-7.2031,-7.2031,-7.2109,-7.2031,-7.2226,-7.2656,-7.3281,-7.4492,-7.543,-7.6172,-7.661,-7.6809,-7.6649,-7.6475,-7.6265,-7.6092,-7.6169,-7.6284,-7.6419,-7.6531,-7.6571,-7.6653,-7.6704,-7.6649,-7.6544,-7.6426,-7.6305,-7.6398,-7.6457,-7.6352,-7.6284,-7.6467,-7.6842,-5.0702,-5.0818,-5.1548,-5.2587,-5.3836,-5.5126,-5.6549,-5.7703,-5.8143,-5.9127,-6.0242,-6.0627,-6.0781,-6.0935,-6.1704,-6.2397,-6.2858,-6.4103,-6.4949,-6.5205,-6.5705,-6.5859,-6.5897,-6.5897,-6.5897,-6.5897,-6.5897,-6.5936,-6.6244,-6.7128,-6.8294,-6.9152,-6.9986,-7.0321,-7.0475,-7.0667,-7.0898,-7.0898,-7.0898,-7.0898,-7.0975,-7.1079,-7.13,-7.1487,-7.1646,-7.1824,-7.1953,-7.1992,-7.1992,-7.1992,-7.1992,-7.1992,-7.1992,-7.1992,-7.1992,-7.1992,-7.1992,-7.1992,-7.1992,-7.1992,-7.1992,-7.1992,-7.1992,-7.2031,-7.2187,-7.25,-7.2656,-7.2773,-7.2773,-7.2734,-7.2539,-7.2383,-7.2187,-7.1992,-7.1992,-7.1992,-7.1992,-7.1992,-7.2031,-7.2031,-7.207,-7.207,-7.1992,-7.1992,-7.2031,-7.2109,-7.2539,-7.3203,-7.3672,-7.4375,-7.5273,-7.6055,-7.6523,-7.6867,-7.6684,-7.6543,-7.6403,-7.6283,-7.6361,-7.6438,-7.6583,-7.6661,-7.6776,-7.6803,-7.6833,-7.6797,-7.6719,-7.6601,-7.6529,-7.6632,-7.6649,-7.6598,-7.6558,-7.6659,-7.715,-5.0702,-5.0779,-5.1625,-5.2895,-5.4374,-5.528,-5.6186,-5.6977,-5.7896,-5.8758,-5.9588,-6.0435,-6.0781,-6.0935,-6.1512,-6.1935,-6.2512,-6.3512,-6.4141,-6.4551,-6.5282,-6.559,-6.5628,-6.5859,-6.5897,-6.5897,-6.5897,-6.5897,-6.6128,-6.6859,-6.7718,-6.8345,-6.914,-6.959,-6.964,-7.0321,-7.0552,-7.0591,-7.0821,-7.0975,-7.1014,-7.1133,-7.1332,-7.1532,-7.1687,-7.1836,-7.1953,-7.1992,-7.1992,-7.1992,-7.1992,-7.1992,-7.1992,-7.1992,-7.1992,-7.1992,-7.1992,-7.1992,-7.1992,-7.1992,-7.1992,-7.1992,-7.1992,-7.1992,-7.207,-7.2148,-7.2265,-7.2305,-7.2344,-7.2344,-7.2226,-7.2187,-7.207,-7.1992,-7.1992,-7.1992,-7.1992,-7.1992,-7.1992,-7.1992,-7.1992,-7.1992,-7.1992,-7.1992,-7.1992,-7.2148,-7.2695,-7.3476,-7.418,-7.4609,-7.539,-7.6172,-7.6601,-7.6953,-7.6839,-7.6713,-7.6621,-7.6585,-7.6572,-7.6583,-7.6688,-7.6828,-7.6982,-7.6992,-7.6992,-7.6953,-7.6914,-7.6836,-7.6797,-7.6765,-7.6793,-7.6806,-7.6823,-7.6905,-7.7156,-5.0702,-5.0818,-5.2281,-5.3166,-5.3703,-5.5088,-5.578,-5.6165,-5.7665,-5.8742,-5.955,-6.0358,-6.0781,-6.0896,-6.105,-6.1435,-6.2166,-6.2651,-6.3051,-6.3705,-6.4512,-6.4897,-6.5089,-6.5474,-6.5743,-6.5897,-6.5897,-6.5897,-6.6051,-6.6628,-6.7128,-6.7475,-6.8244,-6.8706,-6.8783,-6.959,-7.0129,-7.0206,-7.0783,-7.1091,-7.1168,-7.1321,-7.1519,-7.1669,-7.1819,-7.1914,-7.1992,-7.1992,-7.1992,-7.1992,-7.1992,-7.1992,-7.1992,-7.1992,-7.1992,-7.1992,-7.1992,-7.1992,-7.1992,-7.1992,-7.1992,-7.1992,-7.1992,-7.1992,-7.1992,-7.1992,-7.1992,-7.1992,-7.1992,-7.1992,-7.1992,-7.1992,-7.1992,-7.1992,-7.1992,-7.1992,-7.1992,-7.1992,-7.1992,-7.1992,-7.1992,-7.1992,-7.1992,-7.1992,-7.1992,-7.2305,-7.2851,-7.3594,-7.4492,-7.5117,-7.5937,-7.664,-7.6875,-7.7109,-7.6992,-7.6888,-7.6833,-7.6721,-7.6704,-7.6742,-7.6797,-7.6953,-7.7109,-7.7148,-7.7148,-7.7109,-7.707,-7.7109,-7.707,-7.6992,-7.6956,-7.6986,-7.702,-7.7084,-7.7188,-5.0702,-5.0856,-5.2088,-5.2858,-5.3395,-5.4626,-5.5357,-5.5895,-5.7148,-5.8165,-5.9127,-6.0165,-6.0781,-6.0781,-6.0819,-6.0973,-6.1589,-6.1959,-6.2382,-6.2935,-6.3512,-6.3921,-6.4383,-6.4936,-6.5128,-6.532,-6.5743,-6.5936,-6.6013,-6.6205,-6.6551,-6.6731,-6.7398,-6.7859,-6.8013,-6.8898,-6.9667,-6.986,-7.0706,-7.1168,-7.1321,-7.1541,-7.1618,-7.1756,-7.1875,-7.1953,-7.1992,-7.1992,-7.1992,-7.1992,-7.1992,-7.1992,-7.1992,-7.1992,-7.1992,-7.1992,-7.1992,-7.1992,-7.1992,-7.1992,-7.1992,-7.1992,-7.1992,-7.1992,-7.1992,-7.1992,-7.1992,-7.1992,-7.1992,-7.1992,-7.1992,-7.1992,-7.1992,-7.1992,-7.1992,-7.1992,-7.1992,-7.1992,-7.1992,-7.1992,-7.1992,-7.1992,-7.1992,-7.1992,-7.2031,-7.2344,-7.289,-7.375,-7.4648,-7.5586,-7.6445,-7.6953,-7.7148,-7.7187,-7.7109,-7.707,-7.7009,-7.6933,-7.6836,-7.6914,-7.7031,-7.7109,-7.7187,-7.7187,-7.7187,-7.7187,-7.7187,-7.7226,-7.7226,-7.7109,-7.7148,-7.716,-7.7151,-7.7035,-7.6932,-5.0702,-5.0818,-5.1588,-5.2435,-5.3241,-5.4143,-5.4951,-5.578,-5.6648,-5.7418,-5.8319,-5.9858,-6.055,-6.0781,-6.0781,-6.0781,-6.0973,-6.1458,-6.1843,-6.2113,-6.2791,-6.3075,-6.3537,-6.4128,-6.4705,-6.5205,-6.5628,-6.582,-6.5897,-6.6051,-6.609,-6.609,-6.6436,-6.6962,-6.7462,-6.8385,-6.9283,-6.9744,-7.0437,-7.1206,-7.1503,-7.171,-7.1723,-7.1785,-7.1914,-7.1992,-7.1992,-7.1992,-7.1992,-7.1992,-7.1992,-7.1992,-7.1992,-7.1992,-7.1992,-7.1992,-7.1992,-7.1992,-7.1992,-7.1992,-7.1992,-7.1992,-7.1992,-7.1992,-7.1992,-7.1992,-7.1992,-7.1992,-7.1992,-7.1992,-7.1992,-7.1992,-7.1992,-7.1992,-7.1992,-7.1992,-7.1992,-7.1992,-7.1992,-7.1992,-7.1992,-7.1992,-7.1992,-7.1992,-7.2148,-7.2422,-7.3125,-7.3984,-7.4883,-7.5898,-7.6836,-7.7109,-7.7187,-7.7187,-7.7187,-7.7148,-7.7109,-7.7109,-7.7031,-7.7148,-7.7226,-7.7226,-7.7226,-7.7226,-7.7226,-7.7148,-7.7187,-7.7226,-7.7226,-7.707,-7.6836,-7.668,-7.6504,-7.64,-7.634,-5.0702,-5.0779,-5.1549,-5.2396,-5.3263,-5.4126,-5.4951,-5.5742,-5.6571,-5.711,-5.7665,-5.8973,-6.0089,-6.0781,-6.0781,-6.0781,-6.0819,-6.1151,-6.105,-6.1189,-6.1982,-6.2228,-6.2728,-6.3705,-6.4859,-6.5397,-6.5667,-6.582,-6.5897,-6.5897,-6.5897,-6.5974,-6.5974,-6.6282,-6.6538,-6.75,-6.8437,-6.9143,-7.0129,-7.0975,-7.1491,-7.1719,-7.1814,-7.1887,-7.1992,-7.1992,-7.1992,-7.1992,-7.1992,-7.1992,-7.1992,-7.1992,-7.1992,-7.1992,-7.1992,-7.1992,-7.1992,-7.1992,-7.1992,-7.1992,-7.1992,-7.1992,-7.1992,-7.1992,-7.1992,-7.1992,-7.1992,-7.1992,-7.1992,-7.1992,-7.1992,-7.1992,-7.1992,-7.1992,-7.1992,-7.1992,-7.1992,-7.1992,-7.1992,-7.1992,-7.1992,-7.1992,-7.1992,-7.2031,-7.207,-7.2578,-7.3555,-7.4375,-7.4961,-7.6055,-7.7187,-7.7187,-7.7187,-7.7226,-7.7187,-7.7187,-7.7187,-7.7187,-7.7226,-7.7226,-7.7226,-7.7226,-7.7226,-7.7226,-7.7148,-7.707,-7.7109,-7.6836,-7.6836,-7.664,-7.6289,-7.6055,-7.5859,-7.5644,-7.5488]}]]